﻿<?xml version="1.0" encoding="utf-8"?><gpx creator="Garmin Desktop App" version="1.1" xsi:schemaLocation="http://www.topografix.com/GPX/1/1 http://www.topografix.com/GPX/1/1/gpx.xsd http://www.garmin.com/xmlschemas/WaypointExtension/v1 http://www8.garmin.com/xmlschemas/WaypointExtensionv1.xsd http://www.garmin.com/xmlschemas/TrackPointExtension/v1 http://www.garmin.com/xmlschemas/TrackPointExtensionv1.xsd http://www.garmin.com/xmlschemas/GpxExtensions/v3 http://www8.garmin.com/xmlschemas/GpxExtensionsv3.xsd http://www.garmin.com/xmlschemas/ActivityExtension/v1 http://www8.garmin.com/xmlschemas/ActivityExtensionv1.xsd http://www.garmin.com/xmlschemas/AdventuresExtensions/v1 http://www8.garmin.com/xmlschemas/AdventuresExtensionv1.xsd http://www.garmin.com/xmlschemas/PressureExtension/v1 http://www.garmin.com/xmlschemas/PressureExtensionv1.xsd http://www.garmin.com/xmlschemas/TripExtensions/v1 http://www.garmin.com/xmlschemas/TripExtensionsv1.xsd http://www.garmin.com/xmlschemas/TripMetaDataExtensions/v1 http://www.garmin.com/xmlschemas/TripMetaDataExtensionsv1.xsd http://www.garmin.com/xmlschemas/ViaPointTransportationModeExtensions/v1 http://www.garmin.com/xmlschemas/ViaPointTransportationModeExtensionsv1.xsd http://www.garmin.com/xmlschemas/CreationTimeExtension/v1 http://www.garmin.com/xmlschemas/CreationTimeExtensionsv1.xsd http://www.garmin.com/xmlschemas/AccelerationExtension/v1 http://www.garmin.com/xmlschemas/AccelerationExtensionv1.xsd http://www.garmin.com/xmlschemas/PowerExtension/v1 http://www.garmin.com/xmlschemas/PowerExtensionv1.xsd http://www.garmin.com/xmlschemas/VideoExtension/v1 http://www.garmin.com/xmlschemas/VideoExtensionv1.xsd" xmlns="http://www.topografix.com/GPX/1/1" xmlns:xsi="http://www.w3.org/2001/XMLSchema-instance" xmlns:wptx1="http://www.garmin.com/xmlschemas/WaypointExtension/v1" xmlns:gpxtrx="http://www.garmin.com/xmlschemas/GpxExtensions/v3" xmlns:gpxtpx="http://www.garmin.com/xmlschemas/TrackPointExtension/v1" xmlns:gpxx="http://www.garmin.com/xmlschemas/GpxExtensions/v3" xmlns:trp="http://www.garmin.com/xmlschemas/TripExtensions/v1" xmlns:adv="http://www.garmin.com/xmlschemas/AdventuresExtensions/v1" xmlns:prs="http://www.garmin.com/xmlschemas/PressureExtension/v1" xmlns:tmd="http://www.garmin.com/xmlschemas/TripMetaDataExtensions/v1" xmlns:vptm="http://www.garmin.com/xmlschemas/ViaPointTransportationModeExtensions/v1" xmlns:ctx="http://www.garmin.com/xmlschemas/CreationTimeExtension/v1" xmlns:gpxacc="http://www.garmin.com/xmlschemas/AccelerationExtension/v1" xmlns:gpxpx="http://www.garmin.com/xmlschemas/PowerExtension/v1" xmlns:vidx1="http://www.garmin.com/xmlschemas/VideoExtension/v1">

  <metadata>
    <link href="http://www.garmin.com">
      <text>Garmin International</text>
    </link>
    <time>2016-12-18T15:53:30Z</time>
    <bounds maxlat="51.888995692133904" maxlon="39.588270150125027" minlat="51.741527589038014" minlon="39.366383235901594" />
  </metadata>

  <trk>
    <name>Трек 002</name>
    <extensions>
      <gpxx:TrackExtension>
        <gpxx:DisplayColor>DarkBlue</gpxx:DisplayColor>
      </gpxx:TrackExtension>
    </extensions>
    <trkseg>
      <trkpt lat="51.741527589038014" lon="39.366383235901594">
        <ele>111.65000000000001</ele>
        <time>2016-12-18T06:40:00Z</time>
      </trkpt>
      <trkpt lat="51.741758342832327" lon="39.367730543017387">
        <ele>114.53</ele>
        <time>2016-12-18T06:40:16Z</time>
      </trkpt>
      <trkpt lat="51.742226388305426" lon="39.369172817096114">
        <ele>116.94</ele>
        <time>2016-12-18T06:40:34Z</time>
      </trkpt>
      <trkpt lat="51.742709772661328" lon="39.370721876621246">
        <ele>115.5</ele>
        <time>2016-12-18T06:40:53Z</time>
      </trkpt>
      <trkpt lat="51.7430738825351" lon="39.371824683621526">
        <ele>114.53</ele>
        <time>2016-12-18T06:41:07Z</time>
      </trkpt>
      <trkpt lat="51.743533629924059" lon="39.373235022649169">
        <ele>115.01000000000001</ele>
        <time>2016-12-18T06:41:25Z</time>
      </trkpt>
      <trkpt lat="51.743921879678965" lon="39.374394994229078">
        <ele>115.5</ele>
        <time>2016-12-18T06:41:40Z</time>
      </trkpt>
      <trkpt lat="51.744353296235204" lon="39.375676168128848">
        <ele>116.45999999999999</ele>
        <time>2016-12-18T06:41:57Z</time>
      </trkpt>
      <trkpt lat="51.744904238730669" lon="39.377287924289703">
        <ele>117.90000000000001</ele>
        <time>2016-12-18T06:42:18Z</time>
      </trkpt>
      <trkpt lat="51.745281675830483" lon="39.378422750160098">
        <ele>119.34</ele>
        <time>2016-12-18T06:42:33Z</time>
      </trkpt>
      <trkpt lat="51.745357532054186" lon="39.378657359629869">
        <ele>119.81999999999999</ele>
        <time>2016-12-18T06:42:36Z</time>
      </trkpt>
      <trkpt lat="51.745379995554686" lon="39.378725336864591">
        <ele>119.81999999999999</ele>
        <time>2016-12-18T06:42:37Z</time>
      </trkpt>
      <trkpt lat="51.74589766189456" lon="39.380269618704915">
        <ele>120.3</ele>
        <time>2016-12-18T06:42:58Z</time>
      </trkpt>
      <trkpt lat="51.746144676581025" lon="39.381000101566315">
        <ele>119.81999999999999</ele>
        <time>2016-12-18T06:43:08Z</time>
      </trkpt>
      <trkpt lat="51.746282055974007" lon="39.381327666342258">
        <ele>120.3</ele>
        <time>2016-12-18T06:43:13Z</time>
      </trkpt>
      <trkpt lat="51.746323965489864" lon="39.381386758759618">
        <ele>120.3</ele>
        <time>2016-12-18T06:43:14Z</time>
      </trkpt>
      <trkpt lat="51.746372245252132" lon="39.381426656618714">
        <ele>119.81999999999999</ele>
        <time>2016-12-18T06:43:15Z</time>
      </trkpt>
      <trkpt lat="51.746425302699208" lon="39.38144157640636">
        <ele>119.81999999999999</ele>
        <time>2016-12-18T06:43:16Z</time>
      </trkpt>
      <trkpt lat="51.746466122567654" lon="39.381433613598347">
        <ele>119.81999999999999</ele>
        <time>2016-12-18T06:43:17Z</time>
      </trkpt>
      <trkpt lat="51.746509624645114" lon="39.38141031190753">
        <ele>120.3</ele>
        <time>2016-12-18T06:43:18Z</time>
      </trkpt>
      <trkpt lat="51.746550779789686" lon="39.381383489817381">
        <ele>120.3</ele>
        <time>2016-12-18T06:43:19Z</time>
      </trkpt>
      <trkpt lat="51.747024189680815" lon="39.381021559238434">
        <ele>118.86</ele>
        <time>2016-12-18T06:43:34Z</time>
      </trkpt>
      <trkpt lat="51.747219236567616" lon="39.380896501243114">
        <ele>118.38</ele>
        <time>2016-12-18T06:43:40Z</time>
      </trkpt>
      <trkpt lat="51.747248992323875" lon="39.380916198715568">
        <ele>118.38</ele>
        <time>2016-12-18T06:43:41Z</time>
      </trkpt>
      <trkpt lat="51.747278915718198" lon="39.380957186222076">
        <ele>118.38</ele>
        <time>2016-12-18T06:43:42Z</time>
      </trkpt>
      <trkpt lat="51.747296433895826" lon="39.380990294739604">
        <ele>118.38</ele>
        <time>2016-12-18T06:43:43Z</time>
      </trkpt>
      <trkpt lat="51.747318143025041" lon="39.38103555701673">
        <ele>118.38</ele>
        <time>2016-12-18T06:43:44Z</time>
      </trkpt>
      <trkpt lat="51.747340355068445" lon="39.381088279187679">
        <ele>118.38</ele>
        <time>2016-12-18T06:43:45Z</time>
      </trkpt>
      <trkpt lat="51.747669680044055" lon="39.382025208324194">
        <ele>119.34</ele>
        <time>2016-12-18T06:43:59Z</time>
      </trkpt>
      <trkpt lat="51.747937062755227" lon="39.382972698658705">
        <ele>117.90000000000001</ele>
        <time>2016-12-18T06:44:14Z</time>
      </trkpt>
      <trkpt lat="51.74795969389379" lon="39.383031455799937">
        <ele>117.90000000000001</ele>
        <time>2016-12-18T06:44:15Z</time>
      </trkpt>
      <trkpt lat="51.748230345547199" lon="39.383609890937805">
        <ele>118.38</ele>
        <time>2016-12-18T06:44:25Z</time>
      </trkpt>
      <trkpt lat="51.74825775437057" lon="39.383679879829288">
        <ele>118.38</ele>
        <time>2016-12-18T06:44:26Z</time>
      </trkpt>
      <trkpt lat="51.748632425442338" lon="39.384751506149769">
        <ele>117.90000000000001</ele>
        <time>2016-12-18T06:44:42Z</time>
      </trkpt>
      <trkpt lat="51.748965354636312" lon="39.385681478306651">
        <ele>118.38</ele>
        <time>2016-12-18T06:44:55Z</time>
      </trkpt>
      <trkpt lat="51.749050514772534" lon="39.386089341714978">
        <ele>118.86</ele>
        <time>2016-12-18T06:45:00Z</time>
      </trkpt>
      <trkpt lat="51.74906057305634" lon="39.386172238737345">
        <ele>118.86</ele>
        <time>2016-12-18T06:45:01Z</time>
      </trkpt>
      <trkpt lat="51.749065602198243" lon="39.386256728321314">
        <ele>118.86</ele>
        <time>2016-12-18T06:45:02Z</time>
      </trkpt>
      <trkpt lat="51.749063841998577" lon="39.386340631172061">
        <ele>118.86</ele>
        <time>2016-12-18T06:45:03Z</time>
      </trkpt>
      <trkpt lat="51.749058645218611" lon="39.386424953117967">
        <ele>118.38</ele>
        <time>2016-12-18T06:45:04Z</time>
      </trkpt>
      <trkpt lat="51.749055879190564" lon="39.386598374694586">
        <ele>117.90000000000001</ele>
        <time>2016-12-18T06:45:06Z</time>
      </trkpt>
      <trkpt lat="51.749066272750497" lon="39.386685881763697">
        <ele>117.90000000000001</ele>
        <time>2016-12-18T06:45:07Z</time>
      </trkpt>
      <trkpt lat="51.749085718765855" lon="39.386770203709602">
        <ele>117.90000000000001</ele>
        <time>2016-12-18T06:45:08Z</time>
      </trkpt>
      <trkpt lat="51.7492491658777" lon="39.387289378792048">
        <ele>117.42</ele>
        <time>2016-12-18T06:45:15Z</time>
      </trkpt>
      <trkpt lat="51.749301301315427" lon="39.38751082867384">
        <ele>117.42</ele>
        <time>2016-12-18T06:45:18Z</time>
      </trkpt>
      <trkpt lat="51.749324686825275" lon="39.38757780008018">
        <ele>117.42</ele>
        <time>2016-12-18T06:45:19Z</time>
      </trkpt>
      <trkpt lat="51.749442368745804" lon="39.387920368462801">
        <ele>117.90000000000001</ele>
        <time>2016-12-18T06:45:24Z</time>
      </trkpt>
      <trkpt lat="51.749491319060326" lon="39.388134693726897">
        <ele>117.90000000000001</ele>
        <time>2016-12-18T06:45:27Z</time>
      </trkpt>
      <trkpt lat="51.749515710398555" lon="39.388199737295508">
        <ele>117.90000000000001</ele>
        <time>2016-12-18T06:45:28Z</time>
      </trkpt>
      <trkpt lat="51.749544711783528" lon="39.388257572427392">
        <ele>117.90000000000001</ele>
        <time>2016-12-18T06:45:29Z</time>
      </trkpt>
      <trkpt lat="51.749579077586532" lon="39.388312054798007">
        <ele>117.90000000000001</ele>
        <time>2016-12-18T06:45:30Z</time>
      </trkpt>
      <trkpt lat="51.749615538865328" lon="39.388365112245083">
        <ele>118.38</ele>
        <time>2016-12-18T06:45:31Z</time>
      </trkpt>
      <trkpt lat="51.74964789301157" lon="39.388418421149254">
        <ele>118.38</ele>
        <time>2016-12-18T06:45:32Z</time>
      </trkpt>
      <trkpt lat="51.749676894396544" lon="39.388475921005011">
        <ele>118.38</ele>
        <time>2016-12-18T06:45:33Z</time>
      </trkpt>
      <trkpt lat="51.750007728114724" lon="39.389276979491115">
        <ele>119.34</ele>
        <time>2016-12-18T06:45:46Z</time>
      </trkpt>
      <trkpt lat="51.750526987016201" lon="39.390028836205602">
        <ele>122.22</ele>
        <time>2016-12-18T06:46:01Z</time>
      </trkpt>
      <trkpt lat="51.750950943678617" lon="39.390857219696045">
        <ele>121.73999999999999</ele>
        <time>2016-12-18T06:46:15Z</time>
      </trkpt>
      <trkpt lat="51.751043479889631" lon="39.391044806689024">
        <ele>121.26000000000001</ele>
        <time>2016-12-18T06:46:18Z</time>
      </trkpt>
      <trkpt lat="51.751186558976769" lon="39.391440767794847">
        <ele>121.26000000000001</ele>
        <time>2016-12-18T06:46:24Z</time>
      </trkpt>
      <trkpt lat="51.751235844567418" lon="39.391561551019549">
        <ele>121.26000000000001</ele>
        <time>2016-12-18T06:46:26Z</time>
      </trkpt>
      <trkpt lat="51.751252776011825" lon="39.391624750569463">
        <ele>121.26000000000001</ele>
        <time>2016-12-18T06:46:27Z</time>
      </trkpt>
      <trkpt lat="51.75125990062952" lon="39.391690129414201">
        <ele>120.78</ele>
        <time>2016-12-18T06:46:28Z</time>
      </trkpt>
      <trkpt lat="51.751259816810489" lon="39.391758609563112">
        <ele>120.78</ele>
        <time>2016-12-18T06:46:29Z</time>
      </trkpt>
      <trkpt lat="51.751256799325347" lon="39.391828598454595">
        <ele>120.78</ele>
        <time>2016-12-18T06:46:30Z</time>
      </trkpt>
      <trkpt lat="51.75125839188695" lon="39.391895402222872">
        <ele>120.78</ele>
        <time>2016-12-18T06:46:31Z</time>
      </trkpt>
      <trkpt lat="51.751264426857233" lon="39.391962457448244">
        <ele>120.3</ele>
        <time>2016-12-18T06:46:32Z</time>
      </trkpt>
      <trkpt lat="51.751277670264244" lon="39.392028087750077">
        <ele>120.3</ele>
        <time>2016-12-18T06:46:33Z</time>
      </trkpt>
      <trkpt lat="51.75129703246057" lon="39.392091874033213">
        <ele>120.3</ele>
        <time>2016-12-18T06:46:34Z</time>
      </trkpt>
      <trkpt lat="51.751318657770753" lon="39.392150463536382">
        <ele>120.3</ele>
        <time>2016-12-18T06:46:35Z</time>
      </trkpt>
      <trkpt lat="51.751340869814157" lon="39.392206622287631">
        <ele>120.3</ele>
        <time>2016-12-18T06:46:36Z</time>
      </trkpt>
      <trkpt lat="51.751619903370738" lon="39.393218485638499">
        <ele>120.3</ele>
        <time>2016-12-18T06:46:53Z</time>
      </trkpt>
      <trkpt lat="51.751927100121975" lon="39.394258763641119">
        <ele>120.78</ele>
        <time>2016-12-18T06:47:10Z</time>
      </trkpt>
      <trkpt lat="51.752317948266864" lon="39.395301304757595">
        <ele>122.70999999999999</ele>
        <time>2016-12-18T06:47:28Z</time>
      </trkpt>
      <trkpt lat="51.752333119511604" lon="39.395361822098494">
        <ele>122.70999999999999</ele>
        <time>2016-12-18T06:47:29Z</time>
      </trkpt>
      <trkpt lat="51.752353738993406" lon="39.39549257978797">
        <ele>122.70999999999999</ele>
        <time>2016-12-18T06:47:31Z</time>
      </trkpt>
      <trkpt lat="51.752357091754675" lon="39.395561395213008">
        <ele>122.70999999999999</ele>
        <time>2016-12-18T06:47:32Z</time>
      </trkpt>
      <trkpt lat="51.752355415374041" lon="39.39562501385808">
        <ele>122.22</ele>
        <time>2016-12-18T06:47:33Z</time>
      </trkpt>
      <trkpt lat="51.752393636852503" lon="39.396218620240688">
        <ele>121.73999999999999</ele>
        <time>2016-12-18T06:47:42Z</time>
      </trkpt>
      <trkpt lat="51.752414843067527" lon="39.396293219178915">
        <ele>121.26000000000001</ele>
        <time>2016-12-18T06:47:43Z</time>
      </trkpt>
      <trkpt lat="51.752439737319946" lon="39.396365638822317">
        <ele>121.26000000000001</ele>
        <time>2016-12-18T06:47:44Z</time>
      </trkpt>
      <trkpt lat="51.752728996798396" lon="39.397072652354836">
        <ele>120.3</ele>
        <time>2016-12-18T06:47:54Z</time>
      </trkpt>
      <trkpt lat="51.752746598795056" lon="39.397140964865685">
        <ele>120.3</ele>
        <time>2016-12-18T06:47:55Z</time>
      </trkpt>
      <trkpt lat="51.752760512754321" lon="39.397209864109755">
        <ele>119.81999999999999</ele>
        <time>2016-12-18T06:47:56Z</time>
      </trkpt>
      <trkpt lat="51.752771409228444" lon="39.397282032296062">
        <ele>119.81999999999999</ele>
        <time>2016-12-18T06:47:57Z</time>
      </trkpt>
      <trkpt lat="51.75277903676033" lon="39.397352440282702">
        <ele>119.81999999999999</ele>
        <time>2016-12-18T06:47:58Z</time>
      </trkpt>
      <trkpt lat="51.752814743667841" lon="39.397633485496044">
        <ele>119.81999999999999</ele>
        <time>2016-12-18T06:48:02Z</time>
      </trkpt>
      <trkpt lat="51.752815078943968" lon="39.397702049463987">
        <ele>120.3</ele>
        <time>2016-12-18T06:48:03Z</time>
      </trkpt>
      <trkpt lat="51.752812564373016" lon="39.397769188508391">
        <ele>120.3</ele>
        <time>2016-12-18T06:48:04Z</time>
      </trkpt>
      <trkpt lat="51.752809965983033" lon="39.397836579009891">
        <ele>120.3</ele>
        <time>2016-12-18T06:48:05Z</time>
      </trkpt>
      <trkpt lat="51.752814073115587" lon="39.397905813530087">
        <ele>120.3</ele>
        <time>2016-12-18T06:48:06Z</time>
      </trkpt>
      <trkpt lat="51.752823628485203" lon="39.397974209859967">
        <ele>120.3</ele>
        <time>2016-12-18T06:48:07Z</time>
      </trkpt>
      <trkpt lat="51.752836955711246" lon="39.398042103275657">
        <ele>120.78</ele>
        <time>2016-12-18T06:48:08Z</time>
      </trkpt>
      <trkpt lat="51.752851791679859" lon="39.398109577596188">
        <ele>120.3</ele>
        <time>2016-12-18T06:48:09Z</time>
      </trkpt>
      <trkpt lat="51.753074163571" lon="39.399044746533036">
        <ele>121.26000000000001</ele>
        <time>2016-12-18T06:48:23Z</time>
      </trkpt>
      <trkpt lat="51.753154881298542" lon="39.399813115596771">
        <ele>119.81999999999999</ele>
        <time>2016-12-18T06:48:34Z</time>
      </trkpt>
      <trkpt lat="51.75343475304544" lon="39.400722468271852">
        <ele>119.81999999999999</ele>
        <time>2016-12-18T06:48:48Z</time>
      </trkpt>
      <trkpt lat="51.753528127446771" lon="39.401082554832101">
        <ele>118.38</ele>
        <time>2016-12-18T06:48:53Z</time>
      </trkpt>
      <trkpt lat="51.753583364188671" lon="39.401371646672487">
        <ele>117.42</ele>
        <time>2016-12-18T06:48:57Z</time>
      </trkpt>
      <trkpt lat="51.753601301461458" lon="39.401440713554621">
        <ele>117.42</ele>
        <time>2016-12-18T06:48:58Z</time>
      </trkpt>
      <trkpt lat="51.753900200128555" lon="39.402421228587627">
        <ele>115.98</ele>
        <time>2016-12-18T06:49:12Z</time>
      </trkpt>
      <trkpt lat="51.753913443535566" lon="39.402488283813">
        <ele>115.98</ele>
        <time>2016-12-18T06:49:13Z</time>
      </trkpt>
      <trkpt lat="51.753920149058104" lon="39.402555758133531">
        <ele>115.5</ele>
        <time>2016-12-18T06:49:14Z</time>
      </trkpt>
      <trkpt lat="51.753921825438738" lon="39.402626669034362">
        <ele>115.5</ele>
        <time>2016-12-18T06:49:15Z</time>
      </trkpt>
      <trkpt lat="51.753922998905182" lon="39.402700597420335">
        <ele>115.5</ele>
        <time>2016-12-18T06:49:16Z</time>
      </trkpt>
      <trkpt lat="51.753930123522878" lon="39.402772095054388">
        <ele>115.01000000000001</ele>
        <time>2016-12-18T06:49:17Z</time>
      </trkpt>
      <trkpt lat="51.753945043310523" lon="39.402835378423333">
        <ele>115.5</ele>
        <time>2016-12-18T06:49:18Z</time>
      </trkpt>
      <trkpt lat="51.75396834500134" lon="39.402892207726836">
        <ele>115.5</ele>
        <time>2016-12-18T06:49:19Z</time>
      </trkpt>
      <trkpt lat="51.753992903977633" lon="39.402937302365899">
        <ele>115.5</ele>
        <time>2016-12-18T06:49:20Z</time>
      </trkpt>
      <trkpt lat="51.754020564258099" lon="39.402983235195279">
        <ele>115.5</ele>
        <time>2016-12-18T06:49:21Z</time>
      </trkpt>
      <trkpt lat="51.754259699955583" lon="39.403629479929805">
        <ele>116.94</ele>
        <time>2016-12-18T06:49:33Z</time>
      </trkpt>
      <trkpt lat="51.754346871748567" lon="39.404087131842971">
        <ele>117.90000000000001</ele>
        <time>2016-12-18T06:49:40Z</time>
      </trkpt>
      <trkpt lat="51.754367155954242" lon="39.404150079935789">
        <ele>117.90000000000001</ele>
        <time>2016-12-18T06:49:41Z</time>
      </trkpt>
      <trkpt lat="51.754627916961908" lon="39.405035208910704">
        <ele>117.42</ele>
        <time>2016-12-18T06:49:54Z</time>
      </trkpt>
      <trkpt lat="51.754920864477754" lon="39.40602745860815">
        <ele>116.94</ele>
        <time>2016-12-18T06:50:09Z</time>
      </trkpt>
      <trkpt lat="51.755202412605286" lon="39.406744195148349">
        <ele>116.94</ele>
        <time>2016-12-18T06:50:20Z</time>
      </trkpt>
      <trkpt lat="51.755216745659709" lon="39.406816111877561">
        <ele>116.94</ele>
        <time>2016-12-18T06:50:21Z</time>
      </trkpt>
      <trkpt lat="51.755226803943515" lon="39.406889202073216">
        <ele>117.42</ele>
        <time>2016-12-18T06:50:22Z</time>
      </trkpt>
      <trkpt lat="51.755231581628323" lon="39.406961370259523">
        <ele>117.42</ele>
        <time>2016-12-18T06:50:23Z</time>
      </trkpt>
      <trkpt lat="51.755234682932496" lon="39.407031945884228">
        <ele>117.42</ele>
        <time>2016-12-18T06:50:24Z</time>
      </trkpt>
      <trkpt lat="51.755239209160209" lon="39.407103192061186">
        <ele>117.90000000000001</ele>
        <time>2016-12-18T06:50:25Z</time>
      </trkpt>
      <trkpt lat="51.755244825035334" lon="39.407173516228795">
        <ele>117.90000000000001</ele>
        <time>2016-12-18T06:50:26Z</time>
      </trkpt>
      <trkpt lat="51.755252787843347" lon="39.40724459476769">
        <ele>117.90000000000001</ele>
        <time>2016-12-18T06:50:27Z</time>
      </trkpt>
      <trkpt lat="51.755263432860374" lon="39.407319277524948">
        <ele>117.90000000000001</ele>
        <time>2016-12-18T06:50:28Z</time>
      </trkpt>
      <trkpt lat="51.755448924377561" lon="39.4081075116992">
        <ele>118.38</ele>
        <time>2016-12-18T06:50:39Z</time>
      </trkpt>
      <trkpt lat="51.75566291436553" lon="39.408692149445415">
        <ele>118.86</ele>
        <time>2016-12-18T06:50:48Z</time>
      </trkpt>
      <trkpt lat="51.75567707978189" lon="39.408762222155929">
        <ele>118.86</ele>
        <time>2016-12-18T06:50:49Z</time>
      </trkpt>
      <trkpt lat="51.755830803886056" lon="39.409291204065084">
        <ele>119.34</ele>
        <time>2016-12-18T06:50:57Z</time>
      </trkpt>
      <trkpt lat="51.756007745862007" lon="39.410212123766541">
        <ele>119.81999999999999</ele>
        <time>2016-12-18T06:51:10Z</time>
      </trkpt>
      <trkpt lat="51.756342854350805" lon="39.411141760647297">
        <ele>119.34</ele>
        <time>2016-12-18T06:51:24Z</time>
      </trkpt>
      <trkpt lat="51.756359366700053" lon="39.41121912561357">
        <ele>119.34</ele>
        <time>2016-12-18T06:51:25Z</time>
      </trkpt>
      <trkpt lat="51.756371017545462" lon="39.411293053999543">
        <ele>119.34</ele>
        <time>2016-12-18T06:51:26Z</time>
      </trkpt>
      <trkpt lat="51.756444191560149" lon="39.411753388121724">
        <ele>119.34</ele>
        <time>2016-12-18T06:51:32Z</time>
      </trkpt>
      <trkpt lat="51.756466906517744" lon="39.411824801936746">
        <ele>119.34</ele>
        <time>2016-12-18T06:51:33Z</time>
      </trkpt>
      <trkpt lat="51.756495153531432" lon="39.411895545199513">
        <ele>119.34</ele>
        <time>2016-12-18T06:51:34Z</time>
      </trkpt>
      <trkpt lat="51.756570087745786" lon="39.412101404741406">
        <ele>118.86</ele>
        <time>2016-12-18T06:51:37Z</time>
      </trkpt>
      <trkpt lat="51.756585091352463" lon="39.412178685888648">
        <ele>118.86</ele>
        <time>2016-12-18T06:51:38Z</time>
      </trkpt>
      <trkpt lat="51.756595317274332" lon="39.412260325625539">
        <ele>118.86</ele>
        <time>2016-12-18T06:51:39Z</time>
      </trkpt>
      <trkpt lat="51.756601184606552" lon="39.412340205162764">
        <ele>118.38</ele>
        <time>2016-12-18T06:51:40Z</time>
      </trkpt>
      <trkpt lat="51.756605375558138" lon="39.412412289530039">
        <ele>118.38</ele>
        <time>2016-12-18T06:51:41Z</time>
      </trkpt>
      <trkpt lat="51.756606716662645" lon="39.412573222070932">
        <ele>118.38</ele>
        <time>2016-12-18T06:51:43Z</time>
      </trkpt>
      <trkpt lat="51.756596658378839" lon="39.413270428776741">
        <ele>118.86</ele>
        <time>2016-12-18T06:51:52Z</time>
      </trkpt>
      <trkpt lat="51.756606800481677" lon="39.413344776257873">
        <ele>119.34</ele>
        <time>2016-12-18T06:51:53Z</time>
      </trkpt>
      <trkpt lat="51.756623731926084" lon="39.413416776806116">
        <ele>119.34</ele>
        <time>2016-12-18T06:51:54Z</time>
      </trkpt>
      <trkpt lat="51.756695732474327" lon="39.413691954687238">
        <ele>119.34</ele>
        <time>2016-12-18T06:51:58Z</time>
      </trkpt>
      <trkpt lat="51.756724314764142" lon="39.413913236930966">
        <ele>119.34</ele>
        <time>2016-12-18T06:52:01Z</time>
      </trkpt>
      <trkpt lat="51.756743425503373" lon="39.413978615775704">
        <ele>119.34</ele>
        <time>2016-12-18T06:52:02Z</time>
      </trkpt>
      <trkpt lat="51.756767397746444" lon="39.414036367088556">
        <ele>119.81999999999999</ele>
        <time>2016-12-18T06:52:03Z</time>
      </trkpt>
      <trkpt lat="51.756835794076324" lon="39.414209285750985">
        <ele>119.81999999999999</ele>
        <time>2016-12-18T06:52:06Z</time>
      </trkpt>
      <trkpt lat="51.756852893158793" lon="39.414270222187042">
        <ele>119.81999999999999</ele>
        <time>2016-12-18T06:52:07Z</time>
      </trkpt>
      <trkpt lat="51.756865298375487" lon="39.414330739527941">
        <ele>120.3</ele>
        <time>2016-12-18T06:52:08Z</time>
      </trkpt>
      <trkpt lat="51.756874518468976" lon="39.414392430335283">
        <ele>120.3</ele>
        <time>2016-12-18T06:52:09Z</time>
      </trkpt>
      <trkpt lat="51.756881140172482" lon="39.414455713704228">
        <ele>120.3</ele>
        <time>2016-12-18T06:52:10Z</time>
      </trkpt>
      <trkpt lat="51.75688449293375" lon="39.414521679282188">
        <ele>120.3</ele>
        <time>2016-12-18T06:52:11Z</time>
      </trkpt>
      <trkpt lat="51.756885331124067" lon="39.414588147774339">
        <ele>119.81999999999999</ele>
        <time>2016-12-18T06:52:12Z</time>
      </trkpt>
      <trkpt lat="51.756942328065634" lon="39.415459865704179">
        <ele>120.3</ele>
        <time>2016-12-18T06:52:25Z</time>
      </trkpt>
      <trkpt lat="51.756949620321393" lon="39.415711238980293">
        <ele>120.3</ele>
        <time>2016-12-18T06:52:29Z</time>
      </trkpt>
      <trkpt lat="51.7569440882653" lon="39.41577946767211">
        <ele>120.3</ele>
        <time>2016-12-18T06:52:30Z</time>
      </trkpt>
      <trkpt lat="51.756932437419891" lon="39.415846606716514">
        <ele>120.3</ele>
        <time>2016-12-18T06:52:31Z</time>
      </trkpt>
      <trkpt lat="51.756915338337421" lon="39.415908381342888">
        <ele>119.81999999999999</ele>
        <time>2016-12-18T06:52:32Z</time>
      </trkpt>
      <trkpt lat="51.75689329393208" lon="39.415964120998979">
        <ele>119.81999999999999</ele>
        <time>2016-12-18T06:52:33Z</time>
      </trkpt>
      <trkpt lat="51.756869237869978" lon="39.416018603369594">
        <ele>119.81999999999999</ele>
        <time>2016-12-18T06:52:34Z</time>
      </trkpt>
      <trkpt lat="51.75678675994277" lon="39.416245501488447">
        <ele>119.81999999999999</ele>
        <time>2016-12-18T06:52:38Z</time>
      </trkpt>
      <trkpt lat="51.75675448961556" lon="39.416426634415984">
        <ele>120.3</ele>
        <time>2016-12-18T06:52:41Z</time>
      </trkpt>
      <trkpt lat="51.756751472130418" lon="39.416496623307467">
        <ele>120.3</ele>
        <time>2016-12-18T06:52:42Z</time>
      </trkpt>
      <trkpt lat="51.756749963387847" lon="39.416567115113139">
        <ele>120.3</ele>
        <time>2016-12-18T06:52:43Z</time>
      </trkpt>
      <trkpt lat="51.756845684722066" lon="39.41765433177352">
        <ele>119.34</ele>
        <time>2016-12-18T06:53:00Z</time>
      </trkpt>
      <trkpt lat="51.757003851234913" lon="39.418772561475635">
        <ele>119.34</ele>
        <time>2016-12-18T06:53:18Z</time>
      </trkpt>
      <trkpt lat="51.757122790440917" lon="39.419709071516991">
        <ele>117.90000000000001</ele>
        <time>2016-12-18T06:53:32Z</time>
      </trkpt>
      <trkpt lat="51.757145840674639" lon="39.420061782002449">
        <ele>117.90000000000001</ele>
        <time>2016-12-18T06:53:37Z</time>
      </trkpt>
      <trkpt lat="51.757221445441246" lon="39.421065850183368">
        <ele>117.42</ele>
        <time>2016-12-18T06:53:52Z</time>
      </trkpt>
      <trkpt lat="51.757150366902351" lon="39.421905213966966">
        <ele>118.38</ele>
        <time>2016-12-18T06:54:06Z</time>
      </trkpt>
      <trkpt lat="51.757140895351768" lon="39.422859577462077">
        <ele>118.86</ele>
        <time>2016-12-18T06:54:21Z</time>
      </trkpt>
      <trkpt lat="51.757174842059612" lon="39.423384284600616">
        <ele>118.86</ele>
        <time>2016-12-18T06:54:29Z</time>
      </trkpt>
      <trkpt lat="51.757140811532736" lon="39.424302186816931">
        <ele>118.86</ele>
        <time>2016-12-18T06:54:43Z</time>
      </trkpt>
      <trkpt lat="51.757181463763118" lon="39.425170468166471">
        <ele>118.38</ele>
        <time>2016-12-18T06:54:57Z</time>
      </trkpt>
      <trkpt lat="51.757496539503336" lon="39.425623174756765">
        <ele>117.90000000000001</ele>
        <time>2016-12-18T06:55:09Z</time>
      </trkpt>
      <trkpt lat="51.75778211094439" lon="39.426251566037536">
        <ele>119.34</ele>
        <time>2016-12-18T06:55:22Z</time>
      </trkpt>
      <trkpt lat="51.757841370999813" lon="39.426587512716651">
        <ele>119.81999999999999</ele>
        <time>2016-12-18T06:55:28Z</time>
      </trkpt>
      <trkpt lat="51.757751181721687" lon="39.427731391042471">
        <ele>119.34</ele>
        <time>2016-12-18T06:55:44Z</time>
      </trkpt>
      <trkpt lat="51.757638026028872" lon="39.429218675941229">
        <ele>120.3</ele>
        <time>2016-12-18T06:56:03Z</time>
      </trkpt>
      <trkpt lat="51.757632493972778" lon="39.429286401718855">
        <ele>120.3</ele>
        <time>2016-12-18T06:56:04Z</time>
      </trkpt>
      <trkpt lat="51.757521014660597" lon="39.430337995290756">
        <ele>119.81999999999999</ele>
        <time>2016-12-18T06:56:20Z</time>
      </trkpt>
      <trkpt lat="51.757459994405508" lon="39.430393734946847">
        <ele>119.34</ele>
        <time>2016-12-18T06:56:22Z</time>
      </trkpt>
      <trkpt lat="51.7574258800596" lon="39.430392729118466">
        <ele>119.34</ele>
        <time>2016-12-18T06:56:23Z</time>
      </trkpt>
      <trkpt lat="51.757387155666947" lon="39.430380072444677">
        <ele>119.34</ele>
        <time>2016-12-18T06:56:24Z</time>
      </trkpt>
      <trkpt lat="51.756850713863969" lon="39.430190641433001">
        <ele>118.86</ele>
        <time>2016-12-18T06:56:38Z</time>
      </trkpt>
      <trkpt lat="51.756701683625579" lon="39.430647790431976">
        <ele>117.90000000000001</ele>
        <time>2016-12-18T06:56:47Z</time>
      </trkpt>
      <trkpt lat="51.756540415808558" lon="39.431639201939106">
        <ele>115.98</ele>
        <time>2016-12-18T06:57:04Z</time>
      </trkpt>
      <trkpt lat="51.756599340587854" lon="39.432194167748094">
        <ele>119.34</ele>
        <time>2016-12-18T06:57:16Z</time>
      </trkpt>
      <trkpt lat="51.756614008918405" lon="39.432302210479975">
        <ele>119.81999999999999</ele>
        <time>2016-12-18T07:07:19Z</time>
      </trkpt>
      <trkpt lat="51.756600681692362" lon="39.432309418916702">
        <ele>119.81999999999999</ele>
        <time>2016-12-18T07:07:20Z</time>
      </trkpt>
      <trkpt lat="51.756586097180843" lon="39.432326853275299">
        <ele>119.81999999999999</ele>
        <time>2016-12-18T07:07:21Z</time>
      </trkpt>
      <trkpt lat="51.75657226704061" lon="39.432355519384146">
        <ele>120.3</ele>
        <time>2016-12-18T07:07:22Z</time>
      </trkpt>
      <trkpt lat="51.756566232070327" lon="39.432386448606849">
        <ele>119.81999999999999</ele>
        <time>2016-12-18T07:07:23Z</time>
      </trkpt>
      <trkpt lat="51.756563717499375" lon="39.432421065866947">
        <ele>119.81999999999999</ele>
        <time>2016-12-18T07:07:24Z</time>
      </trkpt>
      <trkpt lat="51.756561957299709" lon="39.432460712268949">
        <ele>119.81999999999999</ele>
        <time>2016-12-18T07:07:25Z</time>
      </trkpt>
      <trkpt lat="51.756390212103724" lon="39.43306177854538">
        <ele>121.26000000000001</ele>
        <time>2016-12-18T07:07:38Z</time>
      </trkpt>
      <trkpt lat="51.756111262366176" lon="39.433985715731978">
        <ele>122.22</ele>
        <time>2016-12-18T07:07:55Z</time>
      </trkpt>
      <trkpt lat="51.755893919616938" lon="39.435281474143267">
        <ele>126.06999999999999</ele>
        <time>2016-12-18T07:08:15Z</time>
      </trkpt>
      <trkpt lat="51.755769280716777" lon="39.435933418571949">
        <ele>128.94999999999999</ele>
        <time>2016-12-18T07:08:28Z</time>
      </trkpt>
      <trkpt lat="51.755762239918113" lon="39.435980189591646">
        <ele>129.43000000000001</ele>
        <time>2016-12-18T07:08:31Z</time>
      </trkpt>
      <trkpt lat="51.755757629871368" lon="39.436001228168607">
        <ele>129.91999999999999</ele>
        <time>2016-12-18T07:08:32Z</time>
      </trkpt>
      <trkpt lat="51.755617652088404" lon="39.43648804910481">
        <ele>130.40000000000001</ele>
        <time>2016-12-18T07:08:43Z</time>
      </trkpt>
      <trkpt lat="51.755421180278063" lon="39.437473341822624">
        <ele>130.40000000000001</ele>
        <time>2016-12-18T07:09:01Z</time>
      </trkpt>
      <trkpt lat="51.755268042907119" lon="39.438508506864309">
        <ele>128.47</ele>
        <time>2016-12-18T07:09:19Z</time>
      </trkpt>
      <trkpt lat="51.755115576088428" lon="39.439652133733034">
        <ele>127.03</ele>
        <time>2016-12-18T07:09:39Z</time>
      </trkpt>
      <trkpt lat="51.754987752065063" lon="39.44067950360477">
        <ele>126.55</ele>
        <time>2016-12-18T07:09:57Z</time>
      </trkpt>
      <trkpt lat="51.754907285794616" lon="39.441771078854799">
        <ele>127.03</ele>
        <time>2016-12-18T07:10:16Z</time>
      </trkpt>
      <trkpt lat="51.754857245832682" lon="39.442264102399349">
        <ele>127.03</ele>
        <time>2016-12-18T07:10:27Z</time>
      </trkpt>
      <trkpt lat="51.754812486469746" lon="39.442753437906504">
        <ele>127.03</ele>
        <time>2016-12-18T07:10:40Z</time>
      </trkpt>
      <trkpt lat="51.754764709621668" lon="39.443371938541532">
        <ele>126.55</ele>
        <time>2016-12-18T07:10:53Z</time>
      </trkpt>
      <trkpt lat="51.754724392667413" lon="39.444093620404601">
        <ele>127.98999999999999</ele>
        <time>2016-12-18T07:11:08Z</time>
      </trkpt>
      <trkpt lat="51.754676280543208" lon="39.444759227335453">
        <ele>129.91999999999999</ele>
        <time>2016-12-18T07:11:22Z</time>
      </trkpt>
      <trkpt lat="51.754644764587283" lon="39.445498259738088">
        <ele>131.36000000000001</ele>
        <time>2016-12-18T07:11:37Z</time>
      </trkpt>
      <trkpt lat="51.754643172025681" lon="39.446431417018175">
        <ele>130.88</ele>
        <time>2016-12-18T07:11:54Z</time>
      </trkpt>
      <trkpt lat="51.754661025479436" lon="39.447175059467554">
        <ele>131.36000000000001</ele>
        <time>2016-12-18T07:12:08Z</time>
      </trkpt>
      <trkpt lat="51.754715759307146" lon="39.448126824572682">
        <ele>132.31999999999999</ele>
        <time>2016-12-18T07:12:27Z</time>
      </trkpt>
      <trkpt lat="51.754708383232355" lon="39.448906676843762">
        <ele>132.31999999999999</ele>
        <time>2016-12-18T07:12:42Z</time>
      </trkpt>
      <trkpt lat="51.75475699827075" lon="39.449892891570926">
        <ele>133.75999999999999</ele>
        <time>2016-12-18T07:13:00Z</time>
      </trkpt>
      <trkpt lat="51.75481122918427" lon="39.450641646981239">
        <ele>135.68000000000001</ele>
        <time>2016-12-18T07:13:15Z</time>
      </trkpt>
      <trkpt lat="51.754825059324503" lon="39.450703924521804">
        <ele>137.61000000000001</ele>
        <time>2016-12-18T07:13:26Z</time>
      </trkpt>
      <trkpt lat="51.754826735705137" lon="39.450756311416626">
        <ele>135.19999999999999</ele>
        <time>2016-12-18T07:18:54Z</time>
      </trkpt>
      <trkpt lat="51.754818856716156" lon="39.450783971697092">
        <ele>135.19999999999999</ele>
        <time>2016-12-18T07:18:56Z</time>
      </trkpt>
      <trkpt lat="51.754815923050046" lon="39.450858905911446">
        <ele>135.19999999999999</ele>
        <time>2016-12-18T07:18:59Z</time>
      </trkpt>
      <trkpt lat="51.754815420135856" lon="39.450895953923464">
        <ele>134.72</ele>
        <time>2016-12-18T07:19:00Z</time>
      </trkpt>
      <trkpt lat="51.754816761240363" lon="39.450934762135148">
        <ele>134.72</ele>
        <time>2016-12-18T07:19:01Z</time>
      </trkpt>
      <trkpt lat="51.754848612472415" lon="39.451557118445635">
        <ele>135.68000000000001</ele>
        <time>2016-12-18T07:19:12Z</time>
      </trkpt>
      <trkpt lat="51.754881553351879" lon="39.452429506927729">
        <ele>137.61000000000001</ele>
        <time>2016-12-18T07:19:27Z</time>
      </trkpt>
      <trkpt lat="51.754916254431009" lon="39.453114559873939">
        <ele>138.56999999999999</ele>
        <time>2016-12-18T07:19:41Z</time>
      </trkpt>
      <trkpt lat="51.754925642162561" lon="39.453944116830826">
        <ele>138.09</ele>
        <time>2016-12-18T07:19:57Z</time>
      </trkpt>
      <trkpt lat="51.754976771771908" lon="39.454868054017425">
        <ele>138.09</ele>
        <time>2016-12-18T07:20:13Z</time>
      </trkpt>
      <trkpt lat="51.754999905824661" lon="39.455696688964963">
        <ele>138.56999999999999</ele>
        <time>2016-12-18T07:20:26Z</time>
      </trkpt>
      <trkpt lat="51.755030164495111" lon="39.456643927842379">
        <ele>140.49000000000001</ele>
        <time>2016-12-18T07:20:42Z</time>
      </trkpt>
      <trkpt lat="51.755029074847698" lon="39.457510616630316">
        <ele>140.49000000000001</ele>
        <time>2016-12-18T07:20:57Z</time>
      </trkpt>
      <trkpt lat="51.75504382699728" lon="39.458368001505733">
        <ele>138.56999999999999</ele>
        <time>2016-12-18T07:21:10Z</time>
      </trkpt>
      <trkpt lat="51.755066458135843" lon="39.458875190466642">
        <ele>138.09</ele>
        <time>2016-12-18T07:21:20Z</time>
      </trkpt>
      <trkpt lat="51.755110714584589" lon="39.459475083276629">
        <ele>137.13</ele>
        <time>2016-12-18T07:21:33Z</time>
      </trkpt>
      <trkpt lat="51.755125885829329" lon="39.460119232535362">
        <ele>138.09</ele>
        <time>2016-12-18T07:21:48Z</time>
      </trkpt>
      <trkpt lat="51.755153043195605" lon="39.460862539708614">
        <ele>138.09</ele>
        <time>2016-12-18T07:22:02Z</time>
      </trkpt>
      <trkpt lat="51.755201322957873" lon="39.46146922186017">
        <ele>137.61000000000001</ele>
        <time>2016-12-18T07:22:14Z</time>
      </trkpt>
      <trkpt lat="51.75519042648375" lon="39.462063750252128">
        <ele>137.61000000000001</ele>
        <time>2016-12-18T07:22:26Z</time>
      </trkpt>
      <trkpt lat="51.755229150876403" lon="39.462716532871127">
        <ele>136.16</ele>
        <time>2016-12-18T07:22:41Z</time>
      </trkpt>
      <trkpt lat="51.755249686539173" lon="39.463909529149532">
        <ele>135.19999999999999</ele>
        <time>2016-12-18T07:23:01Z</time>
      </trkpt>
      <trkpt lat="51.755292350426316" lon="39.464475139975548">
        <ele>134.24000000000001</ele>
        <time>2016-12-18T07:23:14Z</time>
      </trkpt>
      <trkpt lat="51.755336606875062" lon="39.465103782713413">
        <ele>135.19999999999999</ele>
        <time>2016-12-18T07:23:28Z</time>
      </trkpt>
      <trkpt lat="51.755602732300758" lon="39.465550873428583">
        <ele>139.05000000000001</ele>
        <time>2016-12-18T07:23:41Z</time>
      </trkpt>
      <trkpt lat="51.755928788334131" lon="39.465822111815214">
        <ele>141.93000000000001</ele>
        <time>2016-12-18T07:23:54Z</time>
      </trkpt>
      <trkpt lat="51.756056444719434" lon="39.466609507799149">
        <ele>139.53</ele>
        <time>2016-12-18T07:24:10Z</time>
      </trkpt>
      <trkpt lat="51.75604990683496" lon="39.467119378969073">
        <ele>138.09</ele>
        <time>2016-12-18T07:24:21Z</time>
      </trkpt>
      <trkpt lat="51.756019815802574" lon="39.467689180746675">
        <ele>135.68000000000001</ele>
        <time>2016-12-18T07:24:34Z</time>
      </trkpt>
      <trkpt lat="51.756030125543475" lon="39.467921275645494">
        <ele>135.68000000000001</ele>
        <time>2016-12-18T07:24:44Z</time>
      </trkpt>
      <trkpt lat="51.75606700591743" lon="39.468585709109902">
        <ele>137.61000000000001</ele>
        <time>2016-12-18T07:24:57Z</time>
      </trkpt>
      <trkpt lat="51.756157111376524" lon="39.469352401793003">
        <ele>137.61000000000001</ele>
        <time>2016-12-18T07:25:11Z</time>
      </trkpt>
      <trkpt lat="51.756168259307742" lon="39.469895716756582">
        <ele>139.53</ele>
        <time>2016-12-18T07:25:21Z</time>
      </trkpt>
      <trkpt lat="51.756042195484042" lon="39.4707599747926">
        <ele>137.61000000000001</ele>
        <time>2016-12-18T07:25:35Z</time>
      </trkpt>
      <trkpt lat="51.755985533818603" lon="39.471432287245989">
        <ele>136.63999999999999</ele>
        <time>2016-12-18T07:25:46Z</time>
      </trkpt>
      <trkpt lat="51.756134480237961" lon="39.472272153943777">
        <ele>136.16</ele>
        <time>2016-12-18T07:26:00Z</time>
      </trkpt>
      <trkpt lat="51.756220981478691" lon="39.472897863015532">
        <ele>138.09</ele>
        <time>2016-12-18T07:26:12Z</time>
      </trkpt>
      <trkpt lat="51.756145795807242" lon="39.47369129396975">
        <ele>139.05000000000001</ele>
        <time>2016-12-18T07:26:25Z</time>
      </trkpt>
      <trkpt lat="51.756120901554823" lon="39.474317841231823">
        <ele>140.00999999999999</ele>
        <time>2016-12-18T07:26:35Z</time>
      </trkpt>
      <trkpt lat="51.755982600152493" lon="39.475209256634116">
        <ele>137.61000000000001</ele>
        <time>2016-12-18T07:26:49Z</time>
      </trkpt>
      <trkpt lat="51.756060887128115" lon="39.476068653166294">
        <ele>135.68000000000001</ele>
        <time>2016-12-18T07:27:02Z</time>
      </trkpt>
      <trkpt lat="51.75616130232811" lon="39.47644810192287">
        <ele>134.72</ele>
        <time>2016-12-18T07:27:08Z</time>
      </trkpt>
      <trkpt lat="51.756250150501728" lon="39.477363238111138">
        <ele>133.75999999999999</ele>
        <time>2016-12-18T07:27:24Z</time>
      </trkpt>
      <trkpt lat="51.756180748343468" lon="39.477876713499427">
        <ele>133.75999999999999</ele>
        <time>2016-12-18T07:27:34Z</time>
      </trkpt>
      <trkpt lat="51.756153255701065" lon="39.47864449582994">
        <ele>135.19999999999999</ele>
        <time>2016-12-18T07:27:47Z</time>
      </trkpt>
      <trkpt lat="51.756090307608247" lon="39.478999972343445">
        <ele>136.16</ele>
        <time>2016-12-18T07:27:53Z</time>
      </trkpt>
      <trkpt lat="51.756097180768847" lon="39.479053700342774">
        <ele>136.63999999999999</ele>
        <time>2016-12-18T07:27:54Z</time>
      </trkpt>
      <trkpt lat="51.75610757432878" lon="39.479092843830585">
        <ele>136.63999999999999</ele>
        <time>2016-12-18T07:27:55Z</time>
      </trkpt>
      <trkpt lat="51.756146717816591" lon="39.479169538244605">
        <ele>137.13</ele>
        <time>2016-12-18T07:27:57Z</time>
      </trkpt>
      <trkpt lat="51.756309578195214" lon="39.479728192090988">
        <ele>140.00999999999999</ele>
        <time>2016-12-18T07:28:08Z</time>
      </trkpt>
      <trkpt lat="51.756389122456312" lon="39.480285504832864">
        <ele>141.44999999999999</ele>
        <time>2016-12-18T07:28:20Z</time>
      </trkpt>
      <trkpt lat="51.756438659504056" lon="39.480895875021815">
        <ele>139.53</ele>
        <time>2016-12-18T07:28:32Z</time>
      </trkpt>
      <trkpt lat="51.756469085812569" lon="39.481590818613768">
        <ele>139.53</ele>
        <time>2016-12-18T07:28:44Z</time>
      </trkpt>
      <trkpt lat="51.756406389176846" lon="39.482327336445451">
        <ele>139.05000000000001</ele>
        <time>2016-12-18T07:28:57Z</time>
      </trkpt>
      <trkpt lat="51.756399432197213" lon="39.483135771006346">
        <ele>139.05000000000001</ele>
        <time>2016-12-18T07:29:11Z</time>
      </trkpt>
      <trkpt lat="51.756262639537454" lon="39.483663076534867">
        <ele>137.13</ele>
        <time>2016-12-18T07:29:22Z</time>
      </trkpt>
      <trkpt lat="51.756138000637293" lon="39.484237404540181">
        <ele>136.16</ele>
        <time>2016-12-18T07:29:34Z</time>
      </trkpt>
      <trkpt lat="51.756131881847978" lon="39.484826400876045">
        <ele>137.13</ele>
        <time>2016-12-18T07:29:46Z</time>
      </trkpt>
      <trkpt lat="51.756127271801233" lon="39.484968641772866">
        <ele>137.13</ele>
        <time>2016-12-18T07:29:48Z</time>
      </trkpt>
      <trkpt lat="51.75621603615582" lon="39.48621042072773">
        <ele>136.63999999999999</ele>
        <time>2016-12-18T07:30:02Z</time>
      </trkpt>
      <trkpt lat="51.75621653907001" lon="39.486278649419546">
        <ele>137.13</ele>
        <time>2016-12-18T07:30:03Z</time>
      </trkpt>
      <trkpt lat="51.75621603615582" lon="39.486332209780812">
        <ele>137.13</ele>
        <time>2016-12-18T07:30:04Z</time>
      </trkpt>
      <trkpt lat="51.756226513534784" lon="39.486918356269598">
        <ele>138.56999999999999</ele>
        <time>2016-12-18T07:30:17Z</time>
      </trkpt>
      <trkpt lat="51.756225088611245" lon="39.487855788320303">
        <ele>137.13</ele>
        <time>2016-12-18T07:30:34Z</time>
      </trkpt>
      <trkpt lat="51.756224418058991" lon="39.488462973386049">
        <ele>135.68000000000001</ele>
        <time>2016-12-18T07:30:46Z</time>
      </trkpt>
      <trkpt lat="51.756261717528105" lon="39.489359082654119">
        <ele>135.68000000000001</ele>
        <time>2016-12-18T07:31:01Z</time>
      </trkpt>
      <trkpt lat="51.756289796903729" lon="39.49018981307745">
        <ele>135.68000000000001</ele>
        <time>2016-12-18T07:31:15Z</time>
      </trkpt>
      <trkpt lat="51.756335394456983" lon="39.491233192384243">
        <ele>135.68000000000001</ele>
        <time>2016-12-18T07:31:32Z</time>
      </trkpt>
      <trkpt lat="51.75636850297451" lon="39.492068449035287">
        <ele>136.16</ele>
        <time>2016-12-18T07:31:46Z</time>
      </trkpt>
      <trkpt lat="51.756424745544791" lon="39.493343671783805">
        <ele>136.16</ele>
        <time>2016-12-18T07:32:06Z</time>
      </trkpt>
      <trkpt lat="51.756464056670666" lon="39.494381686672568">
        <ele>136.63999999999999</ele>
        <time>2016-12-18T07:32:22Z</time>
      </trkpt>
      <trkpt lat="51.756515773013234" lon="39.495455408468843">
        <ele>136.16</ele>
        <time>2016-12-18T07:32:40Z</time>
      </trkpt>
      <trkpt lat="51.756547624245286" lon="39.496381524950266">
        <ele>135.68000000000001</ele>
        <time>2016-12-18T07:32:54Z</time>
      </trkpt>
      <trkpt lat="51.756581822410226" lon="39.49725441634655">
        <ele>135.68000000000001</ele>
        <time>2016-12-18T07:33:09Z</time>
      </trkpt>
      <trkpt lat="51.756595904007554" lon="39.49791750870645">
        <ele>136.16</ele>
        <time>2016-12-18T07:33:24Z</time>
      </trkpt>
      <trkpt lat="51.75662406720221" lon="39.498535841703415">
        <ele>137.13</ele>
        <time>2016-12-18T07:33:38Z</time>
      </trkpt>
      <trkpt lat="51.756665976718068" lon="39.49967703782022">
        <ele>138.56999999999999</ele>
        <time>2016-12-18T07:33:57Z</time>
      </trkpt>
      <trkpt lat="51.756704365834594" lon="39.500596532598138">
        <ele>139.05000000000001</ele>
        <time>2016-12-18T07:34:13Z</time>
      </trkpt>
      <trkpt lat="51.756759099662304" lon="39.501583082601428">
        <ele>139.05000000000001</ele>
        <time>2016-12-18T07:34:30Z</time>
      </trkpt>
      <trkpt lat="51.756806038320065" lon="39.502379447221756">
        <ele>139.05000000000001</ele>
        <time>2016-12-18T07:34:44Z</time>
      </trkpt>
      <trkpt lat="51.756856581196189" lon="39.50343070551753">
        <ele>139.05000000000001</ele>
        <time>2016-12-18T07:35:01Z</time>
      </trkpt>
      <trkpt lat="51.756967306137085" lon="39.504507360979915">
        <ele>140.00999999999999</ele>
        <time>2016-12-18T07:35:19Z</time>
      </trkpt>
      <trkpt lat="51.757091023027897" lon="39.505446217954159">
        <ele>140.00999999999999</ele>
        <time>2016-12-18T07:35:35Z</time>
      </trkpt>
      <trkpt lat="51.757273161783814" lon="39.50665513984859">
        <ele>140.49000000000001</ele>
        <time>2016-12-18T07:35:55Z</time>
      </trkpt>
      <trkpt lat="51.757388329133391" lon="39.507183954119682">
        <ele>141.44999999999999</ele>
        <time>2016-12-18T07:36:07Z</time>
      </trkpt>
      <trkpt lat="51.757581867277622" lon="39.507944528013468">
        <ele>140.97</ele>
        <time>2016-12-18T07:36:22Z</time>
      </trkpt>
      <trkpt lat="51.75781924277544" lon="39.508848432451487">
        <ele>140.49000000000001</ele>
        <time>2016-12-18T07:36:38Z</time>
      </trkpt>
      <trkpt lat="51.758200451731682" lon="39.509973116219044">
        <ele>139.53</ele>
        <time>2016-12-18T07:36:58Z</time>
      </trkpt>
      <trkpt lat="51.758575709536672" lon="39.511014986783266">
        <ele>141.93000000000001</ele>
        <time>2016-12-18T07:37:18Z</time>
      </trkpt>
      <trkpt lat="51.758911991491914" lon="39.511913023889065">
        <ele>143.84999999999999</ele>
        <time>2016-12-18T07:37:36Z</time>
      </trkpt>
      <trkpt lat="51.759310802444816" lon="39.512823214754462">
        <ele>143.84999999999999</ele>
        <time>2016-12-18T07:37:55Z</time>
      </trkpt>
      <trkpt lat="51.759710116311908" lon="39.513621758669615">
        <ele>144.81999999999999</ele>
        <time>2016-12-18T07:38:12Z</time>
      </trkpt>
      <trkpt lat="51.759986886754632" lon="39.514161553233862">
        <ele>144.34</ele>
        <time>2016-12-18T07:38:24Z</time>
      </trkpt>
      <trkpt lat="51.760312020778656" lon="39.514866890385747">
        <ele>144.34</ele>
        <time>2016-12-18T07:38:38Z</time>
      </trkpt>
      <trkpt lat="51.760729858651757" lon="39.515695441514254">
        <ele>144.81999999999999</ele>
        <time>2016-12-18T07:38:55Z</time>
      </trkpt>
      <trkpt lat="51.761069661006331" lon="39.51646925881505">
        <ele>144.81999999999999</ele>
        <time>2016-12-18T07:39:10Z</time>
      </trkpt>
      <trkpt lat="51.761289266869426" lon="39.517016848549247">
        <ele>144.34</ele>
        <time>2016-12-18T07:39:19Z</time>
      </trkpt>
      <trkpt lat="51.761313490569592" lon="39.517077365890145">
        <ele>144.81999999999999</ele>
        <time>2016-12-18T07:39:20Z</time>
      </trkpt>
      <trkpt lat="51.761655388399959" lon="39.517694357782602">
        <ele>143.84999999999999</ele>
        <time>2016-12-18T07:39:31Z</time>
      </trkpt>
      <trkpt lat="51.761680450290442" lon="39.517758563160896">
        <ele>143.37</ele>
        <time>2016-12-18T07:39:32Z</time>
      </trkpt>
      <trkpt lat="51.761704422533512" lon="39.51783006079495">
        <ele>143.37</ele>
        <time>2016-12-18T07:39:33Z</time>
      </trkpt>
      <trkpt lat="51.761767454445362" lon="39.518025275319815">
        <ele>143.37</ele>
        <time>2016-12-18T07:39:36Z</time>
      </trkpt>
      <trkpt lat="51.761792097240686" lon="39.518080679699779">
        <ele>143.37</ele>
        <time>2016-12-18T07:39:37Z</time>
      </trkpt>
      <trkpt lat="51.761818835511804" lon="39.518134323880076">
        <ele>143.37</ele>
        <time>2016-12-18T07:39:38Z</time>
      </trkpt>
      <trkpt lat="51.762097701430321" lon="39.518648721277714">
        <ele>144.34</ele>
        <time>2016-12-18T07:39:47Z</time>
      </trkpt>
      <trkpt lat="51.762572955340147" lon="39.519634013995528">
        <ele>143.84999999999999</ele>
        <time>2016-12-18T07:40:03Z</time>
      </trkpt>
      <trkpt lat="51.762964557856321" lon="39.520563734695315">
        <ele>142.88999999999999</ele>
        <time>2016-12-18T07:40:16Z</time>
      </trkpt>
      <trkpt lat="51.763484654948115" lon="39.521776428446174">
        <ele>142.41</ele>
        <time>2016-12-18T07:40:33Z</time>
      </trkpt>
      <trkpt lat="51.763723203912377" lon="39.522334914654493">
        <ele>141.93000000000001</ele>
        <time>2016-12-18T07:40:41Z</time>
      </trkpt>
      <trkpt lat="51.763787493109703" lon="39.522470030933619">
        <ele>141.44999999999999</ele>
        <time>2016-12-18T07:40:43Z</time>
      </trkpt>
      <trkpt lat="51.764030819758773" lon="39.523117365315557">
        <ele>141.93000000000001</ele>
        <time>2016-12-18T07:40:52Z</time>
      </trkpt>
      <trkpt lat="51.764058815315366" lon="39.523189282044768">
        <ele>141.44999999999999</ele>
        <time>2016-12-18T07:40:53Z</time>
      </trkpt>
      <trkpt lat="51.76453985273838" lon="39.52425068244338">
        <ele>141.93000000000001</ele>
        <time>2016-12-18T07:41:10Z</time>
      </trkpt>
      <trkpt lat="51.764734899625182" lon="39.524739431217313">
        <ele>142.88999999999999</ele>
        <time>2016-12-18T07:41:18Z</time>
      </trkpt>
      <trkpt lat="51.765199843794107" lon="39.5256950519979">
        <ele>142.88999999999999</ele>
        <time>2016-12-18T07:41:33Z</time>
      </trkpt>
      <trkpt lat="51.765634026378393" lon="39.526703478768468">
        <ele>142.41</ele>
        <time>2016-12-18T07:41:48Z</time>
      </trkpt>
      <trkpt lat="51.766173904761672" lon="39.527945760637522">
        <ele>142.41</ele>
        <time>2016-12-18T07:42:05Z</time>
      </trkpt>
      <trkpt lat="51.766834650188684" lon="39.529414689168334">
        <ele>142.88999999999999</ele>
        <time>2016-12-18T07:42:23Z</time>
      </trkpt>
      <trkpt lat="51.767558427527547" lon="39.5309395249933">
        <ele>144.81999999999999</ele>
        <time>2016-12-18T07:42:44Z</time>
      </trkpt>
      <trkpt lat="51.767716845497489" lon="39.531253175809979">
        <ele>144.81999999999999</ele>
        <time>2016-12-18T07:42:49Z</time>
      </trkpt>
      <trkpt lat="51.767738470807672" lon="39.531314112246037">
        <ele>145.30000000000001</ele>
        <time>2016-12-18T07:42:50Z</time>
      </trkpt>
      <trkpt lat="51.767750792205334" lon="39.531376138329506">
        <ele>145.30000000000001</ele>
        <time>2016-12-18T07:42:51Z</time>
      </trkpt>
      <trkpt lat="51.767751965671778" lon="39.531434560194612">
        <ele>145.78</ele>
        <time>2016-12-18T07:42:52Z</time>
      </trkpt>
      <trkpt lat="51.767743080854416" lon="39.531489126384258">
        <ele>145.78</ele>
        <time>2016-12-18T07:42:53Z</time>
      </trkpt>
      <trkpt lat="51.767728161066771" lon="39.531534221023321">
        <ele>146.25999999999999</ele>
        <time>2016-12-18T07:42:54Z</time>
      </trkpt>
      <trkpt lat="51.767716174945235" lon="39.531560288742185">
        <ele>146.74000000000001</ele>
        <time>2016-12-18T07:42:55Z</time>
      </trkpt>
      <trkpt lat="51.767699830234051" lon="39.531585350632668">
        <ele>146.74000000000001</ele>
        <time>2016-12-18T07:42:56Z</time>
      </trkpt>
      <trkpt lat="51.767682060599327" lon="39.531608819961548">
        <ele>146.74000000000001</ele>
        <time>2016-12-18T07:42:57Z</time>
      </trkpt>
      <trkpt lat="51.767372014001012" lon="39.531991621479392">
        <ele>147.22</ele>
        <time>2016-12-18T07:43:13Z</time>
      </trkpt>
      <trkpt lat="51.767351478338242" lon="39.532040655612946">
        <ele>147.22</ele>
        <time>2016-12-18T07:43:15Z</time>
      </trkpt>
      <trkpt lat="51.767352735623717" lon="39.532060772180557">
        <ele>147.22</ele>
        <time>2016-12-18T07:43:16Z</time>
      </trkpt>
      <trkpt lat="51.767359860241413" lon="39.532083570957184">
        <ele>146.74000000000001</ele>
        <time>2016-12-18T07:43:17Z</time>
      </trkpt>
      <trkpt lat="51.767378216609359" lon="39.53211072832346">
        <ele>146.74000000000001</ele>
        <time>2016-12-18T07:43:18Z</time>
      </trkpt>
      <trkpt lat="51.767404284328222" lon="39.532141322270036">
        <ele>146.25999999999999</ele>
        <time>2016-12-18T07:43:19Z</time>
      </trkpt>
      <trkpt lat="51.767428675666451" lon="39.532185662537813">
        <ele>145.78</ele>
        <time>2016-12-18T07:43:20Z</time>
      </trkpt>
      <trkpt lat="51.767445188015699" lon="39.532234696671367">
        <ele>145.30000000000001</ele>
        <time>2016-12-18T07:43:21Z</time>
      </trkpt>
      <trkpt lat="51.767461113631725" lon="39.532278114929795">
        <ele>145.30000000000001</ele>
        <time>2016-12-18T07:43:22Z</time>
      </trkpt>
      <trkpt lat="51.76747745834291" lon="39.532319689169526">
        <ele>145.30000000000001</ele>
        <time>2016-12-18T07:43:23Z</time>
      </trkpt>
      <trkpt lat="51.767508136108518" lon="39.532431084662676">
        <ele>145.30000000000001</ele>
        <time>2016-12-18T07:43:34Z</time>
      </trkpt>
      <trkpt lat="51.767503442242742" lon="39.532453464344144">
        <ele>145.30000000000001</ele>
        <time>2016-12-18T07:44:07Z</time>
      </trkpt>
      <trkpt lat="51.767500340938568" lon="39.532439382746816">
        <ele>145.78</ele>
        <time>2016-12-18T07:44:51Z</time>
      </trkpt>
      <trkpt lat="51.76750335842371" lon="39.532436951994896">
        <ele>146.25999999999999</ele>
        <time>2016-12-18T07:45:33Z</time>
      </trkpt>
      <trkpt lat="51.767502352595329" lon="39.532440388575196">
        <ele>144.81999999999999</ele>
        <time>2016-12-18T07:46:05Z</time>
      </trkpt>
      <trkpt lat="51.767508806660771" lon="39.53243468888104">
        <ele>144.34</ele>
        <time>2016-12-18T07:46:33Z</time>
      </trkpt>
      <trkpt lat="51.767507884651423" lon="39.532440891489387">
        <ele>144.81999999999999</ele>
        <time>2016-12-18T07:47:12Z</time>
      </trkpt>
      <trkpt lat="51.767502520233393" lon="39.532441142946482">
        <ele>144.34</ele>
        <time>2016-12-18T07:47:49Z</time>
      </trkpt>
      <trkpt lat="51.767559684813023" lon="39.532564608380198">
        <ele>143.84999999999999</ele>
        <time>2016-12-18T07:47:58Z</time>
      </trkpt>
      <trkpt lat="51.767910216003656" lon="39.533314872533083">
        <ele>143.37</ele>
        <time>2016-12-18T07:48:11Z</time>
      </trkpt>
      <trkpt lat="51.76834573969245" lon="39.534313911572099">
        <ele>144.34</ele>
        <time>2016-12-18T07:48:28Z</time>
      </trkpt>
      <trkpt lat="51.768656373023987" lon="39.534979686141014">
        <ele>144.34</ele>
        <time>2016-12-18T07:48:40Z</time>
      </trkpt>
      <trkpt lat="51.769120898097754" lon="39.536063633859158">
        <ele>145.30000000000001</ele>
        <time>2016-12-18T07:48:59Z</time>
      </trkpt>
      <trkpt lat="51.769408648833632" lon="39.536461355164647">
        <ele>146.74000000000001</ele>
        <time>2016-12-18T07:49:07Z</time>
      </trkpt>
      <trkpt lat="51.769442344084382" lon="39.536511562764645">
        <ele>147.22</ele>
        <time>2016-12-18T07:49:08Z</time>
      </trkpt>
      <trkpt lat="51.76985657773912" lon="39.537407169118524">
        <ele>147.22</ele>
        <time>2016-12-18T07:49:24Z</time>
      </trkpt>
      <trkpt lat="51.770050618797541" lon="39.537821905687451">
        <ele>147.69999999999999</ele>
        <time>2016-12-18T07:49:32Z</time>
      </trkpt>
      <trkpt lat="51.7700872477144" lon="39.537859540432692">
        <ele>147.69999999999999</ele>
        <time>2016-12-18T07:49:33Z</time>
      </trkpt>
      <trkpt lat="51.770124714821577" lon="39.537887619808316">
        <ele>147.69999999999999</ele>
        <time>2016-12-18T07:49:34Z</time>
      </trkpt>
      <trkpt lat="51.770203169435263" lon="39.537939503788948">
        <ele>148.18000000000001</ele>
        <time>2016-12-18T07:49:36Z</time>
      </trkpt>
      <trkpt lat="51.7702392116189" lon="39.537976803258061">
        <ele>148.66</ele>
        <time>2016-12-18T07:49:37Z</time>
      </trkpt>
      <trkpt lat="51.770271565765142" lon="39.538022316992283">
        <ele>148.66</ele>
        <time>2016-12-18T07:49:38Z</time>
      </trkpt>
      <trkpt lat="51.770300734788179" lon="39.538074536249042">
        <ele>149.13999999999999</ele>
        <time>2016-12-18T07:49:39Z</time>
      </trkpt>
      <trkpt lat="51.770329903811216" lon="39.538131197914481">
        <ele>149.13999999999999</ele>
        <time>2016-12-18T07:49:40Z</time>
      </trkpt>
      <trkpt lat="51.770834997296333" lon="39.539082292467356">
        <ele>150.09999999999999</ele>
        <time>2016-12-18T07:49:54Z</time>
      </trkpt>
      <trkpt lat="51.77096089348197" lon="39.539320003241301">
        <ele>150.09999999999999</ele>
        <time>2016-12-18T07:49:58Z</time>
      </trkpt>
      <trkpt lat="51.771079748868942" lon="39.539551846683025">
        <ele>150.09999999999999</ele>
        <time>2016-12-18T07:50:03Z</time>
      </trkpt>
      <trkpt lat="51.77130538970232" lon="39.539981251582503">
        <ele>150.09999999999999</ele>
        <time>2016-12-18T07:50:16Z</time>
      </trkpt>
      <trkpt lat="51.771490965038538" lon="39.540255423635244">
        <ele>151.06</ele>
        <time>2016-12-18T07:50:26Z</time>
      </trkpt>
      <trkpt lat="51.771958256140351" lon="39.541059415787458">
        <ele>150.58000000000001</ele>
        <time>2016-12-18T07:50:42Z</time>
      </trkpt>
      <trkpt lat="51.772597627714276" lon="39.541999446228147">
        <ele>150.58000000000001</ele>
        <time>2016-12-18T07:51:01Z</time>
      </trkpt>
      <trkpt lat="51.773245465010405" lon="39.542876025661826">
        <ele>149.62</ele>
        <time>2016-12-18T07:51:20Z</time>
      </trkpt>
      <trkpt lat="51.773979049175978" lon="39.543784540146589">
        <ele>151.06</ele>
        <time>2016-12-18T07:51:40Z</time>
      </trkpt>
      <trkpt lat="51.774669382721186" lon="39.544582916423678">
        <ele>152.03</ele>
        <time>2016-12-18T07:51:58Z</time>
      </trkpt>
      <trkpt lat="51.775313951075077" lon="39.545220443978906">
        <ele>153.47</ele>
        <time>2016-12-18T07:52:14Z</time>
      </trkpt>
      <trkpt lat="51.776010654866695" lon="39.545918321236968">
        <ele>154.43000000000001</ele>
        <time>2016-12-18T07:52:32Z</time>
      </trkpt>
      <trkpt lat="51.776386080309749" lon="39.546275893226266">
        <ele>154.43000000000001</ele>
        <time>2016-12-18T07:52:46Z</time>
      </trkpt>
      <trkpt lat="51.776553969830275" lon="39.546439843252301">
        <ele>154.43000000000001</ele>
        <time>2016-12-18T07:53:06Z</time>
      </trkpt>
      <trkpt lat="51.777264755219221" lon="39.547176193445921">
        <ele>152.99000000000001</ele>
        <time>2016-12-18T07:53:23Z</time>
      </trkpt>
      <trkpt lat="51.77811392582953" lon="39.548027543351054">
        <ele>152.50999999999999</ele>
        <time>2016-12-18T07:53:42Z</time>
      </trkpt>
      <trkpt lat="51.778965024277568" lon="39.548833211883903">
        <ele>153.94999999999999</ele>
        <time>2016-12-18T07:54:01Z</time>
      </trkpt>
      <trkpt lat="51.779710175469518" lon="39.549595629796386">
        <ele>154.91</ele>
        <time>2016-12-18T07:54:19Z</time>
      </trkpt>
      <trkpt lat="51.780532440170646" lon="39.550417894497514">
        <ele>155.38999999999999</ele>
        <time>2016-12-18T07:54:40Z</time>
      </trkpt>
      <trkpt lat="51.78114247508347" lon="39.551051650196314">
        <ele>155.38999999999999</ele>
        <time>2016-12-18T07:54:56Z</time>
      </trkpt>
      <trkpt lat="51.781773548573256" lon="39.551660260185599">
        <ele>155.87</ele>
        <time>2016-12-18T07:55:12Z</time>
      </trkpt>
      <trkpt lat="51.782588185742497" lon="39.552450589835644">
        <ele>155.87</ele>
        <time>2016-12-18T07:55:32Z</time>
      </trkpt>
      <trkpt lat="51.783431069925427" lon="39.553288193419576">
        <ele>154.91</ele>
        <time>2016-12-18T07:55:53Z</time>
      </trkpt>
      <trkpt lat="51.78417488001287" lon="39.55400719307363">
        <ele>154.91</ele>
        <time>2016-12-18T07:56:11Z</time>
      </trkpt>
      <trkpt lat="51.784966718405485" lon="39.55482124350965">
        <ele>154.91</ele>
        <time>2016-12-18T07:56:31Z</time>
      </trkpt>
      <trkpt lat="51.785871712490916" lon="39.555693799629807">
        <ele>154.43000000000001</ele>
        <time>2016-12-18T07:56:53Z</time>
      </trkpt>
      <trkpt lat="51.786669502034783" lon="39.556477256119251">
        <ele>154.43000000000001</ele>
        <time>2016-12-18T07:57:13Z</time>
      </trkpt>
      <trkpt lat="51.787550859153271" lon="39.557354841381311">
        <ele>154.91</ele>
        <time>2016-12-18T07:57:35Z</time>
      </trkpt>
      <trkpt lat="51.788348481059074" lon="39.558125557377934">
        <ele>154.91</ele>
        <time>2016-12-18T07:57:55Z</time>
      </trkpt>
      <trkpt lat="51.789118023589253" lon="39.558900380507112">
        <ele>153.94999999999999</ele>
        <time>2016-12-18T07:58:15Z</time>
      </trkpt>
      <trkpt lat="51.789710791781545" lon="39.559511002153158">
        <ele>154.91</ele>
        <time>2016-12-18T07:58:32Z</time>
      </trkpt>
      <trkpt lat="51.789865018799901" lon="39.560000421479344">
        <ele>155.38999999999999</ele>
        <time>2016-12-18T07:58:43Z</time>
      </trkpt>
      <trkpt lat="51.789649184793234" lon="39.560455977916718">
        <ele>154.91</ele>
        <time>2016-12-18T07:58:55Z</time>
      </trkpt>
      <trkpt lat="51.789586571976542" lon="39.56086115911603">
        <ele>154.91</ele>
        <time>2016-12-18T07:59:09Z</time>
      </trkpt>
      <trkpt lat="51.789688831195235" lon="39.561031898483634">
        <ele>154.43000000000001</ele>
        <time>2016-12-18T07:59:13Z</time>
      </trkpt>
      <trkpt lat="51.790277324616909" lon="39.561641849577427">
        <ele>154.91</ele>
        <time>2016-12-18T07:59:23Z</time>
      </trkpt>
      <trkpt lat="51.790955252945423" lon="39.562298990786076">
        <ele>155.87</ele>
        <time>2016-12-18T07:59:36Z</time>
      </trkpt>
      <trkpt lat="51.792014054954052" lon="39.563344297930598">
        <ele>157.31</ele>
        <time>2016-12-18T07:59:57Z</time>
      </trkpt>
      <trkpt lat="51.793232196941972" lon="39.564543915912509">
        <ele>157.31</ele>
        <time>2016-12-18T08:00:21Z</time>
      </trkpt>
      <trkpt lat="51.794191673398018" lon="39.565482353791595">
        <ele>157.31</ele>
        <time>2016-12-18T08:00:40Z</time>
      </trkpt>
      <trkpt lat="51.795361032709479" lon="39.566606534644961">
        <ele>155.38999999999999</ele>
        <time>2016-12-18T08:01:03Z</time>
      </trkpt>
      <trkpt lat="51.796526620164514" lon="39.567752676084638">
        <ele>155.87</ele>
        <time>2016-12-18T08:01:26Z</time>
      </trkpt>
      <trkpt lat="51.797412503510714" lon="39.568627830594778">
        <ele>155.87</ele>
        <time>2016-12-18T08:01:43Z</time>
      </trkpt>
      <trkpt lat="51.798485806211829" lon="39.569675903767347">
        <ele>156.83000000000001</ele>
        <time>2016-12-18T08:02:04Z</time>
      </trkpt>
      <trkpt lat="51.799574112519622" lon="39.570620376616716">
        <ele>155.87</ele>
        <time>2016-12-18T08:02:25Z</time>
      </trkpt>
      <trkpt lat="51.8008894007653" lon="39.571416070684791">
        <ele>154.43000000000001</ele>
        <time>2016-12-18T08:02:49Z</time>
      </trkpt>
      <trkpt lat="51.80222338065505" lon="39.572099782526493">
        <ele>153.94999999999999</ele>
        <time>2016-12-18T08:03:13Z</time>
      </trkpt>
      <trkpt lat="51.803585775196552" lon="39.572708643972874">
        <ele>154.43000000000001</ele>
        <time>2016-12-18T08:03:37Z</time>
      </trkpt>
      <trkpt lat="51.804980440065265" lon="39.57317216321826">
        <ele>154.91</ele>
        <time>2016-12-18T08:04:01Z</time>
      </trkpt>
      <trkpt lat="51.806244850158691" lon="39.573401995003223">
        <ele>155.38999999999999</ele>
        <time>2016-12-18T08:04:23Z</time>
      </trkpt>
      <trkpt lat="51.807681927457452" lon="39.573664683848619">
        <ele>154.91</ele>
        <time>2016-12-18T08:04:48Z</time>
      </trkpt>
      <trkpt lat="51.809181617572904" lon="39.573925025761127">
        <ele>153.94999999999999</ele>
        <time>2016-12-18T08:05:14Z</time>
      </trkpt>
      <trkpt lat="51.810405710712075" lon="39.574142619967461">
        <ele>153.47</ele>
        <time>2016-12-18T08:05:35Z</time>
      </trkpt>
      <trkpt lat="51.811899868771434" lon="39.574400950223207">
        <ele>153.47</ele>
        <time>2016-12-18T08:06:01Z</time>
      </trkpt>
      <trkpt lat="51.813123626634479" lon="39.574756175279617">
        <ele>154.43000000000001</ele>
        <time>2016-12-18T08:06:23Z</time>
      </trkpt>
      <trkpt lat="51.814208747819066" lon="39.575101006776094">
        <ele>155.38999999999999</ele>
        <time>2016-12-18T08:06:44Z</time>
      </trkpt>
      <trkpt lat="51.815042831003666" lon="39.575337963178754">
        <ele>155.38999999999999</ele>
        <time>2016-12-18T08:07:03Z</time>
      </trkpt>
      <trkpt lat="51.815880937501788" lon="39.575435528531671">
        <ele>155.38999999999999</ele>
        <time>2016-12-18T08:07:22Z</time>
      </trkpt>
      <trkpt lat="51.816244963556528" lon="39.575485736131668">
        <ele>154.91</ele>
        <time>2016-12-18T08:07:30Z</time>
      </trkpt>
      <trkpt lat="51.816284609958529" lon="39.575488921254873">
        <ele>154.91</ele>
        <time>2016-12-18T08:07:31Z</time>
      </trkpt>
      <trkpt lat="51.816321071237326" lon="39.575479533523321">
        <ele>154.91</ele>
        <time>2016-12-18T08:07:32Z</time>
      </trkpt>
      <trkpt lat="51.816356275230646" lon="39.575464110821486">
        <ele>155.38999999999999</ele>
        <time>2016-12-18T08:07:33Z</time>
      </trkpt>
      <trkpt lat="51.81638821028173" lon="39.575451286509633">
        <ele>155.38999999999999</ele>
        <time>2016-12-18T08:07:34Z</time>
      </trkpt>
      <trkpt lat="51.81642098352313" lon="39.575435779988766">
        <ele>155.38999999999999</ele>
        <time>2016-12-18T08:07:35Z</time>
      </trkpt>
      <trkpt lat="51.816446632146835" lon="39.575407532975078">
        <ele>155.38999999999999</ele>
        <time>2016-12-18T08:07:36Z</time>
      </trkpt>
      <trkpt lat="51.81646540760994" lon="39.57535682246089">
        <ele>155.38999999999999</ele>
        <time>2016-12-18T08:07:37Z</time>
      </trkpt>
      <trkpt lat="51.816469095647335" lon="39.575301753357053">
        <ele>155.38999999999999</ele>
        <time>2016-12-18T08:07:38Z</time>
      </trkpt>
      <trkpt lat="51.81646834127605" lon="39.575255652889609">
        <ele>155.38999999999999</ele>
        <time>2016-12-18T08:07:39Z</time>
      </trkpt>
      <trkpt lat="51.816464820876718" lon="39.575199745595455">
        <ele>155.38999999999999</ele>
        <time>2016-12-18T08:07:40Z</time>
      </trkpt>
      <trkpt lat="51.816459372639656" lon="39.57514283247292">
        <ele>155.38999999999999</ele>
        <time>2016-12-18T08:07:41Z</time>
      </trkpt>
      <trkpt lat="51.81642534211278" lon="39.574956921860576">
        <ele>155.38999999999999</ele>
        <time>2016-12-18T08:07:44Z</time>
      </trkpt>
      <trkpt lat="51.816411092877388" lon="39.574322076514363">
        <ele>156.34999999999999</ele>
        <time>2016-12-18T08:07:55Z</time>
      </trkpt>
      <trkpt lat="51.816682917997241" lon="39.573863754048944">
        <ele>157.78999999999999</ele>
        <time>2016-12-18T08:08:07Z</time>
      </trkpt>
      <trkpt lat="51.817286750301719" lon="39.573943382129073">
        <ele>158.27000000000001</ele>
        <time>2016-12-18T08:08:21Z</time>
      </trkpt>
      <trkpt lat="51.818331303074956" lon="39.574109511449933">
        <ele>161.16</ele>
        <time>2016-12-18T08:08:42Z</time>
      </trkpt>
      <trkpt lat="51.819370575249195" lon="39.57426130771637">
        <ele>161.16</ele>
        <time>2016-12-18T08:09:02Z</time>
      </trkpt>
      <trkpt lat="51.820173310115933" lon="39.574375888332725">
        <ele>161.16</ele>
        <time>2016-12-18T08:09:17Z</time>
      </trkpt>
      <trkpt lat="51.821198584511876" lon="39.574550567194819">
        <ele>160.68000000000001</ele>
        <time>2016-12-18T08:09:37Z</time>
      </trkpt>
      <trkpt lat="51.821660762652755" lon="39.574633212760091">
        <ele>160.19999999999999</ele>
        <time>2016-12-18T08:09:47Z</time>
      </trkpt>
      <trkpt lat="51.834154156967998" lon="39.576656771823764">
        <ele>154.91</ele>
        <time>2016-12-18T08:25:58Z</time>
      </trkpt>
      <trkpt lat="51.834613988175988" lon="39.576735477894545">
        <ele>153.94999999999999</ele>
        <time>2016-12-18T08:26:09Z</time>
      </trkpt>
      <trkpt lat="51.835235422477126" lon="39.576878976076841">
        <ele>153.94999999999999</ele>
        <time>2016-12-18T08:26:23Z</time>
      </trkpt>
      <trkpt lat="51.835771361365914" lon="39.576896158978343">
        <ele>154.43000000000001</ele>
        <time>2016-12-18T08:26:39Z</time>
      </trkpt>
      <trkpt lat="51.83621191419661" lon="39.576966399326921">
        <ele>154.43000000000001</ele>
        <time>2016-12-18T08:26:55Z</time>
      </trkpt>
      <trkpt lat="51.836646348237991" lon="39.577043848112226">
        <ele>154.91</ele>
        <time>2016-12-18T08:27:13Z</time>
      </trkpt>
      <trkpt lat="51.836964441463351" lon="39.577119452878833">
        <ele>154.91</ele>
        <time>2016-12-18T08:27:31Z</time>
      </trkpt>
      <trkpt lat="51.836949856951833" lon="39.577141329646111">
        <ele>156.34999999999999</ele>
        <time>2016-12-18T08:28:03Z</time>
      </trkpt>
      <trkpt lat="51.837125541642308" lon="39.577149879187346">
        <ele>155.87</ele>
        <time>2016-12-18T08:28:23Z</time>
      </trkpt>
      <trkpt lat="51.83746081776917" lon="39.577238224446774">
        <ele>155.87</ele>
        <time>2016-12-18T08:28:38Z</time>
      </trkpt>
      <trkpt lat="51.837903298437595" lon="39.577307878062129">
        <ele>155.38999999999999</ele>
        <time>2016-12-18T08:28:53Z</time>
      </trkpt>
      <trkpt lat="51.83826950378716" lon="39.577352050691843">
        <ele>155.38999999999999</ele>
        <time>2016-12-18T08:29:07Z</time>
      </trkpt>
      <trkpt lat="51.838621962815523" lon="39.577396726235747">
        <ele>155.38999999999999</ele>
        <time>2016-12-18T08:29:23Z</time>
      </trkpt>
      <trkpt lat="51.839093863964081" lon="39.57747794687748">
        <ele>155.87</ele>
        <time>2016-12-18T08:29:35Z</time>
      </trkpt>
      <trkpt lat="51.840211758390069" lon="39.577651284635067">
        <ele>155.87</ele>
        <time>2016-12-18T08:29:56Z</time>
      </trkpt>
      <trkpt lat="51.841192273423076" lon="39.577834932133555">
        <ele>157.31</ele>
        <time>2016-12-18T08:30:15Z</time>
      </trkpt>
      <trkpt lat="51.842236490920186" lon="39.577990416437387">
        <ele>158.75</ele>
        <time>2016-12-18T08:30:35Z</time>
      </trkpt>
      <trkpt lat="51.84324374422431" lon="39.578157886862755">
        <ele>159.72</ele>
        <time>2016-12-18T08:30:55Z</time>
      </trkpt>
      <trkpt lat="51.844133734703064" lon="39.57827934063971">
        <ele>158.75</ele>
        <time>2016-12-18T08:31:14Z</time>
      </trkpt>
      <trkpt lat="51.84503311291337" lon="39.578397693112493">
        <ele>159.24000000000001</ele>
        <time>2016-12-18T08:31:31Z</time>
      </trkpt>
      <trkpt lat="51.845849091187119" lon="39.578569019213319">
        <ele>158.75</ele>
        <time>2016-12-18T08:31:48Z</time>
      </trkpt>
      <trkpt lat="51.846870258450508" lon="39.578720899298787">
        <ele>159.72</ele>
        <time>2016-12-18T08:32:08Z</time>
      </trkpt>
      <trkpt lat="51.847807858139277" lon="39.578870851546526">
        <ele>158.75</ele>
        <time>2016-12-18T08:32:27Z</time>
      </trkpt>
      <trkpt lat="51.848818967118859" lon="39.579037819057703">
        <ele>159.24000000000001</ele>
        <time>2016-12-18T08:32:47Z</time>
      </trkpt>
      <trkpt lat="51.849658749997616" lon="39.579198164865375">
        <ele>157.78999999999999</ele>
        <time>2016-12-18T08:33:04Z</time>
      </trkpt>
      <trkpt lat="51.85062644071877" lon="39.579379130154848">
        <ele>157.31</ele>
        <time>2016-12-18T08:33:23Z</time>
      </trkpt>
      <trkpt lat="51.851602848619223" lon="39.579560598358512">
        <ele>156.34999999999999</ele>
        <time>2016-12-18T08:33:41Z</time>
      </trkpt>
      <trkpt lat="51.852509435266256" lon="39.579727482050657">
        <ele>155.87</ele>
        <time>2016-12-18T08:33:58Z</time>
      </trkpt>
      <trkpt lat="51.853228099644184" lon="39.579822281375527">
        <ele>154.91</ele>
        <time>2016-12-18T08:34:12Z</time>
      </trkpt>
      <trkpt lat="51.854136614128947" lon="39.579953541979194">
        <ele>154.91</ele>
        <time>2016-12-18T08:34:30Z</time>
      </trkpt>
      <trkpt lat="51.855009002611041" lon="39.580091591924429">
        <ele>154.43000000000001</ele>
        <time>2016-12-18T08:34:47Z</time>
      </trkpt>
      <trkpt lat="51.855917768552899" lon="39.580230228602886">
        <ele>154.43000000000001</ele>
        <time>2016-12-18T08:35:04Z</time>
      </trkpt>
      <trkpt lat="51.856914795935154" lon="39.580437513068318">
        <ele>153.94999999999999</ele>
        <time>2016-12-18T08:35:23Z</time>
      </trkpt>
      <trkpt lat="51.857958510518074" lon="39.580611353740096">
        <ele>153.47</ele>
        <time>2016-12-18T08:35:43Z</time>
      </trkpt>
      <trkpt lat="51.858931230381131" lon="39.580763736739755">
        <ele>153.94999999999999</ele>
        <time>2016-12-18T08:36:01Z</time>
      </trkpt>
      <trkpt lat="51.859764978289604" lon="39.580967165529728">
        <ele>153.47</ele>
        <time>2016-12-18T08:36:17Z</time>
      </trkpt>
      <trkpt lat="51.86061012558639" lon="39.58106598816812">
        <ele>153.47</ele>
        <time>2016-12-18T08:36:33Z</time>
      </trkpt>
      <trkpt lat="51.861582174897194" lon="39.581203954294324">
        <ele>153.47</ele>
        <time>2016-12-18T08:36:52Z</time>
      </trkpt>
      <trkpt lat="51.86241315677762" lon="39.581313086673617">
        <ele>154.91</ele>
        <time>2016-12-18T08:37:10Z</time>
      </trkpt>
      <trkpt lat="51.862505106255412" lon="39.58132054656744">
        <ele>154.91</ele>
        <time>2016-12-18T08:37:12Z</time>
      </trkpt>
      <trkpt lat="51.862970804795623" lon="39.581401012837887">
        <ele>155.87</ele>
        <time>2016-12-18T08:37:25Z</time>
      </trkpt>
      <trkpt lat="51.86299704015255" lon="39.581411071121693">
        <ele>156.34999999999999</ele>
        <time>2016-12-18T08:37:27Z</time>
      </trkpt>
      <trkpt lat="51.863352851942182" lon="39.581480221822858">
        <ele>156.34999999999999</ele>
        <time>2016-12-18T08:37:37Z</time>
      </trkpt>
      <trkpt lat="51.864029355347157" lon="39.581608632579446">
        <ele>158.27000000000001</ele>
        <time>2016-12-18T08:37:53Z</time>
      </trkpt>
      <trkpt lat="51.864887997508049" lon="39.58177400752902">
        <ele>157.31</ele>
        <time>2016-12-18T08:38:12Z</time>
      </trkpt>
      <trkpt lat="51.865923078730702" lon="39.581980369985104">
        <ele>155.87</ele>
        <time>2016-12-18T08:38:34Z</time>
      </trkpt>
      <trkpt lat="51.866647275164723" lon="39.582077516242862">
        <ele>156.34999999999999</ele>
        <time>2016-12-18T08:38:50Z</time>
      </trkpt>
      <trkpt lat="51.867397204041481" lon="39.582250602543354">
        <ele>155.38999999999999</ele>
        <time>2016-12-18T08:39:06Z</time>
      </trkpt>
      <trkpt lat="51.868018386885524" lon="39.582446739077568">
        <ele>155.38999999999999</ele>
        <time>2016-12-18T08:39:20Z</time>
      </trkpt>
      <trkpt lat="51.86880636960268" lon="39.582729963585734">
        <ele>155.38999999999999</ele>
        <time>2016-12-18T08:39:38Z</time>
      </trkpt>
      <trkpt lat="51.869521429762244" lon="39.583031376823783">
        <ele>154.91</ele>
        <time>2016-12-18T08:39:55Z</time>
      </trkpt>
      <trkpt lat="51.870231712237" lon="39.583400683477521">
        <ele>155.87</ele>
        <time>2016-12-18T08:40:11Z</time>
      </trkpt>
      <trkpt lat="51.871003517881036" lon="39.583831680938601">
        <ele>156.34999999999999</ele>
        <time>2016-12-18T08:40:30Z</time>
      </trkpt>
      <trkpt lat="51.871254304423928" lon="39.584031254053116">
        <ele>155.38999999999999</ele>
        <time>2016-12-18T08:40:44Z</time>
      </trkpt>
      <trkpt lat="51.871284311637282" lon="39.583934191614389">
        <ele>155.87</ele>
        <time>2016-12-18T08:40:55Z</time>
      </trkpt>
      <trkpt lat="51.871324209496379" lon="39.583843247964978">
        <ele>156.34999999999999</ele>
        <time>2016-12-18T08:41:06Z</time>
      </trkpt>
      <trkpt lat="51.871333010494709" lon="39.583834866061807">
        <ele>155.87</ele>
        <time>2016-12-18T08:41:07Z</time>
      </trkpt>
      <trkpt lat="51.871364442631602" lon="39.583824556320906">
        <ele>155.87</ele>
        <time>2016-12-18T08:41:19Z</time>
      </trkpt>
      <trkpt lat="51.871372740715742" lon="39.583836374804378">
        <ele>155.87</ele>
        <time>2016-12-18T08:41:20Z</time>
      </trkpt>
      <trkpt lat="51.871493859216571" lon="39.583912901580334">
        <ele>155.87</ele>
        <time>2016-12-18T08:41:31Z</time>
      </trkpt>
      <trkpt lat="51.871890742331743" lon="39.584103003144264">
        <ele>155.38999999999999</ele>
        <time>2016-12-18T08:41:45Z</time>
      </trkpt>
      <trkpt lat="51.872560372576118" lon="39.584527462720871">
        <ele>153.94999999999999</ele>
        <time>2016-12-18T08:42:03Z</time>
      </trkpt>
      <trkpt lat="51.873419685289264" lon="39.585206899791956">
        <ele>154.43000000000001</ele>
        <time>2016-12-18T08:42:24Z</time>
      </trkpt>
      <trkpt lat="51.874041287228465" lon="39.585665054619312">
        <ele>153.94999999999999</ele>
        <time>2016-12-18T08:42:39Z</time>
      </trkpt>
      <trkpt lat="51.874079089611769" lon="39.585683327168226">
        <ele>153.94999999999999</ele>
        <time>2016-12-18T08:42:40Z</time>
      </trkpt>
      <trkpt lat="51.874452251940966" lon="39.585535302758217">
        <ele>153.94999999999999</ele>
        <time>2016-12-18T08:42:51Z</time>
      </trkpt>
      <trkpt lat="51.874819966033101" lon="39.58535416983068">
        <ele>154.91</ele>
        <time>2016-12-18T08:43:02Z</time>
      </trkpt>
      <trkpt lat="51.875419858843088" lon="39.585820036008954">
        <ele>155.87</ele>
        <time>2016-12-18T08:43:17Z</time>
      </trkpt>
      <trkpt lat="51.875526392832398" lon="39.585956409573555">
        <ele>155.87</ele>
        <time>2016-12-18T08:43:20Z</time>
      </trkpt>
      <trkpt lat="51.875557322055101" lon="39.586004437878728">
        <ele>155.87</ele>
        <time>2016-12-18T08:43:21Z</time>
      </trkpt>
      <trkpt lat="51.875592274591327" lon="39.586052633821964">
        <ele>155.87</ele>
        <time>2016-12-18T08:43:22Z</time>
      </trkpt>
      <trkpt lat="51.876109270378947" lon="39.586604246869683">
        <ele>157.78999999999999</ele>
        <time>2016-12-18T08:43:36Z</time>
      </trkpt>
      <trkpt lat="51.87651302665472" lon="39.58684304729104">
        <ele>158.75</ele>
        <time>2016-12-18T08:43:46Z</time>
      </trkpt>
      <trkpt lat="51.877137394621968" lon="39.587517790496349">
        <ele>159.24000000000001</ele>
        <time>2016-12-18T08:44:04Z</time>
      </trkpt>
      <trkpt lat="51.877805013209581" lon="39.588011065497994">
        <ele>159.24000000000001</ele>
        <time>2016-12-18T08:44:21Z</time>
      </trkpt>
      <trkpt lat="51.877996791154146" lon="39.588194293901324">
        <ele>159.72</ele>
        <time>2016-12-18T08:44:26Z</time>
      </trkpt>
      <trkpt lat="51.878389650955796" lon="39.588270150125027">
        <ele>159.24000000000001</ele>
        <time>2016-12-18T08:44:39Z</time>
      </trkpt>
      <trkpt lat="51.878516636788845" lon="39.587892964482307">
        <ele>159.24000000000001</ele>
        <time>2016-12-18T08:44:48Z</time>
      </trkpt>
      <trkpt lat="51.878690058365464" lon="39.586927620694041">
        <ele>158.27000000000001</ele>
        <time>2016-12-18T08:45:01Z</time>
      </trkpt>
      <trkpt lat="51.878709085285664" lon="39.58685134537518">
        <ele>158.27000000000001</ele>
        <time>2016-12-18T08:45:02Z</time>
      </trkpt>
      <trkpt lat="51.879019718617201" lon="39.585181083530188">
        <ele>156.83000000000001</ele>
        <time>2016-12-18T08:45:23Z</time>
      </trkpt>
      <trkpt lat="51.879307888448238" lon="39.583646859973669">
        <ele>155.38999999999999</ele>
        <time>2016-12-18T08:45:42Z</time>
      </trkpt>
      <trkpt lat="51.879546940326691" lon="39.582321932539344">
        <ele>154.43000000000001</ele>
        <time>2016-12-18T08:45:59Z</time>
      </trkpt>
      <trkpt lat="51.879832344129682" lon="39.580805310979486">
        <ele>153.94999999999999</ele>
        <time>2016-12-18T08:46:18Z</time>
      </trkpt>
      <trkpt lat="51.880110371857882" lon="39.579300256446004">
        <ele>154.43000000000001</ele>
        <time>2016-12-18T08:46:37Z</time>
      </trkpt>
      <trkpt lat="51.88036585226655" lon="39.577848091721535">
        <ele>152.50999999999999</ele>
        <time>2016-12-18T08:46:56Z</time>
      </trkpt>
      <trkpt lat="51.880594426766038" lon="39.576794402673841">
        <ele>152.03</ele>
        <time>2016-12-18T08:47:10Z</time>
      </trkpt>
      <trkpt lat="51.880723256617785" lon="39.57618654705584">
        <ele>152.03</ele>
        <time>2016-12-18T08:47:19Z</time>
      </trkpt>
      <trkpt lat="51.880837753415108" lon="39.575535608455539">
        <ele>151.53999999999999</ele>
        <time>2016-12-18T08:47:29Z</time>
      </trkpt>
      <trkpt lat="51.880853930488229" lon="39.575477605685592">
        <ele>151.53999999999999</ele>
        <time>2016-12-18T08:47:30Z</time>
      </trkpt>
      <trkpt lat="51.880976390093565" lon="39.574879389256239">
        <ele>151.53999999999999</ele>
        <time>2016-12-18T08:47:39Z</time>
      </trkpt>
      <trkpt lat="51.880993908271194" lon="39.574816273525357">
        <ele>151.53999999999999</ele>
        <time>2016-12-18T08:47:40Z</time>
      </trkpt>
      <trkpt lat="51.881210412830114" lon="39.573976071551442">
        <ele>152.50999999999999</ele>
        <time>2016-12-18T08:47:53Z</time>
      </trkpt>
      <trkpt lat="51.88127126544714" lon="39.573582960292697">
        <ele>152.03</ele>
        <time>2016-12-18T08:47:59Z</time>
      </trkpt>
      <trkpt lat="51.881282916292548" lon="39.573517749086022">
        <ele>152.03</ele>
        <time>2016-12-18T08:48:00Z</time>
      </trkpt>
      <trkpt lat="51.88135726377368" lon="39.573081387206912">
        <ele>151.53999999999999</ele>
        <time>2016-12-18T08:48:07Z</time>
      </trkpt>
      <trkpt lat="51.881366735324264" lon="39.573012320324779">
        <ele>151.06</ele>
        <time>2016-12-18T08:48:08Z</time>
      </trkpt>
      <trkpt lat="51.881381319835782" lon="39.572943588718772">
        <ele>151.06</ele>
        <time>2016-12-18T08:48:09Z</time>
      </trkpt>
      <trkpt lat="51.881611151620746" lon="39.57170482724905">
        <ele>148.66</ele>
        <time>2016-12-18T08:48:27Z</time>
      </trkpt>
      <trkpt lat="51.881616935133934" lon="39.571629054844379">
        <ele>148.66</ele>
        <time>2016-12-18T08:48:28Z</time>
      </trkpt>
      <trkpt lat="51.881628083065152" lon="39.571555461734533">
        <ele>148.66</ele>
        <time>2016-12-18T08:48:29Z</time>
      </trkpt>
      <trkpt lat="51.881642835214734" lon="39.571487819775939">
        <ele>148.66</ele>
        <time>2016-12-18T08:48:30Z</time>
      </trkpt>
      <trkpt lat="51.88165582716465" lon="39.571421351283789">
        <ele>148.66</ele>
        <time>2016-12-18T08:48:31Z</time>
      </trkpt>
      <trkpt lat="51.881668483838439" lon="39.571356223896146">
        <ele>148.66</ele>
        <time>2016-12-18T08:48:32Z</time>
      </trkpt>
      <trkpt lat="51.881751464679837" lon="39.570677792653441">
        <ele>147.22</ele>
        <time>2016-12-18T08:48:42Z</time>
      </trkpt>
      <trkpt lat="51.881762780249119" lon="39.57060880959034">
        <ele>147.22</ele>
        <time>2016-12-18T08:48:43Z</time>
      </trkpt>
      <trkpt lat="51.881780046969652" lon="39.570543933659792">
        <ele>146.74000000000001</ele>
        <time>2016-12-18T08:48:44Z</time>
      </trkpt>
      <trkpt lat="51.88181952573359" lon="39.570421641692519">
        <ele>146.74000000000001</ele>
        <time>2016-12-18T08:48:46Z</time>
      </trkpt>
      <trkpt lat="51.881858501583338" lon="39.570298008620739">
        <ele>146.74000000000001</ele>
        <time>2016-12-18T08:48:48Z</time>
      </trkpt>
      <trkpt lat="51.881935615092516" lon="39.57006105221808">
        <ele>147.22</ele>
        <time>2016-12-18T08:48:52Z</time>
      </trkpt>
      <trkpt lat="51.882034856826067" lon="39.569523939862847">
        <ele>145.78</ele>
        <time>2016-12-18T08:49:00Z</time>
      </trkpt>
      <trkpt lat="51.882168967276812" lon="39.568848442286253">
        <ele>144.34</ele>
        <time>2016-12-18T08:49:10Z</time>
      </trkpt>
      <trkpt lat="51.882241303101182" lon="39.568435298278928">
        <ele>142.88999999999999</ele>
        <time>2016-12-18T08:49:16Z</time>
      </trkpt>
      <trkpt lat="51.882278434932232" lon="39.568235725164413">
        <ele>141.93000000000001</ele>
        <time>2016-12-18T08:49:19Z</time>
      </trkpt>
      <trkpt lat="51.882379269227386" lon="39.567670952528715">
        <ele>140.00999999999999</ele>
        <time>2016-12-18T08:49:27Z</time>
      </trkpt>
      <trkpt lat="51.882395446300507" lon="39.567604064941406">
        <ele>139.53</ele>
        <time>2016-12-18T08:49:28Z</time>
      </trkpt>
      <trkpt lat="51.882435260340571" lon="39.567398456856608">
        <ele>139.05000000000001</ele>
        <time>2016-12-18T08:49:31Z</time>
      </trkpt>
      <trkpt lat="51.88244691118598" lon="39.567323522642255">
        <ele>139.05000000000001</ele>
        <time>2016-12-18T08:49:32Z</time>
      </trkpt>
      <trkpt lat="51.882517905905843" lon="39.566915156319737">
        <ele>139.05000000000001</ele>
        <time>2016-12-18T08:49:38Z</time>
      </trkpt>
      <trkpt lat="51.882531233131886" lon="39.566849861294031">
        <ele>139.05000000000001</ele>
        <time>2016-12-18T08:49:39Z</time>
      </trkpt>
      <trkpt lat="51.882582698017359" lon="39.566308809444308">
        <ele>139.53</ele>
        <time>2016-12-18T08:49:47Z</time>
      </trkpt>
      <trkpt lat="51.882596109062433" lon="39.566244436427951">
        <ele>139.53</ele>
        <time>2016-12-18T08:49:48Z</time>
      </trkpt>
      <trkpt lat="51.882612034678459" lon="39.566185008734465">
        <ele>139.53</ele>
        <time>2016-12-18T08:49:49Z</time>
      </trkpt>
      <trkpt lat="51.882626451551914" lon="39.566119546070695">
        <ele>139.53</ele>
        <time>2016-12-18T08:49:50Z</time>
      </trkpt>
      <trkpt lat="51.882640533149242" lon="39.566050479188561">
        <ele>139.53</ele>
        <time>2016-12-18T08:49:51Z</time>
      </trkpt>
      <trkpt lat="51.882804315537214" lon="39.565191669389606">
        <ele>138.56999999999999</ele>
        <time>2016-12-18T08:50:04Z</time>
      </trkpt>
      <trkpt lat="51.882831808179617" lon="39.564982121810317">
        <ele>139.05000000000001</ele>
        <time>2016-12-18T08:50:07Z</time>
      </trkpt>
      <trkpt lat="51.883061053231359" lon="39.564060363918543">
        <ele>140.00999999999999</ele>
        <time>2016-12-18T08:50:21Z</time>
      </trkpt>
      <trkpt lat="51.883139591664076" lon="39.563630539923906">
        <ele>140.00999999999999</ele>
        <time>2016-12-18T08:50:32Z</time>
      </trkpt>
      <trkpt lat="51.883145458996296" lon="39.563632048666477">
        <ele>142.88999999999999</ele>
        <time>2016-12-18T08:50:49Z</time>
      </trkpt>
      <trkpt lat="51.883118972182274" lon="39.563602712005377">
        <ele>145.30000000000001</ele>
        <time>2016-12-18T08:51:03Z</time>
      </trkpt>
      <trkpt lat="51.883062561973929" lon="39.56347924657166">
        <ele>146.74000000000001</ele>
        <time>2016-12-18T08:51:16Z</time>
      </trkpt>
      <trkpt lat="51.883051749318838" lon="39.563497602939606">
        <ele>147.69999999999999</ele>
        <time>2016-12-18T08:51:36Z</time>
      </trkpt>
      <trkpt lat="51.883005648851395" lon="39.563499027863145">
        <ele>152.99000000000001</ele>
        <time>2016-12-18T08:52:10Z</time>
      </trkpt>
      <trkpt lat="51.883028279989958" lon="39.563492070883512">
        <ele>154.91</ele>
        <time>2016-12-18T08:52:44Z</time>
      </trkpt>
      <trkpt lat="51.883055940270424" lon="39.563530124723911">
        <ele>155.87</ele>
        <time>2016-12-18T08:53:15Z</time>
      </trkpt>
      <trkpt lat="51.883045462891459" lon="39.563495339825749">
        <ele>155.87</ele>
        <time>2016-12-18T08:53:51Z</time>
      </trkpt>
      <trkpt lat="51.88303280621767" lon="39.563480084761977">
        <ele>152.99000000000001</ele>
        <time>2016-12-18T08:54:20Z</time>
      </trkpt>
      <trkpt lat="51.883028028532863" lon="39.563457453623414">
        <ele>151.53999999999999</ele>
        <time>2016-12-18T08:54:46Z</time>
      </trkpt>
      <trkpt lat="51.88301813788712" lon="39.563482012599707">
        <ele>151.06</ele>
        <time>2016-12-18T08:55:11Z</time>
      </trkpt>
      <trkpt lat="51.883034985512495" lon="39.563485281541944">
        <ele>150.09999999999999</ele>
        <time>2016-12-18T08:55:45Z</time>
      </trkpt>
      <trkpt lat="51.883061388507485" lon="39.563472457230091">
        <ele>146.74000000000001</ele>
        <time>2016-12-18T08:56:06Z</time>
      </trkpt>
      <trkpt lat="51.883038338273764" lon="39.563481761142612">
        <ele>150.58000000000001</ele>
        <time>2016-12-18T08:56:34Z</time>
      </trkpt>
      <trkpt lat="51.883035907521844" lon="39.56345971673727">
        <ele>147.22</ele>
        <time>2016-12-18T08:57:08Z</time>
      </trkpt>
      <trkpt lat="51.883020736277103" lon="39.563434487208724">
        <ele>149.62</ele>
        <time>2016-12-18T08:57:31Z</time>
      </trkpt>
      <trkpt lat="51.883029034361243" lon="39.563454268500209">
        <ele>150.09999999999999</ele>
        <time>2016-12-18T08:58:04Z</time>
      </trkpt>
      <trkpt lat="51.883017551153898" lon="39.563477402552962">
        <ele>152.99000000000001</ele>
        <time>2016-12-18T08:58:37Z</time>
      </trkpt>
      <trkpt lat="51.883023167029023" lon="39.5634875446558">
        <ele>152.50999999999999</ele>
        <time>2016-12-18T08:59:11Z</time>
      </trkpt>
      <trkpt lat="51.883017970249057" lon="39.563443204388022">
        <ele>153.47</ele>
        <time>2016-12-18T08:59:43Z</time>
      </trkpt>
      <trkpt lat="51.883030459284782" lon="39.563442701473832">
        <ele>152.50999999999999</ele>
        <time>2016-12-18T09:00:06Z</time>
      </trkpt>
      <trkpt lat="51.88302299939096" lon="39.563426105305552">
        <ele>154.43000000000001</ele>
        <time>2016-12-18T09:00:43Z</time>
      </trkpt>
      <trkpt lat="51.883030878379941" lon="39.563450245186687">
        <ele>152.99000000000001</ele>
        <time>2016-12-18T09:01:17Z</time>
      </trkpt>
      <trkpt lat="51.883024340495467" lon="39.563467763364315">
        <ele>151.53999999999999</ele>
        <time>2016-12-18T09:01:40Z</time>
      </trkpt>
      <trkpt lat="51.883020149543881" lon="39.56344504840672">
        <ele>148.66</ele>
        <time>2016-12-18T09:02:13Z</time>
      </trkpt>
      <trkpt lat="51.883027944713831" lon="39.56342107616365">
        <ele>150.09999999999999</ele>
        <time>2016-12-18T09:02:36Z</time>
      </trkpt>
      <trkpt lat="51.883048983290792" lon="39.56340548582375">
        <ele>153.94999999999999</ele>
        <time>2016-12-18T09:03:01Z</time>
      </trkpt>
      <trkpt lat="51.883071782067418" lon="39.563410682603717">
        <ele>155.38999999999999</ele>
        <time>2016-12-18T09:03:29Z</time>
      </trkpt>
      <trkpt lat="51.883089384064078" lon="39.563511181622744">
        <ele>154.43000000000001</ele>
        <time>2016-12-18T09:03:44Z</time>
      </trkpt>
      <trkpt lat="51.883111260831356" lon="39.563541859388351">
        <ele>153.47</ele>
        <time>2016-12-18T09:03:57Z</time>
      </trkpt>
      <trkpt lat="51.883116876706481" lon="39.563521156087518">
        <ele>153.47</ele>
        <time>2016-12-18T09:04:00Z</time>
      </trkpt>
      <trkpt lat="51.88322433270514" lon="39.56301505677402">
        <ele>151.53999999999999</ele>
        <time>2016-12-18T09:04:10Z</time>
      </trkpt>
      <trkpt lat="51.883389540016651" lon="39.562121126800776">
        <ele>147.22</ele>
        <time>2016-12-18T09:04:23Z</time>
      </trkpt>
      <trkpt lat="51.883577797561884" lon="39.561335407197475">
        <ele>146.25999999999999</ele>
        <time>2016-12-18T09:04:36Z</time>
      </trkpt>
      <trkpt lat="51.883681146427989" lon="39.560992000624537">
        <ele>144.81999999999999</ele>
        <time>2016-12-18T09:04:42Z</time>
      </trkpt>
      <trkpt lat="51.883792458102107" lon="39.560205275192857">
        <ele>144.34</ele>
        <time>2016-12-18T09:04:54Z</time>
      </trkpt>
      <trkpt lat="51.883805869147182" lon="39.560130760073662">
        <ele>143.84999999999999</ele>
        <time>2016-12-18T09:04:55Z</time>
      </trkpt>
      <trkpt lat="51.883868230506778" lon="39.559794226661325">
        <ele>142.88999999999999</ele>
        <time>2016-12-18T09:05:00Z</time>
      </trkpt>
      <trkpt lat="51.883968561887741" lon="39.559239177033305">
        <ele>141.93000000000001</ele>
        <time>2016-12-18T09:05:08Z</time>
      </trkpt>
      <trkpt lat="51.883983397856355" lon="39.559172624722123">
        <ele>140.97</ele>
        <time>2016-12-18T09:05:09Z</time>
      </trkpt>
      <trkpt lat="51.88401784747839" lon="39.558968609198928">
        <ele>139.53</ele>
        <time>2016-12-18T09:05:12Z</time>
      </trkpt>
      <trkpt lat="51.884034862741828" lon="39.558900631964207">
        <ele>139.05000000000001</ele>
        <time>2016-12-18T09:05:13Z</time>
      </trkpt>
      <trkpt lat="51.884150616824627" lon="39.55841314047575">
        <ele>138.09</ele>
        <time>2016-12-18T09:05:20Z</time>
      </trkpt>
      <trkpt lat="51.884169979020953" lon="39.558347845450044">
        <ele>138.09</ele>
        <time>2016-12-18T09:05:21Z</time>
      </trkpt>
      <trkpt lat="51.884362427517772" lon="39.5575868524611">
        <ele>139.05000000000001</ele>
        <time>2016-12-18T09:05:34Z</time>
      </trkpt>
      <trkpt lat="51.884442893788218" lon="39.556876821443439">
        <ele>138.09</ele>
        <time>2016-12-18T09:05:45Z</time>
      </trkpt>
      <trkpt lat="51.884601144120097" lon="39.555993620306253">
        <ele>136.63999999999999</ele>
        <time>2016-12-18T09:05:57Z</time>
      </trkpt>
      <trkpt lat="51.884724441915751" lon="39.55534796230495">
        <ele>135.19999999999999</ele>
        <time>2016-12-18T09:06:08Z</time>
      </trkpt>
      <trkpt lat="51.884740283712745" lon="39.555287444964051">
        <ele>135.19999999999999</ele>
        <time>2016-12-18T09:06:09Z</time>
      </trkpt>
      <trkpt lat="51.884753443300724" lon="39.555222820490599">
        <ele>135.19999999999999</ele>
        <time>2016-12-18T09:06:10Z</time>
      </trkpt>
      <trkpt lat="51.884883949533105" lon="39.554532738402486">
        <ele>135.68000000000001</ele>
        <time>2016-12-18T09:06:20Z</time>
      </trkpt>
      <trkpt lat="51.884895181283355" lon="39.554457720369101">
        <ele>135.68000000000001</ele>
        <time>2016-12-18T09:06:21Z</time>
      </trkpt>
      <trkpt lat="51.884908089414239" lon="39.554388402029872">
        <ele>135.68000000000001</ele>
        <time>2016-12-18T09:06:22Z</time>
      </trkpt>
      <trkpt lat="51.8850102648139" lon="39.55397835932672">
        <ele>135.68000000000001</ele>
        <time>2016-12-18T09:06:28Z</time>
      </trkpt>
      <trkpt lat="51.885025603696704" lon="39.55391138792038">
        <ele>136.16</ele>
        <time>2016-12-18T09:06:29Z</time>
      </trkpt>
      <trkpt lat="51.885035242885351" lon="39.553843662142754">
        <ele>136.16</ele>
        <time>2016-12-18T09:06:30Z</time>
      </trkpt>
      <trkpt lat="51.885051419958472" lon="39.553773924708366">
        <ele>136.16</ele>
        <time>2016-12-18T09:06:31Z</time>
      </trkpt>
      <trkpt lat="51.885068686679006" lon="39.553703097626567">
        <ele>135.68000000000001</ele>
        <time>2016-12-18T09:06:32Z</time>
      </trkpt>
      <trkpt lat="51.885080756619573" lon="39.553633108735085">
        <ele>135.68000000000001</ele>
        <time>2016-12-18T09:06:33Z</time>
      </trkpt>
      <trkpt lat="51.885091820731759" lon="39.553557420149446">
        <ele>134.72</ele>
        <time>2016-12-18T09:06:34Z</time>
      </trkpt>
      <trkpt lat="51.885113697499037" lon="39.553421968594193">
        <ele>134.24000000000001</ele>
        <time>2016-12-18T09:06:36Z</time>
      </trkpt>
      <trkpt lat="51.885170610621572" lon="39.553163470700383">
        <ele>134.72</ele>
        <time>2016-12-18T09:06:40Z</time>
      </trkpt>
      <trkpt lat="51.885193074122071" lon="39.553015613928437">
        <ele>134.72</ele>
        <time>2016-12-18T09:06:42Z</time>
      </trkpt>
      <trkpt lat="51.885217716917396" lon="39.552874127402902">
        <ele>135.19999999999999</ele>
        <time>2016-12-18T09:06:44Z</time>
      </trkpt>
      <trkpt lat="51.885225847363472" lon="39.552801791578531">
        <ele>135.19999999999999</ele>
        <time>2016-12-18T09:06:45Z</time>
      </trkpt>
      <trkpt lat="51.885262643918395" lon="39.552589142695069">
        <ele>135.68000000000001</ele>
        <time>2016-12-18T09:06:48Z</time>
      </trkpt>
      <trkpt lat="51.885276390239596" lon="39.552517645061016">
        <ele>135.68000000000001</ele>
        <time>2016-12-18T09:06:49Z</time>
      </trkpt>
      <trkpt lat="51.885461043566465" lon="39.551602927967906">
        <ele>137.13</ele>
        <time>2016-12-18T09:07:02Z</time>
      </trkpt>
      <trkpt lat="51.885630106553435" lon="39.550776556134224">
        <ele>138.09</ele>
        <time>2016-12-18T09:07:14Z</time>
      </trkpt>
      <trkpt lat="51.885790033265948" lon="39.549879105761647">
        <ele>136.63999999999999</ele>
        <time>2016-12-18T09:07:26Z</time>
      </trkpt>
      <trkpt lat="51.885826662182808" lon="39.549638377502561">
        <ele>136.63999999999999</ele>
        <time>2016-12-18T09:07:29Z</time>
      </trkpt>
      <trkpt lat="51.885840240865946" lon="39.549562772735953">
        <ele>136.63999999999999</ele>
        <time>2016-12-18T09:07:30Z</time>
      </trkpt>
      <trkpt lat="51.886033108457923" lon="39.548627100884914">
        <ele>139.05000000000001</ele>
        <time>2016-12-18T09:07:43Z</time>
      </trkpt>
      <trkpt lat="51.886220946907997" lon="39.547592774033546">
        <ele>139.53</ele>
        <time>2016-12-18T09:07:58Z</time>
      </trkpt>
      <trkpt lat="51.88635447062552" lon="39.546864470466971">
        <ele>140.97</ele>
        <time>2016-12-18T09:08:09Z</time>
      </trkpt>
      <trkpt lat="51.886467207223177" lon="39.546209843829274">
        <ele>141.93000000000001</ele>
        <time>2016-12-18T09:08:21Z</time>
      </trkpt>
      <trkpt lat="51.886622104793787" lon="39.545355141162872">
        <ele>144.81999999999999</ele>
        <time>2016-12-18T09:08:33Z</time>
      </trkpt>
      <trkpt lat="51.886702068150043" lon="39.544982230290771">
        <ele>144.34</ele>
        <time>2016-12-18T09:08:38Z</time>
      </trkpt>
      <trkpt lat="51.886714557185769" lon="39.544912576675415">
        <ele>144.81999999999999</ele>
        <time>2016-12-18T09:08:39Z</time>
      </trkpt>
      <trkpt lat="51.886726459488273" lon="39.544845689088106">
        <ele>144.81999999999999</ele>
        <time>2016-12-18T09:08:40Z</time>
      </trkpt>
      <trkpt lat="51.886738194152713" lon="39.54478433355689">
        <ele>144.81999999999999</ele>
        <time>2016-12-18T09:08:41Z</time>
      </trkpt>
      <trkpt lat="51.88675026409328" lon="39.544719709083438">
        <ele>145.30000000000001</ele>
        <time>2016-12-18T09:08:42Z</time>
      </trkpt>
      <trkpt lat="51.886761663481593" lon="39.544656509533525">
        <ele>145.30000000000001</ele>
        <time>2016-12-18T09:08:43Z</time>
      </trkpt>
      <trkpt lat="51.886775409802794" lon="39.544588448479772">
        <ele>145.30000000000001</ele>
        <time>2016-12-18T09:08:44Z</time>
      </trkpt>
      <trkpt lat="51.886919578537345" lon="39.543905323371291">
        <ele>145.30000000000001</ele>
        <time>2016-12-18T09:08:55Z</time>
      </trkpt>
      <trkpt lat="51.886990824714303" lon="39.543501734733582">
        <ele>146.74000000000001</ele>
        <time>2016-12-18T09:09:01Z</time>
      </trkpt>
      <trkpt lat="51.887003900483251" lon="39.543440379202366">
        <ele>147.22</ele>
        <time>2016-12-18T09:09:02Z</time>
      </trkpt>
      <trkpt lat="51.887106075882912" lon="39.54286789521575">
        <ele>144.81999999999999</ele>
        <time>2016-12-18T09:09:11Z</time>
      </trkpt>
      <trkpt lat="51.887127114459872" lon="39.542796732857823">
        <ele>144.34</ele>
        <time>2016-12-18T09:09:12Z</time>
      </trkpt>
      <trkpt lat="51.887154774740338" lon="39.542727414518595">
        <ele>143.84999999999999</ele>
        <time>2016-12-18T09:09:13Z</time>
      </trkpt>
      <trkpt lat="51.887186039239168" lon="39.542665975168347">
        <ele>143.37</ele>
        <time>2016-12-18T09:09:14Z</time>
      </trkpt>
      <trkpt lat="51.887222416698933" lon="39.54260210506618">
        <ele>143.37</ele>
        <time>2016-12-18T09:09:15Z</time>
      </trkpt>
      <trkpt lat="51.887307241559029" lon="39.542415104806423">
        <ele>142.88999999999999</ele>
        <time>2016-12-18T09:09:18Z</time>
      </trkpt>
      <trkpt lat="51.887322999536991" lon="39.542350815609097">
        <ele>142.88999999999999</ele>
        <time>2016-12-18T09:09:19Z</time>
      </trkpt>
      <trkpt lat="51.887332974001765" lon="39.542285101488233">
        <ele>143.37</ele>
        <time>2016-12-18T09:09:20Z</time>
      </trkpt>
      <trkpt lat="51.887336829677224" lon="39.542221901938319">
        <ele>143.37</ele>
        <time>2016-12-18T09:09:21Z</time>
      </trkpt>
      <trkpt lat="51.887339511886239" lon="39.542154176160693">
        <ele>143.37</ele>
        <time>2016-12-18T09:09:22Z</time>
      </trkpt>
      <trkpt lat="51.887333476915956" lon="39.541808338835835">
        <ele>143.37</ele>
        <time>2016-12-18T09:09:27Z</time>
      </trkpt>
      <trkpt lat="51.887337751686573" lon="39.541727788746357">
        <ele>142.88999999999999</ele>
        <time>2016-12-18T09:09:28Z</time>
      </trkpt>
      <trkpt lat="51.887345546856523" lon="39.541661236435175">
        <ele>142.88999999999999</ele>
        <time>2016-12-18T09:09:29Z</time>
      </trkpt>
      <trkpt lat="51.887357784435153" lon="39.541596276685596">
        <ele>142.41</ele>
        <time>2016-12-18T09:09:30Z</time>
      </trkpt>
      <trkpt lat="51.887374045327306" lon="39.541526036337018">
        <ele>142.41</ele>
        <time>2016-12-18T09:09:31Z</time>
      </trkpt>
      <trkpt lat="51.887409165501595" lon="39.541409276425838">
        <ele>142.41</ele>
        <time>2016-12-18T09:09:33Z</time>
      </trkpt>
      <trkpt lat="51.887493319809437" lon="39.541144659742713">
        <ele>140.97</ele>
        <time>2016-12-18T09:09:37Z</time>
      </trkpt>
      <trkpt lat="51.887503964826465" lon="39.541072407737374">
        <ele>140.97</ele>
        <time>2016-12-18T09:09:38Z</time>
      </trkpt>
      <trkpt lat="51.887553166598082" lon="39.540568487718701">
        <ele>140.97</ele>
        <time>2016-12-18T09:09:45Z</time>
      </trkpt>
      <trkpt lat="51.887564063072205" lon="39.540500175207853">
        <ele>140.97</ele>
        <time>2016-12-18T09:09:46Z</time>
      </trkpt>
      <trkpt lat="51.887689288705587" lon="39.539762986823916">
        <ele>140.97</ele>
        <time>2016-12-18T09:09:57Z</time>
      </trkpt>
      <trkpt lat="51.887739663943648" lon="39.539436344057322">
        <ele>141.44999999999999</ele>
        <time>2016-12-18T09:10:02Z</time>
      </trkpt>
      <trkpt lat="51.887764306738973" lon="39.539172984659672">
        <ele>141.44999999999999</ele>
        <time>2016-12-18T09:10:06Z</time>
      </trkpt>
      <trkpt lat="51.887783920392394" lon="39.539112634956837">
        <ele>141.44999999999999</ele>
        <time>2016-12-18T09:10:07Z</time>
      </trkpt>
      <trkpt lat="51.887807976454496" lon="39.53906636685133">
        <ele>141.44999999999999</ele>
        <time>2016-12-18T09:10:08Z</time>
      </trkpt>
      <trkpt lat="51.887835469096899" lon="39.539027139544487">
        <ele>141.93000000000001</ele>
        <time>2016-12-18T09:10:09Z</time>
      </trkpt>
      <trkpt lat="51.887867823243141" lon="39.538989253342152">
        <ele>141.93000000000001</ele>
        <time>2016-12-18T09:10:10Z</time>
      </trkpt>
      <trkpt lat="51.887898333370686" lon="39.538952708244324">
        <ele>141.93000000000001</ele>
        <time>2016-12-18T09:10:11Z</time>
      </trkpt>
      <trkpt lat="51.887929681688547" lon="39.538911050185561">
        <ele>141.93000000000001</ele>
        <time>2016-12-18T09:10:12Z</time>
      </trkpt>
      <trkpt lat="51.887960694730282" lon="39.538862770423293">
        <ele>141.93000000000001</ele>
        <time>2016-12-18T09:10:13Z</time>
      </trkpt>
      <trkpt lat="51.887990785762668" lon="39.538803091272712">
        <ele>141.93000000000001</ele>
        <time>2016-12-18T09:10:14Z</time>
      </trkpt>
      <trkpt lat="51.888011489063501" lon="39.538738466799259">
        <ele>141.44999999999999</ele>
        <time>2016-12-18T09:10:15Z</time>
      </trkpt>
      <trkpt lat="51.888024061918259" lon="39.538669567555189">
        <ele>141.44999999999999</ele>
        <time>2016-12-18T09:10:16Z</time>
      </trkpt>
      <trkpt lat="51.888031521812081" lon="39.5386051107198">
        <ele>141.44999999999999</ele>
        <time>2016-12-18T09:10:17Z</time>
      </trkpt>
      <trkpt lat="51.888073431327939" lon="39.538185345008969">
        <ele>140.97</ele>
        <time>2016-12-18T09:10:23Z</time>
      </trkpt>
      <trkpt lat="51.888083405792713" lon="39.538119295611978">
        <ele>140.97</ele>
        <time>2016-12-18T09:10:24Z</time>
      </trkpt>
      <trkpt lat="51.888144761323929" lon="39.537778152152896">
        <ele>140.00999999999999</ele>
        <time>2016-12-18T09:10:29Z</time>
      </trkpt>
      <trkpt lat="51.888154903426766" lon="39.537709839642048">
        <ele>140.00999999999999</ele>
        <time>2016-12-18T09:10:30Z</time>
      </trkpt>
      <trkpt lat="51.888300497084856" lon="39.536912217736244">
        <ele>137.61000000000001</ele>
        <time>2016-12-18T09:10:42Z</time>
      </trkpt>
      <trkpt lat="51.888431925326586" lon="39.536182824522257">
        <ele>138.09</ele>
        <time>2016-12-18T09:10:53Z</time>
      </trkpt>
      <trkpt lat="51.88861632719636" lon="39.535336252301931">
        <ele>140.00999999999999</ele>
        <time>2016-12-18T09:11:07Z</time>
      </trkpt>
      <trkpt lat="51.888849847018719" lon="39.534578444436193">
        <ele>140.00999999999999</ele>
        <time>2016-12-18T09:11:20Z</time>
      </trkpt>
      <trkpt lat="51.888995692133904" lon="39.533748216927052">
        <ele>140.97</ele>
        <time>2016-12-18T09:11:33Z</time>
      </trkpt>
      <trkpt lat="51.888735517859459" lon="39.53349407762289">
        <ele>143.37</ele>
        <time>2016-12-18T09:11:43Z</time>
      </trkpt>
      <trkpt lat="51.888338215649128" lon="39.533383939415216">
        <ele>144.34</ele>
        <time>2016-12-18T09:11:56Z</time>
      </trkpt>
      <trkpt lat="51.888019368052483" lon="39.533616285771132">
        <ele>145.78</ele>
        <time>2016-12-18T09:12:08Z</time>
      </trkpt>
      <trkpt lat="51.887741005048156" lon="39.533291654661298">
        <ele>143.37</ele>
        <time>2016-12-18T09:12:19Z</time>
      </trkpt>
      <trkpt lat="51.887541599571705" lon="39.533015387132764">
        <ele>142.88999999999999</ele>
        <time>2016-12-18T09:12:25Z</time>
      </trkpt>
      <trkpt lat="51.887292237952352" lon="39.532844563946128">
        <ele>142.88999999999999</ele>
        <time>2016-12-18T09:12:34Z</time>
      </trkpt>
      <trkpt lat="51.887184446677566" lon="39.532791338860989">
        <ele>142.41</ele>
        <time>2016-12-18T09:12:56Z</time>
      </trkpt>
      <trkpt lat="51.886574579402804" lon="39.532492188736796">
        <ele>141.44999999999999</ele>
        <time>2016-12-18T09:13:10Z</time>
      </trkpt>
      <trkpt lat="51.886062612757087" lon="39.532220531255007">
        <ele>144.34</ele>
        <time>2016-12-18T09:13:23Z</time>
      </trkpt>
      <trkpt lat="51.885365657508373" lon="39.531848542392254">
        <ele>140.97</ele>
        <time>2016-12-18T09:13:37Z</time>
      </trkpt>
      <trkpt lat="51.885344032198191" lon="39.531844099983573">
        <ele>140.49000000000001</ele>
        <time>2016-12-18T09:13:45Z</time>
      </trkpt>
      <trkpt lat="51.885343864560127" lon="39.531855331733823">
        <ele>141.44999999999999</ele>
        <time>2016-12-18T09:14:25Z</time>
      </trkpt>
      <trkpt lat="51.885300278663635" lon="39.531815182417631">
        <ele>141.44999999999999</ele>
        <time>2016-12-18T09:14:52Z</time>
      </trkpt>
      <trkpt lat="51.885101376101375" lon="39.531692387536168">
        <ele>140.97</ele>
        <time>2016-12-18T09:15:05Z</time>
      </trkpt>
      <trkpt lat="51.884383382275701" lon="39.53134797513485">
        <ele>140.49000000000001</ele>
        <time>2016-12-18T09:15:21Z</time>
      </trkpt>
      <trkpt lat="51.88377795740962" lon="39.531052177771926">
        <ele>141.44999999999999</ele>
        <time>2016-12-18T09:15:36Z</time>
      </trkpt>
      <trkpt lat="51.882948316633701" lon="39.530660323798656">
        <ele>140.00999999999999</ele>
        <time>2016-12-18T09:15:55Z</time>
      </trkpt>
      <trkpt lat="51.882150694727898" lon="39.530258579179645">
        <ele>136.63999999999999</ele>
        <time>2016-12-18T09:16:11Z</time>
      </trkpt>
      <trkpt lat="51.881726821884513" lon="39.530023466795683">
        <ele>135.68000000000001</ele>
        <time>2016-12-18T09:16:20Z</time>
      </trkpt>
      <trkpt lat="51.88168122433126" lon="39.530001422390342">
        <ele>135.68000000000001</ele>
        <time>2016-12-18T09:16:21Z</time>
      </trkpt>
      <trkpt lat="51.881633698940277" lon="39.529988430440426">
        <ele>135.68000000000001</ele>
        <time>2016-12-18T09:16:22Z</time>
      </trkpt>
      <trkpt lat="51.881587263196707" lon="39.529981892555952">
        <ele>135.68000000000001</ele>
        <time>2016-12-18T09:16:23Z</time>
      </trkpt>
      <trkpt lat="51.881537642329931" lon="39.529979545623064">
        <ele>135.68000000000001</ele>
        <time>2016-12-18T09:16:24Z</time>
      </trkpt>
      <trkpt lat="51.881315438076854" lon="39.529898408800364">
        <ele>137.61000000000001</ele>
        <time>2016-12-18T09:16:32Z</time>
      </trkpt>
      <trkpt lat="51.881310828030109" lon="39.529902515932918">
        <ele>138.09</ele>
        <time>2016-12-18T09:17:00Z</time>
      </trkpt>
      <trkpt lat="51.881315689533949" lon="39.52988700941205">
        <ele>137.13</ele>
        <time>2016-12-18T09:17:39Z</time>
      </trkpt>
      <trkpt lat="51.88130596652627" lon="39.52990360558033">
        <ele>136.16</ele>
        <time>2016-12-18T09:18:17Z</time>
      </trkpt>
      <trkpt lat="51.881216447800398" lon="39.529862450435758">
        <ele>137.13</ele>
        <time>2016-12-18T09:18:39Z</time>
      </trkpt>
      <trkpt lat="51.880651256069541" lon="39.529532203450799">
        <ele>134.24000000000001</ele>
        <time>2016-12-18T09:18:57Z</time>
      </trkpt>
      <trkpt lat="51.880350094288588" lon="39.529145462438464">
        <ele>133.75999999999999</ele>
        <time>2016-12-18T09:19:09Z</time>
      </trkpt>
      <trkpt lat="51.880083968862891" lon="39.529222659766674">
        <ele>134.24000000000001</ele>
        <time>2016-12-18T09:19:18Z</time>
      </trkpt>
      <trkpt lat="51.879617096856236" lon="39.529072036966681">
        <ele>136.16</ele>
        <time>2016-12-18T09:19:32Z</time>
      </trkpt>
      <trkpt lat="51.879065316170454" lon="39.528902638703585">
        <ele>135.19999999999999</ele>
        <time>2016-12-18T09:19:47Z</time>
      </trkpt>
      <trkpt lat="51.878344053402543" lon="39.528658809140325">
        <ele>133.28</ele>
        <time>2016-12-18T09:20:06Z</time>
      </trkpt>
      <trkpt lat="51.87773016281426" lon="39.528308697044849">
        <ele>133.28</ele>
        <time>2016-12-18T09:20:24Z</time>
      </trkpt>
      <trkpt lat="51.876932876184583" lon="39.527957746759057">
        <ele>130.40000000000001</ele>
        <time>2016-12-18T09:20:44Z</time>
      </trkpt>
      <trkpt lat="51.876246565952897" lon="39.527610819786787">
        <ele>128.94999999999999</ele>
        <time>2016-12-18T09:21:01Z</time>
      </trkpt>
      <trkpt lat="51.875673914328218" lon="39.527318961918354">
        <ele>128.94999999999999</ele>
        <time>2016-12-18T09:21:17Z</time>
      </trkpt>
      <trkpt lat="51.875165887176991" lon="39.526799032464623">
        <ele>127.98999999999999</ele>
        <time>2016-12-18T09:21:35Z</time>
      </trkpt>
      <trkpt lat="51.874545626342297" lon="39.526373483240604">
        <ele>124.63</ele>
        <time>2016-12-18T09:21:50Z</time>
      </trkpt>
      <trkpt lat="51.873978422954679" lon="39.526128228753805">
        <ele>125.11</ele>
        <time>2016-12-18T09:22:05Z</time>
      </trkpt>
      <trkpt lat="51.873395126312971" lon="39.525835197418928">
        <ele>125.11</ele>
        <time>2016-12-18T09:22:21Z</time>
      </trkpt>
      <trkpt lat="51.872850218787789" lon="39.525557504966855">
        <ele>125.11</ele>
        <time>2016-12-18T09:22:37Z</time>
      </trkpt>
      <trkpt lat="51.872211517766118" lon="39.525221390649676">
        <ele>126.06999999999999</ele>
        <time>2016-12-18T09:22:56Z</time>
      </trkpt>
      <trkpt lat="51.87158664688468" lon="39.524939591065049">
        <ele>125.59</ele>
        <time>2016-12-18T09:23:14Z</time>
      </trkpt>
      <trkpt lat="51.871008211746812" lon="39.524636920541525">
        <ele>125.59</ele>
        <time>2016-12-18T09:23:30Z</time>
      </trkpt>
      <trkpt lat="51.870493646711111" lon="39.524367777630687">
        <ele>125.11</ele>
        <time>2016-12-18T09:23:44Z</time>
      </trkpt>
      <trkpt lat="51.870020404458046" lon="39.524126462638378">
        <ele>125.11</ele>
        <time>2016-12-18T09:23:57Z</time>
      </trkpt>
      <trkpt lat="51.869336944073439" lon="39.523821445181966">
        <ele>124.63</ele>
        <time>2016-12-18T09:24:14Z</time>
      </trkpt>
      <trkpt lat="51.868607718497515" lon="39.523703595623374">
        <ele>123.67</ele>
        <time>2016-12-18T09:24:31Z</time>
      </trkpt>
      <trkpt lat="51.868017129600048" lon="39.523471584543586">
        <ele>122.70999999999999</ele>
        <time>2016-12-18T09:24:44Z</time>
      </trkpt>
      <trkpt lat="51.867367280647159" lon="39.523228593170643">
        <ele>122.22</ele>
        <time>2016-12-18T09:24:59Z</time>
      </trkpt>
      <trkpt lat="51.866891104727983" lon="39.522883426398039">
        <ele>123.19</ele>
        <time>2016-12-18T09:25:12Z</time>
      </trkpt>
      <trkpt lat="51.866583991795778" lon="39.522393504157662">
        <ele>123.67</ele>
        <time>2016-12-18T09:25:23Z</time>
      </trkpt>
      <trkpt lat="51.866073617711663" lon="39.522155793383718">
        <ele>124.63</ele>
        <time>2016-12-18T09:25:38Z</time>
      </trkpt>
      <trkpt lat="51.865472886711359" lon="39.521896708756685">
        <ele>124.63</ele>
        <time>2016-12-18T09:25:54Z</time>
      </trkpt>
      <trkpt lat="51.864694459363818" lon="39.521540310233831">
        <ele>125.11</ele>
        <time>2016-12-18T09:26:13Z</time>
      </trkpt>
      <trkpt lat="51.864129770547152" lon="39.521297318860888">
        <ele>124.63</ele>
        <time>2016-12-18T09:26:28Z</time>
      </trkpt>
      <trkpt lat="51.863508252426982" lon="39.521039910614491">
        <ele>124.63</ele>
        <time>2016-12-18T09:26:44Z</time>
      </trkpt>
      <trkpt lat="51.862798975780606" lon="39.520707987248898">
        <ele>127.03</ele>
        <time>2016-12-18T09:27:02Z</time>
      </trkpt>
      <trkpt lat="51.862236633896828" lon="39.520339518785477">
        <ele>128.47</ele>
        <time>2016-12-18T09:27:18Z</time>
      </trkpt>
      <trkpt lat="51.861621402204037" lon="39.519939785823226">
        <ele>129.43000000000001</ele>
        <time>2016-12-18T09:27:36Z</time>
      </trkpt>
      <trkpt lat="51.860814644023776" lon="39.519529072567821">
        <ele>131.36000000000001</ele>
        <time>2016-12-18T09:27:59Z</time>
      </trkpt>
      <trkpt lat="51.860141074284911" lon="39.519195053726435">
        <ele>133.28</ele>
        <time>2016-12-18T09:28:18Z</time>
      </trkpt>
      <trkpt lat="51.859370693564415" lon="39.518899256363511">
        <ele>135.68000000000001</ele>
        <time>2016-12-18T09:28:39Z</time>
      </trkpt>
      <trkpt lat="51.858766609802842" lon="39.518615361303091">
        <ele>136.63999999999999</ele>
        <time>2016-12-18T09:28:56Z</time>
      </trkpt>
      <trkpt lat="51.858138805255294" lon="39.518291987478733">
        <ele>135.68000000000001</ele>
        <time>2016-12-18T09:29:13Z</time>
      </trkpt>
      <trkpt lat="51.857476551085711" lon="39.517938354983926">
        <ele>136.63999999999999</ele>
        <time>2016-12-18T09:29:29Z</time>
      </trkpt>
      <trkpt lat="51.856752773746848" lon="39.517529234290123">
        <ele>137.61000000000001</ele>
        <time>2016-12-18T09:29:47Z</time>
      </trkpt>
      <trkpt lat="51.856153467670083" lon="39.517232934013009">
        <ele>137.13</ele>
        <time>2016-12-18T09:30:03Z</time>
      </trkpt>
      <trkpt lat="51.855474784970284" lon="39.51687335036695">
        <ele>137.13</ele>
        <time>2016-12-18T09:30:21Z</time>
      </trkpt>
      <trkpt lat="51.854795934632421" lon="39.516557604074478">
        <ele>139.05000000000001</ele>
        <time>2016-12-18T09:30:40Z</time>
      </trkpt>
      <trkpt lat="51.854220516979694" lon="39.516227608546615">
        <ele>137.13</ele>
        <time>2016-12-18T09:30:52Z</time>
      </trkpt>
      <trkpt lat="51.853515179827809" lon="39.51588923111558">
        <ele>137.13</ele>
        <time>2016-12-18T09:31:09Z</time>
      </trkpt>
      <trkpt lat="51.852917047217488" lon="39.515595780685544">
        <ele>138.56999999999999</ele>
        <time>2016-12-18T09:31:25Z</time>
      </trkpt>
      <trkpt lat="51.852292595431209" lon="39.515299312770367">
        <ele>137.61000000000001</ele>
        <time>2016-12-18T09:31:41Z</time>
      </trkpt>
      <trkpt lat="51.851865872740746" lon="39.515091190114617">
        <ele>139.05000000000001</ele>
        <time>2016-12-18T09:31:51Z</time>
      </trkpt>
      <trkpt lat="51.851195739582181" lon="39.514761362224817">
        <ele>139.53</ele>
        <time>2016-12-18T09:32:09Z</time>
      </trkpt>
      <trkpt lat="51.850483529269695" lon="39.514388870447874">
        <ele>139.53</ele>
        <time>2016-12-18T09:32:28Z</time>
      </trkpt>
      <trkpt lat="51.849976424127817" lon="39.514116961508989">
        <ele>140.00999999999999</ele>
        <time>2016-12-18T09:32:42Z</time>
      </trkpt>
      <trkpt lat="51.849295143038034" lon="39.51380817219615">
        <ele>139.53</ele>
        <time>2016-12-18T09:33:00Z</time>
      </trkpt>
      <trkpt lat="51.848659040406346" lon="39.513478931039572">
        <ele>139.05000000000001</ele>
        <time>2016-12-18T09:33:18Z</time>
      </trkpt>
      <trkpt lat="51.848146570846438" lon="39.513208447024226">
        <ele>139.53</ele>
        <time>2016-12-18T09:33:34Z</time>
      </trkpt>
      <trkpt lat="51.847678441554308" lon="39.512972831726074">
        <ele>139.05000000000001</ele>
        <time>2016-12-18T09:33:50Z</time>
      </trkpt>
      <trkpt lat="51.847438300028443" lon="39.512828662991524">
        <ele>139.53</ele>
        <time>2016-12-18T09:34:03Z</time>
      </trkpt>
      <trkpt lat="51.846847627311945" lon="39.512555412948132">
        <ele>140.00999999999999</ele>
        <time>2016-12-18T09:34:18Z</time>
      </trkpt>
      <trkpt lat="51.846300791949034" lon="39.512278055772185">
        <ele>141.93000000000001</ele>
        <time>2016-12-18T09:34:35Z</time>
      </trkpt>
      <trkpt lat="51.845752447843552" lon="39.511978235095739">
        <ele>140.00999999999999</ele>
        <time>2016-12-18T09:34:50Z</time>
      </trkpt>
      <trkpt lat="51.845197314396501" lon="39.511740859597921">
        <ele>139.53</ele>
        <time>2016-12-18T09:35:08Z</time>
      </trkpt>
      <trkpt lat="51.844768077135086" lon="39.511518571525812">
        <ele>140.00999999999999</ele>
        <time>2016-12-18T09:35:21Z</time>
      </trkpt>
      <trkpt lat="51.84414722956717" lon="39.511236269026995">
        <ele>140.49000000000001</ele>
        <time>2016-12-18T09:35:39Z</time>
      </trkpt>
      <trkpt lat="51.843559239059687" lon="39.510954972356558">
        <ele>140.00999999999999</ele>
        <time>2016-12-18T09:35:56Z</time>
      </trkpt>
      <trkpt lat="51.843051044270396" lon="39.510728158056736">
        <ele>140.49000000000001</ele>
        <time>2016-12-18T09:36:14Z</time>
      </trkpt>
      <trkpt lat="51.842958172783256" lon="39.510686919093132">
        <ele>140.97</ele>
        <time>2016-12-18T09:36:26Z</time>
      </trkpt>
      <trkpt lat="51.842942330986261" lon="39.510682225227356">
        <ele>140.00999999999999</ele>
        <time>2016-12-18T09:36:42Z</time>
      </trkpt>
      <trkpt lat="51.842934619635344" lon="39.51067266985774">
        <ele>140.49000000000001</ele>
        <time>2016-12-18T09:36:59Z</time>
      </trkpt>
      <trkpt lat="51.842946689575911" lon="39.510668898001313">
        <ele>142.41</ele>
        <time>2016-12-18T09:37:38Z</time>
      </trkpt>
      <trkpt lat="51.842942498624325" lon="39.510680045932531">
        <ele>143.84999999999999</ele>
        <time>2016-12-18T09:38:18Z</time>
      </trkpt>
      <trkpt lat="51.842941828072071" lon="39.510683482512832">
        <ele>141.44999999999999</ele>
        <time>2016-12-18T09:38:59Z</time>
      </trkpt>
      <trkpt lat="51.842962699010968" lon="39.510676274076104">
        <ele>139.05000000000001</ele>
        <time>2016-12-18T09:39:39Z</time>
      </trkpt>
      <trkpt lat="51.84292221441865" lon="39.510687086731195">
        <ele>136.63999999999999</ele>
        <time>2016-12-18T09:40:13Z</time>
      </trkpt>
      <trkpt lat="51.842935457825661" lon="39.510680548846722">
        <ele>140.49000000000001</ele>
        <time>2016-12-18T09:40:41Z</time>
      </trkpt>
      <trkpt lat="51.842925818637013" lon="39.510662527754903">
        <ele>141.44999999999999</ele>
        <time>2016-12-18T09:41:13Z</time>
      </trkpt>
      <trkpt lat="51.842935457825661" lon="39.510675435885787">
        <ele>140.97</ele>
        <time>2016-12-18T09:41:47Z</time>
      </trkpt>
      <trkpt lat="51.842926489189267" lon="39.510692367330194">
        <ele>142.41</ele>
        <time>2016-12-18T09:42:14Z</time>
      </trkpt>
      <trkpt lat="51.84292808175087" lon="39.510672753676772">
        <ele>140.97</ele>
        <time>2016-12-18T09:42:55Z</time>
      </trkpt>
      <trkpt lat="51.842925986275077" lon="39.510654816403985">
        <ele>140.97</ele>
        <time>2016-12-18T09:43:28Z</time>
      </trkpt>
      <trkpt lat="51.842928752303123" lon="39.510655151680112">
        <ele>141.93000000000001</ele>
        <time>2016-12-18T09:43:57Z</time>
      </trkpt>
      <trkpt lat="51.842936715111136" lon="39.510648027062416">
        <ele>140.00999999999999</ele>
        <time>2016-12-18T09:44:15Z</time>
      </trkpt>
      <trkpt lat="51.842927243560553" lon="39.510622294619679">
        <ele>140.00999999999999</ele>
        <time>2016-12-18T09:44:25Z</time>
      </trkpt>
      <trkpt lat="51.843008128926158" lon="39.510132623836398">
        <ele>139.05000000000001</ele>
        <time>2016-12-18T09:44:37Z</time>
      </trkpt>
      <trkpt lat="51.84303411282599" lon="39.510000189766288">
        <ele>139.05000000000001</ele>
        <time>2016-12-18T09:44:39Z</time>
      </trkpt>
      <trkpt lat="51.843046098947525" lon="39.509927183389664">
        <ele>139.05000000000001</ele>
        <time>2016-12-18T09:44:40Z</time>
      </trkpt>
      <trkpt lat="51.843061521649361" lon="39.509859206154943">
        <ele>139.05000000000001</ele>
        <time>2016-12-18T09:44:41Z</time>
      </trkpt>
      <trkpt lat="51.843081135302782" lon="39.509791983291507">
        <ele>138.56999999999999</ele>
        <time>2016-12-18T09:44:42Z</time>
      </trkpt>
      <trkpt lat="51.843105023726821" lon="39.509730963036418">
        <ele>138.56999999999999</ele>
        <time>2016-12-18T09:44:43Z</time>
      </trkpt>
      <trkpt lat="51.843129750341177" lon="39.50967631302774">
        <ele>138.09</ele>
        <time>2016-12-18T09:44:44Z</time>
      </trkpt>
      <trkpt lat="51.843301746994257" lon="39.508993690833449">
        <ele>137.13</ele>
        <time>2016-12-18T09:44:56Z</time>
      </trkpt>
      <trkpt lat="51.843338375911117" lon="39.508813815191388">
        <ele>137.13</ele>
        <time>2016-12-18T09:44:59Z</time>
      </trkpt>
      <trkpt lat="51.843364611268044" lon="39.508677776902914">
        <ele>136.63999999999999</ele>
        <time>2016-12-18T09:45:01Z</time>
      </trkpt>
      <trkpt lat="51.84339378029108" lon="39.508548360317945">
        <ele>136.63999999999999</ele>
        <time>2016-12-18T09:45:03Z</time>
      </trkpt>
      <trkpt lat="51.843483718112111" lon="39.507993813604116">
        <ele>136.63999999999999</ele>
        <time>2016-12-18T09:45:11Z</time>
      </trkpt>
      <trkpt lat="51.843515485525131" lon="39.507858278229833">
        <ele>136.63999999999999</ele>
        <time>2016-12-18T09:45:13Z</time>
      </trkpt>
      <trkpt lat="51.843530740588903" lon="39.50778242200613">
        <ele>136.63999999999999</ele>
        <time>2016-12-18T09:45:14Z</time>
      </trkpt>
      <trkpt lat="51.843550438061357" lon="39.507700698450208">
        <ele>136.16</ele>
        <time>2016-12-18T09:45:15Z</time>
      </trkpt>
      <trkpt lat="51.843784209340811" lon="39.506523124873638">
        <ele>134.72</ele>
        <time>2016-12-18T09:45:27Z</time>
      </trkpt>
      <trkpt lat="51.844009682536125" lon="39.505347227677703">
        <ele>135.19999999999999</ele>
        <time>2016-12-18T09:45:39Z</time>
      </trkpt>
      <trkpt lat="51.844064248725772" lon="39.505054112523794">
        <ele>135.68000000000001</ele>
        <time>2016-12-18T09:45:42Z</time>
      </trkpt>
      <trkpt lat="51.844229539856315" lon="39.50410695746541">
        <ele>136.16</ele>
        <time>2016-12-18T09:45:52Z</time>
      </trkpt>
      <trkpt lat="51.844358369708061" lon="39.50334663502872">
        <ele>136.16</ele>
        <time>2016-12-18T09:46:00Z</time>
      </trkpt>
      <trkpt lat="51.844578897580504" lon="39.502181718125939">
        <ele>135.19999999999999</ele>
        <time>2016-12-18T09:46:12Z</time>
      </trkpt>
      <trkpt lat="51.844771429896355" lon="39.501174129545689">
        <ele>134.72</ele>
        <time>2016-12-18T09:46:23Z</time>
      </trkpt>
      <trkpt lat="51.845025653019547" lon="39.499798072502017">
        <ele>134.72</ele>
        <time>2016-12-18T09:46:38Z</time>
      </trkpt>
      <trkpt lat="51.845245594158769" lon="39.498662073165178">
        <ele>134.72</ele>
        <time>2016-12-18T09:46:50Z</time>
      </trkpt>
      <trkpt lat="51.845478527247906" lon="39.497374277561903">
        <ele>134.72</ele>
        <time>2016-12-18T09:47:04Z</time>
      </trkpt>
      <trkpt lat="51.84561213478446" lon="39.496739516034722">
        <ele>134.72</ele>
        <time>2016-12-18T09:47:12Z</time>
      </trkpt>
      <trkpt lat="51.845808606594801" lon="39.495679875835776">
        <ele>134.72</ele>
        <time>2016-12-18T09:47:24Z</time>
      </trkpt>
      <trkpt lat="51.846031229943037" lon="39.49456156231463">
        <ele>133.75999999999999</ele>
        <time>2016-12-18T09:47:37Z</time>
      </trkpt>
      <trkpt lat="51.846231641247869" lon="39.493514914065599">
        <ele>132.80000000000001</ele>
        <time>2016-12-18T09:47:49Z</time>
      </trkpt>
      <trkpt lat="51.846318561583757" lon="39.493018034845591">
        <ele>132.31999999999999</ele>
        <time>2016-12-18T09:47:55Z</time>
      </trkpt>
      <trkpt lat="51.84652685187757" lon="39.492048164829612">
        <ele>130.40000000000001</ele>
        <time>2016-12-18T09:48:07Z</time>
      </trkpt>
      <trkpt lat="51.846717791631818" lon="39.490951476618648">
        <ele>130.40000000000001</ele>
        <time>2016-12-18T09:48:20Z</time>
      </trkpt>
      <trkpt lat="51.846923902630806" lon="39.4898521900177">
        <ele>131.36000000000001</ele>
        <time>2016-12-18T09:48:33Z</time>
      </trkpt>
      <trkpt lat="51.846977127715945" lon="39.48952286504209">
        <ele>131.36000000000001</ele>
        <time>2016-12-18T09:48:37Z</time>
      </trkpt>
      <trkpt lat="51.847140742465854" lon="39.488766985014081">
        <ele>130.40000000000001</ele>
        <time>2016-12-18T09:48:46Z</time>
      </trkpt>
      <trkpt lat="51.847152141854167" lon="39.488680232316256">
        <ele>130.40000000000001</ele>
        <time>2016-12-18T09:48:47Z</time>
      </trkpt>
      <trkpt lat="51.847269404679537" lon="39.488116633147001">
        <ele>130.40000000000001</ele>
        <time>2016-12-18T09:48:54Z</time>
      </trkpt>
      <trkpt lat="51.847314666956663" lon="39.487795690074563">
        <ele>130.40000000000001</ele>
        <time>2016-12-18T09:48:58Z</time>
      </trkpt>
      <trkpt lat="51.847333190962672" lon="39.487720169126987">
        <ele>130.40000000000001</ele>
        <time>2016-12-18T09:48:59Z</time>
      </trkpt>
      <trkpt lat="51.847374262288213" lon="39.487560912966728">
        <ele>129.91999999999999</ele>
        <time>2016-12-18T09:49:01Z</time>
      </trkpt>
      <trkpt lat="51.847576601430774" lon="39.486408988013864">
        <ele>131.84</ele>
        <time>2016-12-18T09:49:15Z</time>
      </trkpt>
      <trkpt lat="51.847799057140946" lon="39.485238790512085">
        <ele>132.31999999999999</ele>
        <time>2016-12-18T09:49:28Z</time>
      </trkpt>
      <trkpt lat="51.84797222726047" lon="39.484307812526822">
        <ele>131.84</ele>
        <time>2016-12-18T09:49:40Z</time>
      </trkpt>
      <trkpt lat="51.848166016861796" lon="39.48322931304574">
        <ele>130.40000000000001</ele>
        <time>2016-12-18T09:49:52Z</time>
      </trkpt>
      <trkpt lat="51.848269030451775" lon="39.482767805457115">
        <ele>130.40000000000001</ele>
        <time>2016-12-18T09:49:57Z</time>
      </trkpt>
      <trkpt lat="51.848389813676476" lon="39.481985438615084">
        <ele>130.40000000000001</ele>
        <time>2016-12-18T09:50:06Z</time>
      </trkpt>
      <trkpt lat="51.848410600796342" lon="39.481895081698895">
        <ele>129.91999999999999</ele>
        <time>2016-12-18T09:50:07Z</time>
      </trkpt>
      <trkpt lat="51.848468519747257" lon="39.481649324297905">
        <ele>129.43000000000001</ele>
        <time>2016-12-18T09:50:10Z</time>
      </trkpt>
      <trkpt lat="51.848479164764285" lon="39.481565589085221">
        <ele>128.94999999999999</ele>
        <time>2016-12-18T09:50:11Z</time>
      </trkpt>
      <trkpt lat="51.848498107865453" lon="39.481423432007432">
        <ele>128.94999999999999</ele>
        <time>2016-12-18T09:50:13Z</time>
      </trkpt>
      <trkpt lat="51.848519649356604" lon="39.481362411752343">
        <ele>128.94999999999999</ele>
        <time>2016-12-18T09:50:14Z</time>
      </trkpt>
      <trkpt lat="51.848554853349924" lon="39.481312623247504">
        <ele>128.94999999999999</ele>
        <time>2016-12-18T09:50:15Z</time>
      </trkpt>
      <trkpt lat="51.848592823371291" lon="39.481290327385068">
        <ele>128.94999999999999</ele>
        <time>2016-12-18T09:50:16Z</time>
      </trkpt>
      <trkpt lat="51.848635990172625" lon="39.481285214424133">
        <ele>128.94999999999999</ele>
        <time>2016-12-18T09:50:17Z</time>
      </trkpt>
      <trkpt lat="51.848685778677464" lon="39.481291584670544">
        <ele>128.47</ele>
        <time>2016-12-18T09:50:18Z</time>
      </trkpt>
      <trkpt lat="51.848742859438062" lon="39.481312707066536">
        <ele>127.98999999999999</ele>
        <time>2016-12-18T09:50:19Z</time>
      </trkpt>
      <trkpt lat="51.84880337677896" lon="39.481341959908605">
        <ele>127.98999999999999</ele>
        <time>2016-12-18T09:50:20Z</time>
      </trkpt>
      <trkpt lat="51.849279804155231" lon="39.481614036485553">
        <ele>127.03</ele>
        <time>2016-12-18T09:50:29Z</time>
      </trkpt>
      <trkpt lat="51.849919511005282" lon="39.481888124719262">
        <ele>127.03</ele>
        <time>2016-12-18T09:50:40Z</time>
      </trkpt>
      <trkpt lat="51.850715037435293" lon="39.482306716963649">
        <ele>127.51000000000001</ele>
        <time>2016-12-18T09:50:54Z</time>
      </trkpt>
      <trkpt lat="51.851431019604206" lon="39.482656074687839">
        <ele>127.51000000000001</ele>
        <time>2016-12-18T09:51:07Z</time>
      </trkpt>
      <trkpt lat="51.851936867460608" lon="39.482829412445426">
        <ele>127.98999999999999</ele>
        <time>2016-12-18T09:51:18Z</time>
      </trkpt>
      <trkpt lat="51.852003168314695" lon="39.482424566522241">
        <ele>129.43000000000001</ele>
        <time>2016-12-18T09:51:26Z</time>
      </trkpt>
      <trkpt lat="51.851916583254933" lon="39.481683690100908">
        <ele>130.40000000000001</ele>
        <time>2016-12-18T09:51:37Z</time>
      </trkpt>
      <trkpt lat="51.851916164159775" lon="39.481614958494902">
        <ele>130.40000000000001</ele>
        <time>2016-12-18T09:51:38Z</time>
      </trkpt>
      <trkpt lat="51.851923456415534" lon="39.481476824730635">
        <ele>129.91999999999999</ele>
        <time>2016-12-18T09:51:40Z</time>
      </trkpt>
      <trkpt lat="51.851965533569455" lon="39.481198880821466">
        <ele>129.91999999999999</ele>
        <time>2016-12-18T09:51:44Z</time>
      </trkpt>
      <trkpt lat="51.852004593238235" lon="39.480980448424816">
        <ele>129.43000000000001</ele>
        <time>2016-12-18T09:51:47Z</time>
      </trkpt>
      <trkpt lat="51.852244734764099" lon="39.479985348880291">
        <ele>129.43000000000001</ele>
        <time>2016-12-18T09:52:00Z</time>
      </trkpt>
      <trkpt lat="51.852339114993811" lon="39.478963175788522">
        <ele>127.03</ele>
        <time>2016-12-18T09:52:13Z</time>
      </trkpt>
      <trkpt lat="51.852441290393472" lon="39.47780261747539">
        <ele>128.94999999999999</ele>
        <time>2016-12-18T09:52:26Z</time>
      </trkpt>
      <trkpt lat="51.85278276912868" lon="39.476675167679787">
        <ele>128.47</ele>
        <time>2016-12-18T09:52:41Z</time>
      </trkpt>
      <trkpt lat="51.853388780727983" lon="39.475373458117247">
        <ele>126.55</ele>
        <time>2016-12-18T09:52:59Z</time>
      </trkpt>
      <trkpt lat="51.853785999119282" lon="39.474302586168051">
        <ele>125.59</ele>
        <time>2016-12-18T09:53:12Z</time>
      </trkpt>
      <trkpt lat="51.85383964329958" lon="39.473193576559424">
        <ele>125.11</ele>
        <time>2016-12-18T09:53:24Z</time>
      </trkpt>
      <trkpt lat="51.853852048516273" lon="39.472263269126415">
        <ele>124.63</ele>
        <time>2016-12-18T09:53:34Z</time>
      </trkpt>
      <trkpt lat="51.853840481489897" lon="39.472080459818244">
        <ele>124.63</ele>
        <time>2016-12-18T09:53:36Z</time>
      </trkpt>
      <trkpt lat="51.853825645521283" lon="39.471992617473006">
        <ele>124.63</ele>
        <time>2016-12-18T09:53:37Z</time>
      </trkpt>
      <trkpt lat="51.853609057143331" lon="39.470752263441682">
        <ele>124.15000000000001</ele>
        <time>2016-12-18T09:53:51Z</time>
      </trkpt>
      <trkpt lat="51.853600507602096" lon="39.470575070008636">
        <ele>124.15000000000001</ele>
        <time>2016-12-18T09:53:53Z</time>
      </trkpt>
      <trkpt lat="51.85369455255568" lon="39.469369500875473">
        <ele>120.78</ele>
        <time>2016-12-18T09:54:07Z</time>
      </trkpt>
      <trkpt lat="51.853808211162686" lon="39.468078436329961">
        <ele>119.81999999999999</ele>
        <time>2016-12-18T09:54:21Z</time>
      </trkpt>
      <trkpt lat="51.853736881166697" lon="39.466765997931361">
        <ele>121.73999999999999</ele>
        <time>2016-12-18T09:54:36Z</time>
      </trkpt>
      <trkpt lat="51.85370335355401" lon="39.466191669926047">
        <ele>121.73999999999999</ele>
        <time>2016-12-18T09:54:43Z</time>
      </trkpt>
      <trkpt lat="51.853710561990738" lon="39.466106845065951">
        <ele>121.73999999999999</ele>
        <time>2016-12-18T09:54:44Z</time>
      </trkpt>
      <trkpt lat="51.853773007169366" lon="39.46548817679286">
        <ele>121.26000000000001</ele>
        <time>2016-12-18T09:54:51Z</time>
      </trkpt>
      <trkpt lat="51.853788513690233" lon="39.465403184294701">
        <ele>121.26000000000001</ele>
        <time>2016-12-18T09:54:52Z</time>
      </trkpt>
      <trkpt lat="51.853804271668196" lon="39.465318694710732">
        <ele>121.73999999999999</ele>
        <time>2016-12-18T09:54:53Z</time>
      </trkpt>
      <trkpt lat="51.853866968303919" lon="39.465070338919759">
        <ele>122.22</ele>
        <time>2016-12-18T09:54:56Z</time>
      </trkpt>
      <trkpt lat="51.853891024366021" lon="39.4649887830019">
        <ele>122.22</ele>
        <time>2016-12-18T09:54:57Z</time>
      </trkpt>
      <trkpt lat="51.854153042659163" lon="39.463747087866068">
        <ele>122.70999999999999</ele>
        <time>2016-12-18T09:55:12Z</time>
      </trkpt>
      <trkpt lat="51.854215823113918" lon="39.463225482031703">
        <ele>122.22</ele>
        <time>2016-12-18T09:55:18Z</time>
      </trkpt>
      <trkpt lat="51.854215236380696" lon="39.463132275268435">
        <ele>122.22</ele>
        <time>2016-12-18T09:55:19Z</time>
      </trkpt>
      <trkpt lat="51.854209788143635" lon="39.463044349104166">
        <ele>122.22</ele>
        <time>2016-12-18T09:55:20Z</time>
      </trkpt>
      <trkpt lat="51.854199646040797" lon="39.462953237816691">
        <ele>122.22</ele>
        <time>2016-12-18T09:55:21Z</time>
      </trkpt>
      <trkpt lat="51.854186654090881" lon="39.462867742404342">
        <ele>122.22</ele>
        <time>2016-12-18T09:55:22Z</time>
      </trkpt>
      <trkpt lat="51.853943578898907" lon="39.461564524099231">
        <ele>122.22</ele>
        <time>2016-12-18T09:55:37Z</time>
      </trkpt>
      <trkpt lat="51.853927569463849" lon="39.461480705067515">
        <ele>122.22</ele>
        <time>2016-12-18T09:55:38Z</time>
      </trkpt>
      <trkpt lat="51.853779628872871" lon="39.460482839494944">
        <ele>121.73999999999999</ele>
        <time>2016-12-18T09:55:49Z</time>
      </trkpt>
      <trkpt lat="51.853780969977379" lon="39.460395080968738">
        <ele>121.73999999999999</ele>
        <time>2016-12-18T09:55:50Z</time>
      </trkpt>
      <trkpt lat="51.853788429871202" lon="39.460304556414485">
        <ele>121.73999999999999</ele>
        <time>2016-12-18T09:55:51Z</time>
      </trkpt>
      <trkpt lat="51.853817598894238" lon="39.460142198950052">
        <ele>121.26000000000001</ele>
        <time>2016-12-18T09:55:53Z</time>
      </trkpt>
      <trkpt lat="51.853949362412095" lon="39.459514562040567">
        <ele>121.26000000000001</ele>
        <time>2016-12-18T09:56:01Z</time>
      </trkpt>
      <trkpt lat="51.854060003533959" lon="39.459116337820888">
        <ele>120.3</ele>
        <time>2016-12-18T09:56:06Z</time>
      </trkpt>
      <trkpt lat="51.854071570560336" lon="39.459043247625232">
        <ele>120.3</ele>
        <time>2016-12-18T09:56:07Z</time>
      </trkpt>
      <trkpt lat="51.854079030454159" lon="39.45896789431572">
        <ele>120.3</ele>
        <time>2016-12-18T09:56:08Z</time>
      </trkpt>
      <trkpt lat="51.854080203920603" lon="39.45889656431973">
        <ele>119.81999999999999</ele>
        <time>2016-12-18T09:56:09Z</time>
      </trkpt>
      <trkpt lat="51.854076599702239" lon="39.458831185474992">
        <ele>119.81999999999999</ele>
        <time>2016-12-18T09:56:10Z</time>
      </trkpt>
      <trkpt lat="51.8540717381984" lon="39.458766477182508">
        <ele>119.81999999999999</ele>
        <time>2016-12-18T09:56:11Z</time>
      </trkpt>
      <trkpt lat="51.854040306061506" lon="39.458460286259651">
        <ele>119.34</ele>
        <time>2016-12-18T09:56:21Z</time>
      </trkpt>
      <trkpt lat="51.853925222530961" lon="39.458306059241295">
        <ele>120.3</ele>
        <time>2016-12-18T10:30:46Z</time>
      </trkpt>
      <trkpt lat="51.853912398219109" lon="39.458232214674354">
        <ele>120.3</ele>
        <time>2016-12-18T10:30:55Z</time>
      </trkpt>
      <trkpt lat="51.853909213095903" lon="39.458220563828945">
        <ele>120.3</ele>
        <time>2016-12-18T10:30:56Z</time>
      </trkpt>
      <trkpt lat="51.853905944153666" lon="39.458200531080365">
        <ele>120.3</ele>
        <time>2016-12-18T10:30:57Z</time>
      </trkpt>
      <trkpt lat="51.853900495916605" lon="39.458170020952821">
        <ele>120.3</ele>
        <time>2016-12-18T10:30:58Z</time>
      </trkpt>
      <trkpt lat="51.853891778737307" lon="39.45813674479723">
        <ele>120.3</ele>
        <time>2016-12-18T10:30:59Z</time>
      </trkpt>
      <trkpt lat="51.853878451511264" lon="39.458093577995896">
        <ele>120.3</ele>
        <time>2016-12-18T10:31:00Z</time>
      </trkpt>
      <trkpt lat="51.853740317746997" lon="39.457369046285748">
        <ele>120.3</ele>
        <time>2016-12-18T10:31:13Z</time>
      </trkpt>
      <trkpt lat="51.853745011612773" lon="39.457298051565886">
        <ele>120.3</ele>
        <time>2016-12-18T10:31:14Z</time>
      </trkpt>
      <trkpt lat="51.853751800954342" lon="39.457234600558877">
        <ele>120.3</ele>
        <time>2016-12-18T10:31:15Z</time>
      </trkpt>
      <trkpt lat="51.853763200342655" lon="39.457169976085424">
        <ele>120.3</ele>
        <time>2016-12-18T10:31:16Z</time>
      </trkpt>
      <trkpt lat="51.853779964148998" lon="39.457111386582255">
        <ele>120.3</ele>
        <time>2016-12-18T10:31:17Z</time>
      </trkpt>
      <trkpt lat="51.853798907250166" lon="39.457054305821657">
        <ele>120.3</ele>
        <time>2016-12-18T10:31:18Z</time>
      </trkpt>
      <trkpt lat="51.854082969948649" lon="39.456146629527211">
        <ele>120.78</ele>
        <time>2016-12-18T10:31:34Z</time>
      </trkpt>
      <trkpt lat="51.854216577485204" lon="39.455240042880177">
        <ele>119.34</ele>
        <time>2016-12-18T10:31:48Z</time>
      </trkpt>
      <trkpt lat="51.854309281334281" lon="39.454855984076858">
        <ele>118.86</ele>
        <time>2016-12-18T10:31:54Z</time>
      </trkpt>
      <trkpt lat="51.854420257732272" lon="39.454262545332313">
        <ele>119.34</ele>
        <time>2016-12-18T10:32:03Z</time>
      </trkpt>
      <trkpt lat="51.85460046865046" lon="39.45344153791666">
        <ele>123.19</ele>
        <time>2016-12-18T10:32:16Z</time>
      </trkpt>
      <trkpt lat="51.854749079793692" lon="39.453113554045558">
        <ele>123.67</ele>
        <time>2016-12-18T10:32:22Z</time>
      </trkpt>
      <trkpt lat="51.855214107781649" lon="39.452404780313373">
        <ele>126.06999999999999</ele>
        <time>2016-12-18T10:32:38Z</time>
      </trkpt>
      <trkpt lat="51.855604536831379" lon="39.452006723731756">
        <ele>126.06999999999999</ele>
        <time>2016-12-18T10:32:51Z</time>
      </trkpt>
      <trkpt lat="51.856006029993296" lon="39.451553011313081">
        <ele>125.59</ele>
        <time>2016-12-18T10:33:04Z</time>
      </trkpt>
      <trkpt lat="51.856453875079751" lon="39.450855636969209">
        <ele>126.06999999999999</ele>
        <time>2016-12-18T10:33:20Z</time>
      </trkpt>
      <trkpt lat="51.856870288029313" lon="39.450487336143851">
        <ele>126.55</ele>
        <time>2016-12-18T10:33:33Z</time>
      </trkpt>
      <trkpt lat="51.857374375686049" lon="39.450024655088782">
        <ele>126.06999999999999</ele>
        <time>2016-12-18T10:33:48Z</time>
      </trkpt>
      <trkpt lat="51.857724320143461" lon="39.449452506378293">
        <ele>124.63</ele>
        <time>2016-12-18T10:34:01Z</time>
      </trkpt>
      <trkpt lat="51.857903189957142" lon="39.448773404583335">
        <ele>124.15000000000001</ele>
        <time>2016-12-18T10:34:15Z</time>
      </trkpt>
      <trkpt lat="51.858127573505044" lon="39.448136547580361">
        <ele>125.11</ele>
        <time>2016-12-18T10:34:28Z</time>
      </trkpt>
      <trkpt lat="51.858263863250613" lon="39.447374129667878">
        <ele>125.11</ele>
        <time>2016-12-18T10:34:42Z</time>
      </trkpt>
      <trkpt lat="51.858487911522388" lon="39.446556139737368">
        <ele>126.06999999999999</ele>
        <time>2016-12-18T10:34:56Z</time>
      </trkpt>
      <trkpt lat="51.858502412214875" lon="39.446488581597805">
        <ele>126.55</ele>
        <time>2016-12-18T10:34:57Z</time>
      </trkpt>
      <trkpt lat="51.858514063060284" lon="39.446419095620513">
        <ele>127.03</ele>
        <time>2016-12-18T10:34:58Z</time>
      </trkpt>
      <trkpt lat="51.858657645061612" lon="39.445892879739404">
        <ele>127.51000000000001</ele>
        <time>2016-12-18T10:35:10Z</time>
      </trkpt>
      <trkpt lat="51.859034830704331" lon="39.445271529257298">
        <ele>126.06999999999999</ele>
        <time>2016-12-18T10:35:25Z</time>
      </trkpt>
      <trkpt lat="51.859353594481945" lon="39.444619752466679">
        <ele>124.63</ele>
        <time>2016-12-18T10:35:39Z</time>
      </trkpt>
      <trkpt lat="51.859544115141034" lon="39.44366748444736">
        <ele>123.19</ele>
        <time>2016-12-18T10:35:55Z</time>
      </trkpt>
      <trkpt lat="51.85967973433435" lon="39.442873550578952">
        <ele>123.67</ele>
        <time>2016-12-18T10:36:08Z</time>
      </trkpt>
      <trkpt lat="51.859712675213814" lon="39.441932681947947">
        <ele>122.70999999999999</ele>
        <time>2016-12-18T10:36:23Z</time>
      </trkpt>
      <trkpt lat="51.859843097627163" lon="39.440979659557343">
        <ele>122.70999999999999</ele>
        <time>2016-12-18T10:36:39Z</time>
      </trkpt>
      <trkpt lat="51.85991526581347" lon="39.439954133704305">
        <ele>121.73999999999999</ele>
        <time>2016-12-18T10:36:57Z</time>
      </trkpt>
      <trkpt lat="51.860129171982408" lon="39.439054420217872">
        <ele>121.26000000000001</ele>
        <time>2016-12-18T10:37:14Z</time>
      </trkpt>
      <trkpt lat="51.860181391239166" lon="39.438897091895342">
        <ele>121.26000000000001</ele>
        <time>2016-12-18T10:37:23Z</time>
      </trkpt>
      <trkpt lat="51.860186085104942" lon="39.438901701942086">
        <ele>122.70999999999999</ele>
        <time>2016-12-18T10:37:44Z</time>
      </trkpt>
      <trkpt lat="51.860170243307948" lon="39.438916202634573">
        <ele>122.22</ele>
        <time>2016-12-18T10:38:17Z</time>
      </trkpt>
      <trkpt lat="51.860161609947681" lon="39.438874796032906">
        <ele>120.78</ele>
        <time>2016-12-18T10:38:46Z</time>
      </trkpt>
      <trkpt lat="51.860181055963039" lon="39.438879154622555">
        <ele>120.3</ele>
        <time>2016-12-18T10:39:13Z</time>
      </trkpt>
      <trkpt lat="51.860154150053859" lon="39.43887404166162">
        <ele>119.34</ele>
        <time>2016-12-18T10:39:26Z</time>
      </trkpt>
      <trkpt lat="51.86013956554234" lon="39.4388716109097">
        <ele>119.34</ele>
        <time>2016-12-18T10:39:27Z</time>
      </trkpt>
      <trkpt lat="51.859762631356716" lon="39.438797431066632">
        <ele>120.78</ele>
        <time>2016-12-18T10:39:40Z</time>
      </trkpt>
      <trkpt lat="51.859552497044206" lon="39.438285632058978">
        <ele>121.26000000000001</ele>
        <time>2016-12-18T10:39:51Z</time>
      </trkpt>
      <trkpt lat="51.859300285577774" lon="39.43780149333179">
        <ele>121.26000000000001</ele>
        <time>2016-12-18T10:40:01Z</time>
      </trkpt>
      <trkpt lat="51.859062910079956" lon="39.43698400631547">
        <ele>120.3</ele>
        <time>2016-12-18T10:40:14Z</time>
      </trkpt>
      <trkpt lat="51.858976325020194" lon="39.436665745452046">
        <ele>120.78</ele>
        <time>2016-12-18T10:40:19Z</time>
      </trkpt>
      <trkpt lat="51.858898205682635" lon="39.436430465430021">
        <ele>119.81999999999999</ele>
        <time>2016-12-18T10:40:23Z</time>
      </trkpt>
      <trkpt lat="51.858818829059601" lon="39.436286045238376">
        <ele>120.3</ele>
        <time>2016-12-18T10:40:26Z</time>
      </trkpt>
      <trkpt lat="51.858428567647934" lon="39.435624713078141">
        <ele>124.15000000000001</ele>
        <time>2016-12-18T10:40:39Z</time>
      </trkpt>
      <trkpt lat="51.858320944011211" lon="39.435334112495184">
        <ele>124.63</ele>
        <time>2016-12-18T10:40:44Z</time>
      </trkpt>
      <trkpt lat="51.858230754733086" lon="39.435100760310888">
        <ele>123.67</ele>
        <time>2016-12-18T10:40:48Z</time>
      </trkpt>
      <trkpt lat="51.858035456389189" lon="39.434662386775017">
        <ele>123.19</ele>
        <time>2016-12-18T10:40:56Z</time>
      </trkpt>
      <trkpt lat="51.857937136664987" lon="39.434468429535627">
        <ele>121.73999999999999</ele>
        <time>2016-12-18T10:40:59Z</time>
      </trkpt>
      <trkpt lat="51.857889443635941" lon="39.434400536119938">
        <ele>121.73999999999999</ele>
        <time>2016-12-18T10:41:00Z</time>
      </trkpt>
      <trkpt lat="51.857840241864324" lon="39.434339599683881">
        <ele>121.73999999999999</ele>
        <time>2016-12-18T10:41:01Z</time>
      </trkpt>
      <trkpt lat="51.857789782807231" lon="39.434275142848492">
        <ele>121.26000000000001</ele>
        <time>2016-12-18T10:41:02Z</time>
      </trkpt>
      <trkpt lat="51.857744185253978" lon="39.434200711548328">
        <ele>121.26000000000001</ele>
        <time>2016-12-18T10:41:03Z</time>
      </trkpt>
      <trkpt lat="51.857701689004898" lon="39.43412552587688">
        <ele>121.26000000000001</ele>
        <time>2016-12-18T10:41:04Z</time>
      </trkpt>
      <trkpt lat="51.857655588537455" lon="39.43405662663281">
        <ele>120.78</ele>
        <time>2016-12-18T10:41:05Z</time>
      </trkpt>
      <trkpt lat="51.857608817517757" lon="39.434000216424465">
        <ele>120.78</ele>
        <time>2016-12-18T10:41:06Z</time>
      </trkpt>
      <trkpt lat="51.857560034841299" lon="39.433953613042831">
        <ele>120.78</ele>
        <time>2016-12-18T10:41:07Z</time>
      </trkpt>
      <trkpt lat="51.857513599097729" lon="39.43392033688724">
        <ele>120.78</ele>
        <time>2016-12-18T10:41:08Z</time>
      </trkpt>
      <trkpt lat="51.85746431350708" lon="39.433898376300931">
        <ele>120.78</ele>
        <time>2016-12-18T10:41:09Z</time>
      </trkpt>
      <trkpt lat="51.857413854449987" lon="39.433886306360364">
        <ele>120.78</ele>
        <time>2016-12-18T10:41:10Z</time>
      </trkpt>
      <trkpt lat="51.857360797002912" lon="39.4338792655617">
        <ele>120.78</ele>
        <time>2016-12-18T10:41:11Z</time>
      </trkpt>
      <trkpt lat="51.857309248298407" lon="39.433881109580398">
        <ele>120.78</ele>
        <time>2016-12-18T10:41:12Z</time>
      </trkpt>
      <trkpt lat="51.857259292155504" lon="39.433882031589746">
        <ele>120.78</ele>
        <time>2016-12-18T10:41:13Z</time>
      </trkpt>
      <trkpt lat="51.85721218585968" lon="39.433872643858194">
        <ele>120.78</ele>
        <time>2016-12-18T10:41:14Z</time>
      </trkpt>
      <trkpt lat="51.857168013229966" lon="39.433851102367043">
        <ele>120.78</ele>
        <time>2016-12-18T10:41:15Z</time>
      </trkpt>
      <trkpt lat="51.857126355171204" lon="39.433817071840167">
        <ele>120.78</ele>
        <time>2016-12-18T10:41:16Z</time>
      </trkpt>
      <trkpt lat="51.857091905549169" lon="39.433779269456863">
        <ele>120.78</ele>
        <time>2016-12-18T10:41:17Z</time>
      </trkpt>
      <trkpt lat="51.857060808688402" lon="39.433736354112625">
        <ele>121.26000000000001</ele>
        <time>2016-12-18T10:41:18Z</time>
      </trkpt>
      <trkpt lat="51.857037506997585" lon="39.433684553951025">
        <ele>121.73999999999999</ele>
        <time>2016-12-18T10:41:19Z</time>
      </trkpt>
      <trkpt lat="51.857025772333145" lon="39.433619761839509">
        <ele>121.73999999999999</ele>
        <time>2016-12-18T10:41:20Z</time>
      </trkpt>
      <trkpt lat="51.857020659372211" lon="39.433547593653202">
        <ele>121.73999999999999</ele>
        <time>2016-12-18T10:41:21Z</time>
      </trkpt>
      <trkpt lat="51.857018060982227" lon="39.433479113504291">
        <ele>121.73999999999999</ele>
        <time>2016-12-18T10:41:22Z</time>
      </trkpt>
      <trkpt lat="51.85701185837388" lon="39.433409124612808">
        <ele>121.73999999999999</ele>
        <time>2016-12-18T10:41:23Z</time>
      </trkpt>
      <trkpt lat="51.857001967728138" lon="39.433343326672912">
        <ele>122.22</ele>
        <time>2016-12-18T10:41:24Z</time>
      </trkpt>
      <trkpt lat="51.856986042112112" lon="39.433275936171412">
        <ele>122.22</ele>
        <time>2016-12-18T10:41:25Z</time>
      </trkpt>
      <trkpt lat="51.856964332982898" lon="39.433218352496624">
        <ele>122.22</ele>
        <time>2016-12-18T10:41:26Z</time>
      </trkpt>
      <trkpt lat="51.856933906674385" lon="39.43316345103085">
        <ele>122.22</ele>
        <time>2016-12-18T10:41:27Z</time>
      </trkpt>
      <trkpt lat="51.856902977451682" lon="39.433111064136028">
        <ele>122.70999999999999</ele>
        <time>2016-12-18T10:41:28Z</time>
      </trkpt>
      <trkpt lat="51.856758976355195" lon="39.432828929275274">
        <ele>122.22</ele>
        <time>2016-12-18T10:41:33Z</time>
      </trkpt>
      <trkpt lat="51.856728214770555" lon="39.43277008831501">
        <ele>122.22</ele>
        <time>2016-12-18T10:41:34Z</time>
      </trkpt>
      <trkpt lat="51.856511710211635" lon="39.43246029317379">
        <ele>122.70999999999999</ele>
        <time>2016-12-18T10:41:40Z</time>
      </trkpt>
      <trkpt lat="51.856467956677079" lon="39.432415533810854">
        <ele>122.70999999999999</ele>
        <time>2016-12-18T10:41:41Z</time>
      </trkpt>
      <trkpt lat="51.856309287250042" lon="39.432230377569795">
        <ele>122.70999999999999</ele>
        <time>2016-12-18T10:41:45Z</time>
      </trkpt>
      <trkpt lat="51.856276681646705" lon="39.432176565751433">
        <ele>122.70999999999999</ele>
        <time>2016-12-18T10:41:46Z</time>
      </trkpt>
      <trkpt lat="51.85624273493886" lon="39.432120826095343">
        <ele>122.70999999999999</ele>
        <time>2016-12-18T10:41:47Z</time>
      </trkpt>
      <trkpt lat="51.856214152649045" lon="39.432064415886998">
        <ele>123.19</ele>
        <time>2016-12-18T10:41:48Z</time>
      </trkpt>
      <trkpt lat="51.856187079101801" lon="39.432009179145098">
        <ele>122.70999999999999</ele>
        <time>2016-12-18T10:41:49Z</time>
      </trkpt>
      <trkpt lat="51.856156568974257" lon="39.431961067020893">
        <ele>122.70999999999999</ele>
        <time>2016-12-18T10:41:50Z</time>
      </trkpt>
      <trkpt lat="51.856123963370919" lon="39.43191840313375">
        <ele>123.19</ele>
        <time>2016-12-18T10:41:51Z</time>
      </trkpt>
      <trkpt lat="51.855775527656078" lon="39.43153778091073">
        <ele>124.15000000000001</ele>
        <time>2016-12-18T10:42:02Z</time>
      </trkpt>
      <trkpt lat="51.855288622900844" lon="39.431096138432622">
        <ele>124.63</ele>
        <time>2016-12-18T10:42:15Z</time>
      </trkpt>
      <trkpt lat="51.854695351794362" lon="39.430582243949175">
        <ele>125.59</ele>
        <time>2016-12-18T10:42:30Z</time>
      </trkpt>
      <trkpt lat="51.854610610753298" lon="39.430512171238661">
        <ele>125.11</ele>
        <time>2016-12-18T10:42:32Z</time>
      </trkpt>
      <trkpt lat="51.85457163490355" lon="39.430475877597928">
        <ele>125.11</ele>
        <time>2016-12-18T10:42:33Z</time>
      </trkpt>
      <trkpt lat="51.854528971016407" lon="39.430440086871386">
        <ele>125.11</ele>
        <time>2016-12-18T10:42:34Z</time>
      </trkpt>
      <trkpt lat="51.853953050449491" lon="39.430025685578585">
        <ele>124.63</ele>
        <time>2016-12-18T10:42:46Z</time>
      </trkpt>
      <trkpt lat="51.853845929726958" lon="39.429969778284431">
        <ele>124.63</ele>
        <time>2016-12-18T10:42:48Z</time>
      </trkpt>
      <trkpt lat="51.853791195899248" lon="39.429937088862062">
        <ele>124.15000000000001</ele>
        <time>2016-12-18T10:42:49Z</time>
      </trkpt>
      <trkpt lat="51.853739144280553" lon="39.429904567077756">
        <ele>124.15000000000001</ele>
        <time>2016-12-18T10:42:50Z</time>
      </trkpt>
      <trkpt lat="51.853689858689904" lon="39.429869949817657">
        <ele>124.15000000000001</ele>
        <time>2016-12-18T10:42:51Z</time>
      </trkpt>
      <trkpt lat="51.853637555614114" lon="39.429838350042701">
        <ele>123.67</ele>
        <time>2016-12-18T10:42:52Z</time>
      </trkpt>
      <trkpt lat="51.853582737967372" lon="39.429808929562569">
        <ele>123.19</ele>
        <time>2016-12-18T10:42:53Z</time>
      </trkpt>
      <trkpt lat="51.852984856814146" lon="39.429557640105486">
        <ele>122.22</ele>
        <time>2016-12-18T10:43:04Z</time>
      </trkpt>
      <trkpt lat="51.852620076388121" lon="39.42944398149848">
        <ele>122.22</ele>
        <time>2016-12-18T10:43:11Z</time>
      </trkpt>
      <trkpt lat="51.852566432207823" lon="39.429427804425359">
        <ele>122.22</ele>
        <time>2016-12-18T10:43:12Z</time>
      </trkpt>
      <trkpt lat="51.851893700659275" lon="39.42916939035058">
        <ele>120.78</ele>
        <time>2016-12-18T10:43:25Z</time>
      </trkpt>
      <trkpt lat="51.851841900497675" lon="39.429153380915523">
        <ele>120.3</ele>
        <time>2016-12-18T10:43:26Z</time>
      </trkpt>
      <trkpt lat="51.851531770080328" lon="39.429064281284809">
        <ele>120.3</ele>
        <time>2016-12-18T10:43:32Z</time>
      </trkpt>
      <trkpt lat="51.85100563801825" lon="39.42887082695961">
        <ele>119.34</ele>
        <time>2016-12-18T10:43:42Z</time>
      </trkpt>
      <trkpt lat="51.85028244741261" lon="39.428636552765965">
        <ele>120.3</ele>
        <time>2016-12-18T10:43:56Z</time>
      </trkpt>
      <trkpt lat="51.849576020613313" lon="39.428353328257799">
        <ele>119.81999999999999</ele>
        <time>2016-12-18T10:44:10Z</time>
      </trkpt>
      <trkpt lat="51.84938482940197" lon="39.428279148414731">
        <ele>119.81999999999999</ele>
        <time>2016-12-18T10:44:14Z</time>
      </trkpt>
      <trkpt lat="51.849340740591288" lon="39.428252158686519">
        <ele>119.81999999999999</ele>
        <time>2016-12-18T10:44:15Z</time>
      </trkpt>
      <trkpt lat="51.849168492481112" lon="39.428161131218076">
        <ele>119.81999999999999</ele>
        <time>2016-12-18T10:44:19Z</time>
      </trkpt>
      <trkpt lat="51.84912490658462" lon="39.428149983286858">
        <ele>119.81999999999999</ele>
        <time>2016-12-18T10:44:20Z</time>
      </trkpt>
      <trkpt lat="51.848477656021714" lon="39.427866842597723">
        <ele>119.34</ele>
        <time>2016-12-18T10:44:35Z</time>
      </trkpt>
      <trkpt lat="51.848347568884492" lon="39.427805822342634">
        <ele>120.3</ele>
        <time>2016-12-18T10:44:38Z</time>
      </trkpt>
      <trkpt lat="51.84830448590219" lon="39.427789561450481">
        <ele>120.3</ele>
        <time>2016-12-18T10:44:39Z</time>
      </trkpt>
      <trkpt lat="51.848260648548603" lon="39.427772210910916">
        <ele>120.3</ele>
        <time>2016-12-18T10:44:40Z</time>
      </trkpt>
      <trkpt lat="51.848217062652111" lon="39.427753854542971">
        <ele>120.3</ele>
        <time>2016-12-18T10:44:41Z</time>
      </trkpt>
      <trkpt lat="51.848174566403031" lon="39.427735665813088">
        <ele>120.3</ele>
        <time>2016-12-18T10:44:42Z</time>
      </trkpt>
      <trkpt lat="51.847734097391367" lon="39.427509941160679">
        <ele>120.78</ele>
        <time>2016-12-18T10:44:53Z</time>
      </trkpt>
      <trkpt lat="51.847461685538292" lon="39.427383122965693">
        <ele>120.3</ele>
        <time>2016-12-18T10:45:00Z</time>
      </trkpt>
      <trkpt lat="51.847419021651149" lon="39.427371639758348">
        <ele>120.3</ele>
        <time>2016-12-18T10:45:01Z</time>
      </trkpt>
      <trkpt lat="51.847024317830801" lon="39.427154716104269">
        <ele>120.78</ele>
        <time>2016-12-18T10:45:11Z</time>
      </trkpt>
      <trkpt lat="51.846939409151673" lon="39.427118673920631">
        <ele>120.78</ele>
        <time>2016-12-18T10:45:13Z</time>
      </trkpt>
      <trkpt lat="51.846520900726318" lon="39.426860678941011">
        <ele>122.22</ele>
        <time>2016-12-18T10:45:26Z</time>
      </trkpt>
      <trkpt lat="51.846467675641179" lon="39.426759844645858">
        <ele>122.22</ele>
        <time>2016-12-18T10:45:30Z</time>
      </trkpt>
      <trkpt lat="51.846460299566388" lon="39.426716677844524">
        <ele>122.22</ele>
        <time>2016-12-18T10:45:31Z</time>
      </trkpt>
      <trkpt lat="51.846452839672565" lon="39.426666051149368">
        <ele>122.22</ele>
        <time>2016-12-18T10:45:32Z</time>
      </trkpt>
      <trkpt lat="51.846446301788092" lon="39.42661534063518">
        <ele>122.22</ele>
        <time>2016-12-18T10:45:33Z</time>
      </trkpt>
      <trkpt lat="51.846435656771064" lon="39.426241172477603">
        <ele>121.73999999999999</ele>
        <time>2016-12-18T10:45:39Z</time>
      </trkpt>
      <trkpt lat="51.846429957076907" lon="39.424826055765152">
        <ele>118.86</ele>
        <time>2016-12-18T10:45:56Z</time>
      </trkpt>
      <trkpt lat="51.846450241282582" lon="39.423708915710449">
        <ele>119.34</ele>
        <time>2016-12-18T10:46:08Z</time>
      </trkpt>
      <trkpt lat="51.846461305394769" lon="39.422795623540878">
        <ele>118.86</ele>
        <time>2016-12-18T10:46:18Z</time>
      </trkpt>
      <trkpt lat="51.846481924876571" lon="39.42237057723105">
        <ele>120.3</ele>
        <time>2016-12-18T10:46:23Z</time>
      </trkpt>
      <trkpt lat="51.846484942361712" lon="39.421647218987346">
        <ele>121.73999999999999</ele>
        <time>2016-12-18T10:46:32Z</time>
      </trkpt>
      <trkpt lat="51.846501203253865" lon="39.420973146334291">
        <ele>122.70999999999999</ele>
        <time>2016-12-18T10:46:41Z</time>
      </trkpt>
      <trkpt lat="51.846497934311628" lon="39.420441901311278">
        <ele>124.63</ele>
        <time>2016-12-18T10:46:48Z</time>
      </trkpt>
      <trkpt lat="51.846470944583416" lon="39.420072427019477">
        <ele>125.11</ele>
        <time>2016-12-18T10:46:53Z</time>
      </trkpt>
      <trkpt lat="51.846490139141679" lon="39.418936343863606">
        <ele>122.22</ele>
        <time>2016-12-18T10:47:07Z</time>
      </trkpt>
      <trkpt lat="51.846484774723649" lon="39.418117264285684">
        <ele>123.67</ele>
        <time>2016-12-18T10:47:18Z</time>
      </trkpt>
      <trkpt lat="51.846476392820477" lon="39.41798466257751">
        <ele>123.67</ele>
        <time>2016-12-18T10:47:20Z</time>
      </trkpt>
      <trkpt lat="51.846520733088255" lon="39.416977828368545">
        <ele>121.26000000000001</ele>
        <time>2016-12-18T10:47:33Z</time>
      </trkpt>
      <trkpt lat="51.846525259315968" lon="39.416761072352529">
        <ele>122.22</ele>
        <time>2016-12-18T10:47:36Z</time>
      </trkpt>
      <trkpt lat="51.846535401418805" lon="39.415676202625036">
        <ele>121.26000000000001</ele>
        <time>2016-12-18T10:47:49Z</time>
      </trkpt>
      <trkpt lat="51.846544621512294" lon="39.414926776662469">
        <ele>119.81999999999999</ele>
        <time>2016-12-18T10:47:59Z</time>
      </trkpt>
      <trkpt lat="51.84648284688592" lon="39.41434389911592">
        <ele>122.22</ele>
        <time>2016-12-18T10:48:09Z</time>
      </trkpt>
      <trkpt lat="51.846497179940343" lon="39.414139715954661">
        <ele>120.78</ele>
        <time>2016-12-18T10:54:04Z</time>
      </trkpt>
      <trkpt lat="51.846520565450191" lon="39.413564801216125">
        <ele>121.73999999999999</ele>
        <time>2016-12-18T10:54:14Z</time>
      </trkpt>
      <trkpt lat="51.846536910161376" lon="39.412897601723671">
        <ele>121.73999999999999</ele>
        <time>2016-12-18T10:54:26Z</time>
      </trkpt>
      <trkpt lat="51.846538754180074" lon="39.412345485761762">
        <ele>120.78</ele>
        <time>2016-12-18T10:54:38Z</time>
      </trkpt>
      <trkpt lat="51.846510926261544" lon="39.411658672615886">
        <ele>119.34</ele>
        <time>2016-12-18T10:54:51Z</time>
      </trkpt>
      <trkpt lat="51.846551243215799" lon="39.411097839474678">
        <ele>118.86</ele>
        <time>2016-12-18T10:55:03Z</time>
      </trkpt>
      <trkpt lat="51.846581166610122" lon="39.410730041563511">
        <ele>118.86</ele>
        <time>2016-12-18T10:55:12Z</time>
      </trkpt>
      <trkpt lat="51.846583848819137" lon="39.410505741834641">
        <ele>120.78</ele>
        <time>2016-12-18T10:55:24Z</time>
      </trkpt>
      <trkpt lat="51.846550740301609" lon="39.409978520125151">
        <ele>122.70999999999999</ele>
        <time>2016-12-18T10:55:36Z</time>
      </trkpt>
      <trkpt lat="51.846541101112962" lon="39.409881792962551">
        <ele>123.67</ele>
        <time>2016-12-18T10:55:39Z</time>
      </trkpt>
      <trkpt lat="51.846536155790091" lon="39.409819934517145">
        <ele>124.15000000000001</ele>
        <time>2016-12-18T10:55:51Z</time>
      </trkpt>
      <trkpt lat="51.846540179103613" lon="39.409815743565559">
        <ele>124.63</ele>
        <time>2016-12-18T10:56:14Z</time>
      </trkpt>
      <trkpt lat="51.846529031172395" lon="39.409806523472071">
        <ele>124.15000000000001</ele>
        <time>2016-12-18T10:56:38Z</time>
      </trkpt>
      <trkpt lat="51.84657521545887" lon="39.409352308139205">
        <ele>121.73999999999999</ele>
        <time>2016-12-18T10:56:50Z</time>
      </trkpt>
      <trkpt lat="51.8465874530375" lon="39.408997837454081">
        <ele>121.26000000000001</ele>
        <time>2016-12-18T10:57:03Z</time>
      </trkpt>
      <trkpt lat="51.84659767895937" lon="39.408774375915527">
        <ele>122.22</ele>
        <time>2016-12-18T10:57:20Z</time>
      </trkpt>
      <trkpt lat="51.846599522978067" lon="39.408541275188327">
        <ele>120.78</ele>
        <time>2016-12-18T10:57:37Z</time>
      </trkpt>
      <trkpt lat="51.84660698287189" lon="39.408496264368296">
        <ele>121.73999999999999</ele>
        <time>2016-12-18T10:57:47Z</time>
      </trkpt>
      <trkpt lat="51.846628105267882" lon="39.408293925225735">
        <ele>121.73999999999999</ele>
        <time>2016-12-18T10:58:00Z</time>
      </trkpt>
      <trkpt lat="51.846635397523642" lon="39.407842392101884">
        <ele>120.78</ele>
        <time>2016-12-18T10:58:13Z</time>
      </trkpt>
      <trkpt lat="51.846653837710619" lon="39.407190447673202">
        <ele>118.86</ele>
        <time>2016-12-18T10:58:25Z</time>
      </trkpt>
      <trkpt lat="51.846645120531321" lon="39.407091876491904">
        <ele>119.34</ele>
        <time>2016-12-18T10:58:32Z</time>
      </trkpt>
      <trkpt lat="51.846658531576395" lon="39.406712679192424">
        <ele>120.3</ele>
        <time>2016-12-18T10:58:46Z</time>
      </trkpt>
      <trkpt lat="51.84667537920177" lon="39.406145643442869">
        <ele>119.81999999999999</ele>
        <time>2016-12-18T10:58:58Z</time>
      </trkpt>
      <trkpt lat="51.846687784418464" lon="39.405519515275955">
        <ele>123.67</ele>
        <time>2016-12-18T10:59:13Z</time>
      </trkpt>
      <trkpt lat="51.846673619002104" lon="39.405030012130737">
        <ele>123.67</ele>
        <time>2016-12-18T10:59:26Z</time>
      </trkpt>
      <trkpt lat="51.84666657820344" lon="39.404753660783172">
        <ele>122.70999999999999</ele>
        <time>2016-12-18T10:59:37Z</time>
      </trkpt>
      <trkpt lat="51.846649646759033" lon="39.404720971360803">
        <ele>124.15000000000001</ele>
        <time>2016-12-18T10:59:59Z</time>
      </trkpt>
      <trkpt lat="51.846631206572056" lon="39.404715187847614">
        <ele>126.06999999999999</ele>
        <time>2016-12-18T11:00:22Z</time>
      </trkpt>
      <trkpt lat="51.846623495221138" lon="39.404722899198532">
        <ele>126.55</ele>
        <time>2016-12-18T11:00:50Z</time>
      </trkpt>
      <trkpt lat="51.846654256805778" lon="39.404414696618915">
        <ele>125.11</ele>
        <time>2016-12-18T11:01:05Z</time>
      </trkpt>
      <trkpt lat="51.846674038097262" lon="39.403836177662015">
        <ele>121.26000000000001</ele>
        <time>2016-12-18T11:01:17Z</time>
      </trkpt>
      <trkpt lat="51.846689041703939" lon="39.403303004801273">
        <ele>117.90000000000001</ele>
        <time>2016-12-18T11:01:26Z</time>
      </trkpt>
      <trkpt lat="51.846687784418464" lon="39.403226980939507">
        <ele>117.90000000000001</ele>
        <time>2016-12-18T11:01:29Z</time>
      </trkpt>
      <trkpt lat="51.846709996461868" lon="39.402943672612309">
        <ele>118.86</ele>
        <time>2016-12-18T11:01:37Z</time>
      </trkpt>
      <trkpt lat="51.846740255132318" lon="39.402288040146232">
        <ele>119.81999999999999</ele>
        <time>2016-12-18T11:01:51Z</time>
      </trkpt>
      <trkpt lat="51.846660291776061" lon="39.401851007714868">
        <ele>122.70999999999999</ele>
        <time>2016-12-18T11:02:03Z</time>
      </trkpt>
      <trkpt lat="51.846582088619471" lon="39.401375250890851">
        <ele>123.67</ele>
        <time>2016-12-18T11:02:16Z</time>
      </trkpt>
      <trkpt lat="51.846660207957029" lon="39.401023797690868">
        <ele>122.22</ele>
        <time>2016-12-18T11:02:26Z</time>
      </trkpt>
      <trkpt lat="51.846783673390746" lon="39.400426251813769">
        <ele>122.70999999999999</ele>
        <time>2016-12-18T11:02:42Z</time>
      </trkpt>
      <trkpt lat="51.846778225153685" lon="39.39983650110662">
        <ele>121.26000000000001</ele>
        <time>2016-12-18T11:02:53Z</time>
      </trkpt>
      <trkpt lat="51.846786858513951" lon="39.398997472599149">
        <ele>114.05</ele>
        <time>2016-12-18T11:03:05Z</time>
      </trkpt>
      <trkpt lat="51.846777638420463" lon="39.39840042963624">
        <ele>112.61</ele>
        <time>2016-12-18T11:03:15Z</time>
      </trkpt>
      <trkpt lat="51.846792139112949" lon="39.397917967289686">
        <ele>112.61</ele>
        <time>2016-12-18T11:03:27Z</time>
      </trkpt>
      <trkpt lat="51.846810914576054" lon="39.397417651489377">
        <ele>110.20999999999999</ele>
        <time>2016-12-18T11:03:39Z</time>
      </trkpt>
      <trkpt lat="51.84683128260076" lon="39.396743075922132">
        <ele>111.65000000000001</ele>
        <time>2016-12-18T11:03:53Z</time>
      </trkpt>
      <trkpt lat="51.846821643412113" lon="39.396258937194943">
        <ele>111.17</ele>
        <time>2016-12-18T11:04:03Z</time>
      </trkpt>
      <trkpt lat="51.846826756373048" lon="39.395782509818673">
        <ele>106.84</ele>
        <time>2016-12-18T11:04:14Z</time>
      </trkpt>
      <trkpt lat="51.846838407218456" lon="39.395288145169616">
        <ele>106.36</ele>
        <time>2016-12-18T11:04:25Z</time>
      </trkpt>
      <trkpt lat="51.846856763586402" lon="39.394843652844429">
        <ele>108.77</ele>
        <time>2016-12-18T11:04:36Z</time>
      </trkpt>
      <trkpt lat="51.846863888204098" lon="39.39416547305882">
        <ele>105.40000000000001</ele>
        <time>2016-12-18T11:04:50Z</time>
      </trkpt>
      <trkpt lat="51.846877466887236" lon="39.393644705414772">
        <ele>104.92</ele>
        <time>2016-12-18T11:05:01Z</time>
      </trkpt>
      <trkpt lat="51.846898254007101" lon="39.393080268055201">
        <ele>104.44</ele>
        <time>2016-12-18T11:05:13Z</time>
      </trkpt>
      <trkpt lat="51.846922980621457" lon="39.392832415178418">
        <ele>104.92</ele>
        <time>2016-12-18T11:05:23Z</time>
      </trkpt>
      <trkpt lat="51.846911832690239" lon="39.392794277518988">
        <ele>108.77</ele>
        <time>2016-12-18T11:05:36Z</time>
      </trkpt>
      <trkpt lat="51.84691870585084" lon="39.39280073158443">
        <ele>111.17</ele>
        <time>2016-12-18T11:06:05Z</time>
      </trkpt>
      <trkpt lat="51.846933038905263" lon="39.392808191478252">
        <ele>111.65000000000001</ele>
        <time>2016-12-18T11:06:34Z</time>
      </trkpt>
      <trkpt lat="51.846964135766029" lon="39.392796959728003">
        <ele>118.38</ele>
        <time>2016-12-18T11:07:05Z</time>
      </trkpt>
      <trkpt lat="51.84695047326386" lon="39.392754714936018">
        <ele>118.38</ele>
        <time>2016-12-18T11:07:34Z</time>
      </trkpt>
      <trkpt lat="51.846959944814444" lon="39.39277877099812">
        <ele>120.78</ele>
        <time>2016-12-18T11:08:03Z</time>
      </trkpt>
      <trkpt lat="51.846926668658853" lon="39.392764521762729">
        <ele>117.90000000000001</ele>
        <time>2016-12-18T11:08:21Z</time>
      </trkpt>
      <trkpt lat="51.846630200743675" lon="39.392642732709646">
        <ele>118.86</ele>
        <time>2016-12-18T11:08:35Z</time>
      </trkpt>
      <trkpt lat="51.846261480823159" lon="39.392503509297967">
        <ele>119.34</ele>
        <time>2016-12-18T11:08:47Z</time>
      </trkpt>
      <trkpt lat="51.845967778936028" lon="39.39265170134604">
        <ele>123.19</ele>
        <time>2016-12-18T11:08:57Z</time>
      </trkpt>
      <trkpt lat="51.845621773973107" lon="39.392669219523668">
        <ele>125.59</ele>
        <time>2016-12-18T11:09:09Z</time>
      </trkpt>
      <trkpt lat="51.845214245840907" lon="39.392671482637525">
        <ele>125.11</ele>
        <time>2016-12-18T11:09:20Z</time>
      </trkpt>
      <trkpt lat="51.844744943082333" lon="39.392849430441856">
        <ele>126.06999999999999</ele>
        <time>2016-12-18T11:09:31Z</time>
      </trkpt>
      <trkpt lat="51.844348479062319" lon="39.393010614439845">
        <ele>127.98999999999999</ele>
        <time>2016-12-18T11:09:41Z</time>
      </trkpt>
      <trkpt lat="51.843927288427949" lon="39.393078591674566">
        <ele>133.28</ele>
        <time>2016-12-18T11:09:53Z</time>
      </trkpt>
      <trkpt lat="51.843401240184903" lon="39.393129050731659">
        <ele>136.63999999999999</ele>
        <time>2016-12-18T11:10:06Z</time>
      </trkpt>
      <trkpt lat="51.84335321187973" lon="39.393118489533663">
        <ele>136.63999999999999</ele>
        <time>2016-12-18T11:10:07Z</time>
      </trkpt>
      <trkpt lat="51.843305015936494" lon="39.393101474270225">
        <ele>136.63999999999999</ele>
        <time>2016-12-18T11:10:08Z</time>
      </trkpt>
      <trkpt lat="51.842615604400635" lon="39.392736442387104">
        <ele>128.47</ele>
        <time>2016-12-18T11:10:21Z</time>
      </trkpt>
      <trkpt lat="51.842176476493478" lon="39.392472328618169">
        <ele>124.15000000000001</ele>
        <time>2016-12-18T11:10:29Z</time>
      </trkpt>
      <trkpt lat="51.842131046578288" lon="39.392425389960408">
        <ele>123.67</ele>
        <time>2016-12-18T11:10:30Z</time>
      </trkpt>
      <trkpt lat="51.842087293043733" lon="39.392370823770761">
        <ele>123.67</ele>
        <time>2016-12-18T11:10:31Z</time>
      </trkpt>
      <trkpt lat="51.842044042423368" lon="39.392309384420514">
        <ele>122.70999999999999</ele>
        <time>2016-12-18T11:10:32Z</time>
      </trkpt>
      <trkpt lat="51.842004898935556" lon="39.392245430499315">
        <ele>122.22</ele>
        <time>2016-12-18T11:10:33Z</time>
      </trkpt>
      <trkpt lat="51.841968353837729" lon="39.392179967835546">
        <ele>121.26000000000001</ele>
        <time>2016-12-18T11:10:34Z</time>
      </trkpt>
      <trkpt lat="51.841496201232076" lon="39.391508577391505">
        <ele>118.38</ele>
        <time>2016-12-18T11:10:45Z</time>
      </trkpt>
      <trkpt lat="51.84140550903976" lon="39.391406737267971">
        <ele>118.86</ele>
        <time>2016-12-18T11:10:47Z</time>
      </trkpt>
      <trkpt lat="51.84135957621038" lon="39.391366085037589">
        <ele>118.86</ele>
        <time>2016-12-18T11:10:48Z</time>
      </trkpt>
      <trkpt lat="51.841310374438763" lon="39.391334066167474">
        <ele>118.86</ele>
        <time>2016-12-18T11:10:49Z</time>
      </trkpt>
      <trkpt lat="51.841253126040101" lon="39.391311770305037">
        <ele>118.38</ele>
        <time>2016-12-18T11:10:50Z</time>
      </trkpt>
      <trkpt lat="51.841192692518234" lon="39.391299029812217">
        <ele>118.38</ele>
        <time>2016-12-18T11:10:51Z</time>
      </trkpt>
      <trkpt lat="51.841136869043112" lon="39.391294922679663">
        <ele>117.90000000000001</ele>
        <time>2016-12-18T11:10:52Z</time>
      </trkpt>
      <trkpt lat="51.841083308681846" lon="39.39129576086998">
        <ele>117.90000000000001</ele>
        <time>2016-12-18T11:10:53Z</time>
      </trkpt>
      <trkpt lat="51.840976774692535" lon="39.391315877437592">
        <ele>117.90000000000001</ele>
        <time>2016-12-18T11:10:55Z</time>
      </trkpt>
      <trkpt lat="51.840329105034471" lon="39.391641346737742">
        <ele>117.42</ele>
        <time>2016-12-18T11:11:09Z</time>
      </trkpt>
      <trkpt lat="51.839798195287585" lon="39.391740839928389">
        <ele>117.90000000000001</ele>
        <time>2016-12-18T11:11:22Z</time>
      </trkpt>
      <trkpt lat="51.839316235855222" lon="39.391908477991819">
        <ele>117.42</ele>
        <time>2016-12-18T11:11:33Z</time>
      </trkpt>
      <trkpt lat="51.839115070179105" lon="39.392060441896319">
        <ele>116.94</ele>
        <time>2016-12-18T11:11:38Z</time>
      </trkpt>
      <trkpt lat="51.839080704376101" lon="39.392096567898989">
        <ele>116.94</ele>
        <time>2016-12-18T11:11:39Z</time>
      </trkpt>
      <trkpt lat="51.83872053399682" lon="39.392465958371758">
        <ele>119.34</ele>
        <time>2016-12-18T11:11:49Z</time>
      </trkpt>
      <trkpt lat="51.838674852624536" lon="39.392489762976766">
        <ele>119.34</ele>
        <time>2016-12-18T11:11:50Z</time>
      </trkpt>
      <trkpt lat="51.838456252589822" lon="39.392570145428181">
        <ele>120.3</ele>
        <time>2016-12-18T11:11:55Z</time>
      </trkpt>
      <trkpt lat="51.838262379169464" lon="39.392578024417162">
        <ele>121.26000000000001</ele>
        <time>2016-12-18T11:11:59Z</time>
      </trkpt>
      <trkpt lat="51.837631640955806" lon="39.392426898702979">
        <ele>120.3</ele>
        <time>2016-12-18T11:12:13Z</time>
      </trkpt>
      <trkpt lat="51.837037699297071" lon="39.39211810939014">
        <ele>118.86</ele>
        <time>2016-12-18T11:12:27Z</time>
      </trkpt>
      <trkpt lat="51.836777944117785" lon="39.392042756080627">
        <ele>118.86</ele>
        <time>2016-12-18T11:12:33Z</time>
      </trkpt>
      <trkpt lat="51.83621040545404" lon="39.392022304236889">
        <ele>119.34</ele>
        <time>2016-12-18T11:12:46Z</time>
      </trkpt>
      <trkpt lat="51.835778821259737" lon="39.392348108813167">
        <ele>119.81999999999999</ele>
        <time>2016-12-18T11:12:57Z</time>
      </trkpt>
      <trkpt lat="51.835747472941875" lon="39.392396220937371">
        <ele>120.3</ele>
        <time>2016-12-18T11:12:58Z</time>
      </trkpt>
      <trkpt lat="51.835718890652061" lon="39.392447685822845">
        <ele>120.3</ele>
        <time>2016-12-18T11:12:59Z</time>
      </trkpt>
      <trkpt lat="51.835694583132863" lon="39.39250317402184">
        <ele>120.3</ele>
        <time>2016-12-18T11:13:00Z</time>
      </trkpt>
      <trkpt lat="51.83567245490849" lon="39.392561092972755">
        <ele>120.3</ele>
        <time>2016-12-18T11:13:01Z</time>
      </trkpt>
      <trkpt lat="51.835558041930199" lon="39.392872648313642">
        <ele>119.81999999999999</ele>
        <time>2016-12-18T11:13:06Z</time>
      </trkpt>
      <trkpt lat="51.83553515933454" lon="39.392932327464223">
        <ele>119.81999999999999</ele>
        <time>2016-12-18T11:13:07Z</time>
      </trkpt>
      <trkpt lat="51.835330305621028" lon="39.393403474241495">
        <ele>120.78</ele>
        <time>2016-12-18T11:13:15Z</time>
      </trkpt>
      <trkpt lat="51.834913808852434" lon="39.393906136974692">
        <ele>120.78</ele>
        <time>2016-12-18T11:13:26Z</time>
      </trkpt>
      <trkpt lat="51.834853542968631" lon="39.393956763669848">
        <ele>120.3</ele>
        <time>2016-12-18T11:13:27Z</time>
      </trkpt>
      <trkpt lat="51.834429083392024" lon="39.394445763900876">
        <ele>118.38</ele>
        <time>2016-12-18T11:13:36Z</time>
      </trkpt>
      <trkpt lat="51.834355155006051" lon="39.394586747512221">
        <ele>118.38</ele>
        <time>2016-12-18T11:13:38Z</time>
      </trkpt>
      <trkpt lat="51.834324477240443" lon="39.394664783030748">
        <ele>118.38</ele>
        <time>2016-12-18T11:13:39Z</time>
      </trkpt>
      <trkpt lat="51.834209728986025" lon="39.395040040835738">
        <ele>116.94</ele>
        <time>2016-12-18T11:13:43Z</time>
      </trkpt>
      <trkpt lat="51.834123311564326" lon="39.395454609766603">
        <ele>115.5</ele>
        <time>2016-12-18T11:13:47Z</time>
      </trkpt>
      <trkpt lat="51.83411518111825" lon="39.395546140149236">
        <ele>115.5</ele>
        <time>2016-12-18T11:13:48Z</time>
      </trkpt>
      <trkpt lat="51.834109900519252" lon="39.395720819011331">
        <ele>115.5</ele>
        <time>2016-12-18T11:13:50Z</time>
      </trkpt>
      <trkpt lat="51.834115600213408" lon="39.395806733518839">
        <ele>115.5</ele>
        <time>2016-12-18T11:13:51Z</time>
      </trkpt>
      <trkpt lat="51.834126496687531" lon="39.395888959988952">
        <ele>115.01000000000001</ele>
        <time>2016-12-18T11:13:52Z</time>
      </trkpt>
      <trkpt lat="51.834142841398716" lon="39.395970599725842">
        <ele>115.01000000000001</ele>
        <time>2016-12-18T11:13:53Z</time>
      </trkpt>
      <trkpt lat="51.834162203595042" lon="39.39605257473886">
        <ele>114.53</ele>
        <time>2016-12-18T11:13:54Z</time>
      </trkpt>
      <trkpt lat="51.834338391199708" lon="39.396489188075066">
        <ele>114.05</ele>
        <time>2016-12-18T11:14:00Z</time>
      </trkpt>
      <trkpt lat="51.834522625431418" lon="39.39676838926971">
        <ele>111.65000000000001</ele>
        <time>2016-12-18T11:14:04Z</time>
      </trkpt>
      <trkpt lat="51.834558751434088" lon="39.396848101168871">
        <ele>111.17</ele>
        <time>2016-12-18T11:14:05Z</time>
      </trkpt>
      <trkpt lat="51.834588423371315" lon="39.396933931857347">
        <ele>110.69</ele>
        <time>2016-12-18T11:14:06Z</time>
      </trkpt>
      <trkpt lat="51.834615329280496" lon="39.397028982639313">
        <ele>110.69</ele>
        <time>2016-12-18T11:14:07Z</time>
      </trkpt>
      <trkpt lat="51.83463997207582" lon="39.39712411724031">
        <ele>110.69</ele>
        <time>2016-12-18T11:14:08Z</time>
      </trkpt>
      <trkpt lat="51.834853207692504" lon="39.398079570382833">
        <ele>109.73</ele>
        <time>2016-12-18T11:14:19Z</time>
      </trkpt>
      <trkpt lat="51.834859494119883" lon="39.398254249244928">
        <ele>109.73</ele>
        <time>2016-12-18T11:14:21Z</time>
      </trkpt>
      <trkpt lat="51.83485739864409" lon="39.398342678323388">
        <ele>109.73</ele>
        <time>2016-12-18T11:14:22Z</time>
      </trkpt>
      <trkpt lat="51.834852704778314" lon="39.398424318060279">
        <ele>110.20999999999999</ele>
        <time>2016-12-18T11:14:23Z</time>
      </trkpt>
      <trkpt lat="51.834844406694174" lon="39.398503778502345">
        <ele>110.20999999999999</ele>
        <time>2016-12-18T11:14:24Z</time>
      </trkpt>
      <trkpt lat="51.834830325096846" lon="39.398578628897667">
        <ele>110.20999999999999</ele>
        <time>2016-12-18T11:14:25Z</time>
      </trkpt>
      <trkpt lat="51.834811046719551" lon="39.398648114874959">
        <ele>110.69</ele>
        <time>2016-12-18T11:14:26Z</time>
      </trkpt>
      <trkpt lat="51.834789840504527" lon="39.398712906986475">
        <ele>110.69</ele>
        <time>2016-12-18T11:14:27Z</time>
      </trkpt>
      <trkpt lat="51.834764359518886" lon="39.398774094879627">
        <ele>110.69</ele>
        <time>2016-12-18T11:14:28Z</time>
      </trkpt>
      <trkpt lat="51.834733514115214" lon="39.398827571421862">
        <ele>110.69</ele>
        <time>2016-12-18T11:14:29Z</time>
      </trkpt>
      <trkpt lat="51.834695124998689" lon="39.398876940831542">
        <ele>110.69</ele>
        <time>2016-12-18T11:14:30Z</time>
      </trkpt>
      <trkpt lat="51.834655478596687" lon="39.398919185623527">
        <ele>110.69</ele>
        <time>2016-12-18T11:14:31Z</time>
      </trkpt>
      <trkpt lat="51.834612563252449" lon="39.398961178958416">
        <ele>110.69</ele>
        <time>2016-12-18T11:14:32Z</time>
      </trkpt>
      <trkpt lat="51.834382396191359" lon="39.399198219180107">
        <ele>109.25</ele>
        <time>2016-12-18T11:14:37Z</time>
      </trkpt>
      <trkpt lat="51.834335206076503" lon="39.399241302162409">
        <ele>109.73</ele>
        <time>2016-12-18T11:14:38Z</time>
      </trkpt>
      <trkpt lat="51.834283992648125" lon="39.399273488670588">
        <ele>109.25</ele>
        <time>2016-12-18T11:14:39Z</time>
      </trkpt>
      <trkpt lat="51.834228085353971" lon="39.399288827553391">
        <ele>109.25</ele>
        <time>2016-12-18T11:14:40Z</time>
      </trkpt>
      <trkpt lat="51.834176369011402" lon="39.399286899715662">
        <ele>109.25</ele>
        <time>2016-12-18T11:14:41Z</time>
      </trkpt>
      <trkpt lat="51.834122138097882" lon="39.39926971681416">
        <ele>109.73</ele>
        <time>2016-12-18T11:14:42Z</time>
      </trkpt>
      <trkpt lat="51.834072349593043" lon="39.399239206686616">
        <ele>109.73</ele>
        <time>2016-12-18T11:14:43Z</time>
      </trkpt>
      <trkpt lat="51.834024991840124" lon="39.399199308827519">
        <ele>109.73</ele>
        <time>2016-12-18T11:14:44Z</time>
      </trkpt>
      <trkpt lat="51.833984339609742" lon="39.399163099005818">
        <ele>109.73</ele>
        <time>2016-12-18T11:14:45Z</time>
      </trkpt>
      <trkpt lat="51.833941424265504" lon="39.399133427068591">
        <ele>110.20999999999999</ele>
        <time>2016-12-18T11:14:46Z</time>
      </trkpt>
      <trkpt lat="51.833895156159997" lon="39.399118507280946">
        <ele>110.20999999999999</ele>
        <time>2016-12-18T11:14:47Z</time>
      </trkpt>
      <trkpt lat="51.833845116198063" lon="39.399115489795804">
        <ele>110.69</ele>
        <time>2016-12-18T11:14:48Z</time>
      </trkpt>
      <trkpt lat="51.833796333521605" lon="39.399120518937707">
        <ele>110.69</ele>
        <time>2016-12-18T11:14:49Z</time>
      </trkpt>
      <trkpt lat="51.833750484511256" lon="39.399130241945386">
        <ele>110.69</ele>
        <time>2016-12-18T11:14:50Z</time>
      </trkpt>
      <trkpt lat="51.833699773997068" lon="39.39914658665657">
        <ele>110.69</ele>
        <time>2016-12-18T11:14:51Z</time>
      </trkpt>
      <trkpt lat="51.83350439183414" lon="39.399218922480941">
        <ele>110.20999999999999</ele>
        <time>2016-12-18T11:14:55Z</time>
      </trkpt>
      <trkpt lat="51.83345946483314" lon="39.399249935522676">
        <ele>110.20999999999999</ele>
        <time>2016-12-18T11:14:56Z</time>
      </trkpt>
      <trkpt lat="51.833415543660522" lon="39.399288911372423">
        <ele>110.20999999999999</ele>
        <time>2016-12-18T11:14:57Z</time>
      </trkpt>
      <trkpt lat="51.833376903086901" lon="39.399327803403139">
        <ele>110.20999999999999</ele>
        <time>2016-12-18T11:14:58Z</time>
      </trkpt>
      <trkpt lat="51.833340357989073" lon="39.399371305480599">
        <ele>109.73</ele>
        <time>2016-12-18T11:14:59Z</time>
      </trkpt>
      <trkpt lat="51.833305740728974" lon="39.399419249966741">
        <ele>109.73</ele>
        <time>2016-12-18T11:15:00Z</time>
      </trkpt>
      <trkpt lat="51.833271291106939" lon="39.39946903847158">
        <ele>109.73</ele>
        <time>2016-12-18T11:15:01Z</time>
      </trkpt>
      <trkpt lat="51.832944815978408" lon="39.400097010657191">
        <ele>112.13</ele>
        <time>2016-12-18T11:15:13Z</time>
      </trkpt>
      <trkpt lat="51.832625465467572" lon="39.400562038645148">
        <ele>114.53</ele>
        <time>2016-12-18T11:15:24Z</time>
      </trkpt>
      <trkpt lat="51.831984920427203" lon="39.400956658646464">
        <ele>113.09</ele>
        <time>2016-12-18T11:15:41Z</time>
      </trkpt>
      <trkpt lat="51.831465242430568" lon="39.401203505694866">
        <ele>113.09</ele>
        <time>2016-12-18T11:15:56Z</time>
      </trkpt>
      <trkpt lat="51.830818494781852" lon="39.401582619175315">
        <ele>111.17</ele>
        <time>2016-12-18T11:16:10Z</time>
      </trkpt>
      <trkpt lat="51.830218937247992" lon="39.401771379634738">
        <ele>115.01000000000001</ele>
        <time>2016-12-18T11:16:23Z</time>
      </trkpt>
      <trkpt lat="51.829663971439004" lon="39.40198352560401">
        <ele>113.56999999999999</ele>
        <time>2016-12-18T11:16:34Z</time>
      </trkpt>
      <trkpt lat="51.829606639221311" lon="39.402018561959267">
        <ele>113.09</ele>
        <time>2016-12-18T11:16:35Z</time>
      </trkpt>
      <trkpt lat="51.82945610024035" lon="39.402144039049745">
        <ele>113.09</ele>
        <time>2016-12-18T11:16:38Z</time>
      </trkpt>
      <trkpt lat="51.829417794942856" lon="39.402188966050744">
        <ele>113.56999999999999</ele>
        <time>2016-12-18T11:16:39Z</time>
      </trkpt>
      <trkpt lat="51.829383596777916" lon="39.402233976870775">
        <ele>114.05</ele>
        <time>2016-12-18T11:16:40Z</time>
      </trkpt>
      <trkpt lat="51.829260382801294" lon="39.402441848069429">
        <ele>115.01000000000001</ele>
        <time>2016-12-18T11:16:44Z</time>
      </trkpt>
      <trkpt lat="51.829231381416321" lon="39.402505718171597">
        <ele>115.5</ele>
        <time>2016-12-18T11:16:45Z</time>
      </trkpt>
      <trkpt lat="51.829203302040696" lon="39.4025694206357">
        <ele>115.5</ele>
        <time>2016-12-18T11:16:46Z</time>
      </trkpt>
      <trkpt lat="51.828865511342883" lon="39.403481790795922">
        <ele>116.94</ele>
        <time>2016-12-18T11:16:59Z</time>
      </trkpt>
      <trkpt lat="51.828766437247396" lon="39.403671054169536">
        <ele>116.94</ele>
        <time>2016-12-18T11:17:02Z</time>
      </trkpt>
      <trkpt lat="51.828454881906509" lon="39.404028877615929">
        <ele>117.42</ele>
        <time>2016-12-18T11:17:10Z</time>
      </trkpt>
      <trkpt lat="51.828410206362605" lon="39.404056705534458">
        <ele>117.42</ele>
        <time>2016-12-18T11:17:11Z</time>
      </trkpt>
      <trkpt lat="51.828319178894162" lon="39.404101129621267">
        <ele>117.42</ele>
        <time>2016-12-18T11:17:13Z</time>
      </trkpt>
      <trkpt lat="51.828275173902512" lon="39.404113283380866">
        <ele>117.42</ele>
        <time>2016-12-18T11:17:14Z</time>
      </trkpt>
      <trkpt lat="51.827619709074497" lon="39.404150582849979">
        <ele>117.90000000000001</ele>
        <time>2016-12-18T11:17:29Z</time>
      </trkpt>
      <trkpt lat="51.827425248920918" lon="39.404258877038956">
        <ele>118.86</ele>
        <time>2016-12-18T11:17:34Z</time>
      </trkpt>
      <trkpt lat="51.827351655811071" lon="39.404333895072341">
        <ele>119.34</ele>
        <time>2016-12-18T11:17:36Z</time>
      </trkpt>
      <trkpt lat="51.827130876481533" lon="39.404588118195534">
        <ele>119.34</ele>
        <time>2016-12-18T11:17:42Z</time>
      </trkpt>
      <trkpt lat="51.826687389984727" lon="39.405129086226225">
        <ele>120.78</ele>
        <time>2016-12-18T11:17:54Z</time>
      </trkpt>
      <trkpt lat="51.826050616800785" lon="39.405400240793824">
        <ele>118.86</ele>
        <time>2016-12-18T11:18:08Z</time>
      </trkpt>
      <trkpt lat="51.825304292142391" lon="39.405633425340056">
        <ele>115.98</ele>
        <time>2016-12-18T11:18:22Z</time>
      </trkpt>
      <trkpt lat="51.825255593284965" lon="39.405646165832877">
        <ele>115.98</ele>
        <time>2016-12-18T11:18:23Z</time>
      </trkpt>
      <trkpt lat="51.82498418726027" lon="39.405723111703992">
        <ele>115.98</ele>
        <time>2016-12-18T11:18:29Z</time>
      </trkpt>
      <trkpt lat="51.824931213632226" lon="39.405740462243557">
        <ele>115.5</ele>
        <time>2016-12-18T11:18:30Z</time>
      </trkpt>
      <trkpt lat="51.824875809252262" lon="39.405749766156077">
        <ele>115.5</ele>
        <time>2016-12-18T11:18:31Z</time>
      </trkpt>
      <trkpt lat="51.824817135930061" lon="39.405751526355743">
        <ele>115.01000000000001</ele>
        <time>2016-12-18T11:18:32Z</time>
      </trkpt>
      <trkpt lat="51.824760306626558" lon="39.405751107260585">
        <ele>114.53</ele>
        <time>2016-12-18T11:18:33Z</time>
      </trkpt>
      <trkpt lat="51.824025716632605" lon="39.405592437833548">
        <ele>115.01000000000001</ele>
        <time>2016-12-18T11:18:46Z</time>
      </trkpt>
      <trkpt lat="51.823373269289732" lon="39.405402168631554">
        <ele>113.09</ele>
        <time>2016-12-18T11:18:59Z</time>
      </trkpt>
      <trkpt lat="51.822645803913474" lon="39.405436115339398">
        <ele>109.25</ele>
        <time>2016-12-18T11:19:13Z</time>
      </trkpt>
      <trkpt lat="51.822188822552562" lon="39.405650608241558">
        <ele>109.73</ele>
        <time>2016-12-18T11:19:22Z</time>
      </trkpt>
      <trkpt lat="51.822144901379943" lon="39.40569763071835">
        <ele>110.20999999999999</ele>
        <time>2016-12-18T11:19:23Z</time>
      </trkpt>
      <trkpt lat="51.822105087339878" lon="39.405759070068598">
        <ele>110.20999999999999</ele>
        <time>2016-12-18T11:19:24Z</time>
      </trkpt>
      <trkpt lat="51.822073152288795" lon="39.405829394236207">
        <ele>110.69</ele>
        <time>2016-12-18T11:19:25Z</time>
      </trkpt>
      <trkpt lat="51.822040546685457" lon="39.40590969286859">
        <ele>110.69</ele>
        <time>2016-12-18T11:19:26Z</time>
      </trkpt>
      <trkpt lat="51.82188824750483" lon="39.406386623159051">
        <ele>111.65000000000001</ele>
        <time>2016-12-18T11:19:32Z</time>
      </trkpt>
      <trkpt lat="51.821814486756921" lon="39.406775711104274">
        <ele>112.13</ele>
        <time>2016-12-18T11:19:37Z</time>
      </trkpt>
      <trkpt lat="51.821777271106839" lon="39.407323468476534">
        <ele>112.61</ele>
        <time>2016-12-18T11:19:44Z</time>
      </trkpt>
      <trkpt lat="51.821777187287807" lon="39.407396642491221">
        <ele>112.13</ele>
        <time>2016-12-18T11:19:45Z</time>
      </trkpt>
      <trkpt lat="51.821795795112848" lon="39.408050430938601">
        <ele>111.65000000000001</ele>
        <time>2016-12-18T11:19:54Z</time>
      </trkpt>
      <trkpt lat="51.82180367410183" lon="39.408116396516562">
        <ele>111.65000000000001</ele>
        <time>2016-12-18T11:19:55Z</time>
      </trkpt>
      <trkpt lat="51.821811804547906" lon="39.408184122294188">
        <ele>111.17</ele>
        <time>2016-12-18T11:19:56Z</time>
      </trkpt>
      <trkpt lat="51.821832172572613" lon="39.408849729225039">
        <ele>110.20999999999999</ele>
        <time>2016-12-18T11:20:05Z</time>
      </trkpt>
      <trkpt lat="51.821796130388975" lon="39.409082075580955">
        <ele>110.69</ele>
        <time>2016-12-18T11:20:08Z</time>
      </trkpt>
      <trkpt lat="51.82177634909749" lon="39.409154830500484">
        <ele>110.69</ele>
        <time>2016-12-18T11:20:09Z</time>
      </trkpt>
      <trkpt lat="51.821569232270122" lon="39.40963888540864">
        <ele>110.69</ele>
        <time>2016-12-18T11:20:17Z</time>
      </trkpt>
      <trkpt lat="51.821536459028721" lon="39.409689595922828">
        <ele>110.69</ele>
        <time>2016-12-18T11:20:18Z</time>
      </trkpt>
      <trkpt lat="51.821351554244757" lon="39.409885900095105">
        <ele>112.61</ele>
        <time>2016-12-18T11:20:23Z</time>
      </trkpt>
      <trkpt lat="51.821309309452772" lon="39.409908363595605">
        <ele>113.09</ele>
        <time>2016-12-18T11:20:24Z</time>
      </trkpt>
      <trkpt lat="51.821264130994678" lon="39.40992521122098">
        <ele>113.56999999999999</ele>
        <time>2016-12-18T11:20:25Z</time>
      </trkpt>
      <trkpt lat="51.820637416094542" lon="39.410064350813627">
        <ele>115.01000000000001</ele>
        <time>2016-12-18T11:20:40Z</time>
      </trkpt>
      <trkpt lat="51.820184458047152" lon="39.410224193707108">
        <ele>113.56999999999999</ele>
        <time>2016-12-18T11:20:54Z</time>
      </trkpt>
      <trkpt lat="51.81961708702147" lon="39.410652676597238">
        <ele>110.20999999999999</ele>
        <time>2016-12-18T11:21:07Z</time>
      </trkpt>
      <trkpt lat="51.819059606641531" lon="39.411016283556819">
        <ele>113.09</ele>
        <time>2016-12-18T11:21:19Z</time>
      </trkpt>
      <trkpt lat="51.818428365513682" lon="39.411410400643945">
        <ele>115.5</ele>
        <time>2016-12-18T11:21:33Z</time>
      </trkpt>
      <trkpt lat="51.817969037219882" lon="39.411302106454968">
        <ele>118.86</ele>
        <time>2016-12-18T11:21:44Z</time>
      </trkpt>
      <trkpt lat="51.817420776933432" lon="39.410961382091045">
        <ele>118.86</ele>
        <time>2016-12-18T11:21:56Z</time>
      </trkpt>
      <trkpt lat="51.816851478070021" lon="39.410764910280704">
        <ele>120.78</ele>
        <time>2016-12-18T11:22:10Z</time>
      </trkpt>
      <trkpt lat="51.816287459805608" lon="39.410719648003578">
        <ele>118.86</ele>
        <time>2016-12-18T11:22:22Z</time>
      </trkpt>
      <trkpt lat="51.816235659644008" lon="39.410732053220272">
        <ele>118.86</ele>
        <time>2016-12-18T11:22:23Z</time>
      </trkpt>
      <trkpt lat="51.815794855356216" lon="39.410845963284373">
        <ele>115.01000000000001</ele>
        <time>2016-12-18T11:22:33Z</time>
      </trkpt>
      <trkpt lat="51.815776834264398" lon="39.410828612744808">
        <ele>115.01000000000001</ele>
        <time>2016-12-18T11:22:34Z</time>
      </trkpt>
      <trkpt lat="51.815757304430008" lon="39.410806400701404">
        <ele>115.01000000000001</ele>
        <time>2016-12-18T11:22:35Z</time>
      </trkpt>
      <trkpt lat="51.815732410177588" lon="39.41078620031476">
        <ele>115.01000000000001</ele>
        <time>2016-12-18T11:22:36Z</time>
      </trkpt>
      <trkpt lat="51.815703241154552" lon="39.410759629681706">
        <ele>114.53</ele>
        <time>2016-12-18T11:22:37Z</time>
      </trkpt>
      <trkpt lat="51.815673401579261" lon="39.4107202347368">
        <ele>114.53</ele>
        <time>2016-12-18T11:22:38Z</time>
      </trkpt>
      <trkpt lat="51.815650602802634" lon="39.410677654668689">
        <ele>114.05</ele>
        <time>2016-12-18T11:22:39Z</time>
      </trkpt>
      <trkpt lat="51.815634844824672" lon="39.41063373349607">
        <ele>114.05</ele>
        <time>2016-12-18T11:22:40Z</time>
      </trkpt>
      <trkpt lat="51.815624283626676" lon="39.410589477047324">
        <ele>114.05</ele>
        <time>2016-12-18T11:22:41Z</time>
      </trkpt>
      <trkpt lat="51.815618835389614" lon="39.410543544217944">
        <ele>113.56999999999999</ele>
        <time>2016-12-18T11:22:42Z</time>
      </trkpt>
      <trkpt lat="51.815617829561234" lon="39.410498449578881">
        <ele>113.56999999999999</ele>
        <time>2016-12-18T11:22:43Z</time>
      </trkpt>
      <trkpt lat="51.815617410466075" lon="39.410451762378216">
        <ele>113.09</ele>
        <time>2016-12-18T11:22:44Z</time>
      </trkpt>
      <trkpt lat="51.815726375207305" lon="39.410215727984905">
        <ele>110.69</ele>
        <time>2016-12-18T11:22:53Z</time>
      </trkpt>
      <trkpt lat="51.815728219226003" lon="39.410132495686412">
        <ele>109.25</ele>
        <time>2016-12-18T11:23:05Z</time>
      </trkpt>
      <trkpt lat="51.815724782645702" lon="39.410139704123139">
        <ele>109.25</ele>
        <time>2016-12-18T11:23:49Z</time>
      </trkpt>
      <trkpt lat="51.815702989697456" lon="39.410131489858031">
        <ele>104.92</ele>
        <time>2016-12-18T11:24:39Z</time>
      </trkpt>
      <trkpt lat="51.815715059638023" lon="39.410153785720468">
        <ele>105.88</ele>
        <time>2016-12-18T11:25:16Z</time>
      </trkpt>
      <trkpt lat="51.81568119674921" lon="39.41012310795486">
        <ele>104.92</ele>
        <time>2016-12-18T11:25:52Z</time>
      </trkpt>
      <trkpt lat="51.815711036324501" lon="39.410110870376229">
        <ele>103.48</ele>
        <time>2016-12-18T11:26:35Z</time>
      </trkpt>
      <trkpt lat="51.815729895606637" lon="39.410102237015963">
        <ele>103.48</ele>
        <time>2016-12-18T11:27:25Z</time>
      </trkpt>
      <trkpt lat="51.815730147063732" lon="39.41010064445436">
        <ele>105.40000000000001</ele>
        <time>2016-12-18T11:28:08Z</time>
      </trkpt>
      <trkpt lat="51.815713634714484" lon="39.41010114736855">
        <ele>108.77</ele>
        <time>2016-12-18T11:28:54Z</time>
      </trkpt>
      <trkpt lat="51.815719082951546" lon="39.410113301128149">
        <ele>107.31999999999999</ele>
        <time>2016-12-18T11:29:42Z</time>
      </trkpt>
      <trkpt lat="51.815716400742531" lon="39.410112127661705">
        <ele>103.48</ele>
        <time>2016-12-18T11:30:27Z</time>
      </trkpt>
      <trkpt lat="51.81571832858026" lon="39.410109696909785">
        <ele>104.44</ele>
        <time>2016-12-18T11:31:18Z</time>
      </trkpt>
      <trkpt lat="51.815705085173249" lon="39.410131992772222">
        <ele>107.31999999999999</ele>
        <time>2016-12-18T11:32:04Z</time>
      </trkpt>
      <trkpt lat="51.815712545067072" lon="39.410142134875059">
        <ele>107.31999999999999</ele>
        <time>2016-12-18T11:32:44Z</time>
      </trkpt>
      <trkpt lat="51.815709192305803" lon="39.410146158188581">
        <ele>106.84</ele>
        <time>2016-12-18T11:33:29Z</time>
      </trkpt>
      <trkpt lat="51.81570558808744" lon="39.410125203430653">
        <ele>104.92</ele>
        <time>2016-12-18T11:34:07Z</time>
      </trkpt>
      <trkpt lat="51.815697122365236" lon="39.410112462937832">
        <ele>104.92</ele>
        <time>2016-12-18T11:34:52Z</time>
      </trkpt>
      <trkpt lat="51.815700894221663" lon="39.41010701470077">
        <ele>104.44</ele>
        <time>2016-12-18T11:35:30Z</time>
      </trkpt>
      <trkpt lat="51.815682705491781" lon="39.410109529271722">
        <ele>104.44</ele>
        <time>2016-12-18T11:36:01Z</time>
      </trkpt>
      <trkpt lat="51.815708354115486" lon="39.410104919224977">
        <ele>105.88</ele>
        <time>2016-12-18T11:36:39Z</time>
      </trkpt>
      <trkpt lat="51.815706007182598" lon="39.410090837627649">
        <ele>108.77</ele>
        <time>2016-12-18T11:37:19Z</time>
      </trkpt>
      <trkpt lat="51.815710114315152" lon="39.410090334713459">
        <ele>105.88</ele>
        <time>2016-12-18T11:37:54Z</time>
      </trkpt>
      <trkpt lat="51.815698463469744" lon="39.410109110176563">
        <ele>109.25</ele>
        <time>2016-12-18T11:38:32Z</time>
      </trkpt>
      <trkpt lat="51.815720675513148" lon="39.410165688022971">
        <ele>110.69</ele>
        <time>2016-12-18T11:38:57Z</time>
      </trkpt>
      <trkpt lat="51.815716652199626" lon="39.410191085189581">
        <ele>111.17</ele>
        <time>2016-12-18T11:39:15Z</time>
      </trkpt>
      <trkpt lat="51.815718244761229" lon="39.410207513719797">
        <ele>109.73</ele>
        <time>2016-12-18T11:39:21Z</time>
      </trkpt>
      <trkpt lat="51.815717993304133" lon="39.410230061039329">
        <ele>109.73</ele>
        <time>2016-12-18T11:39:22Z</time>
      </trkpt>
      <trkpt lat="51.815720004960895" lon="39.410249926149845">
        <ele>109.25</ele>
        <time>2016-12-18T11:39:23Z</time>
      </trkpt>
      <trkpt lat="51.815720340237021" lon="39.410271970555186">
        <ele>109.25</ele>
        <time>2016-12-18T11:39:24Z</time>
      </trkpt>
      <trkpt lat="51.815717071294785" lon="39.410295691341162">
        <ele>109.25</ele>
        <time>2016-12-18T11:39:25Z</time>
      </trkpt>
      <trkpt lat="51.815709108486772" lon="39.41032636910677">
        <ele>109.25</ele>
        <time>2016-12-18T11:39:26Z</time>
      </trkpt>
      <trkpt lat="51.815695026889443" lon="39.410357801243663">
        <ele>109.73</ele>
        <time>2016-12-18T11:39:27Z</time>
      </trkpt>
      <trkpt lat="51.815678095445037" lon="39.410389987751842">
        <ele>109.25</ele>
        <time>2016-12-18T11:39:28Z</time>
      </trkpt>
      <trkpt lat="51.815563850104809" lon="39.410854680463672">
        <ele>108.77</ele>
        <time>2016-12-18T11:39:40Z</time>
      </trkpt>
      <trkpt lat="51.815257910639048" lon="39.411036986857653">
        <ele>107.81</ele>
        <time>2016-12-18T11:39:53Z</time>
      </trkpt>
      <trkpt lat="51.814721971750259" lon="39.411327755078673">
        <ele>107.31999999999999</ele>
        <time>2016-12-18T11:40:08Z</time>
      </trkpt>
      <trkpt lat="51.81399148888886" lon="39.411786496639252">
        <ele>106.84</ele>
        <time>2016-12-18T11:40:25Z</time>
      </trkpt>
      <trkpt lat="51.813585218042135" lon="39.412028063088655">
        <ele>106.36</ele>
        <time>2016-12-18T11:40:35Z</time>
      </trkpt>
      <trkpt lat="51.813544146716595" lon="39.412050358951092">
        <ele>106.36</ele>
        <time>2016-12-18T11:40:36Z</time>
      </trkpt>
      <trkpt lat="51.812679134309292" lon="39.412480015307665">
        <ele>109.25</ele>
        <time>2016-12-18T11:40:57Z</time>
      </trkpt>
      <trkpt lat="51.811784533783793" lon="39.412818644195795">
        <ele>109.73</ele>
        <time>2016-12-18T11:41:18Z</time>
      </trkpt>
      <trkpt lat="51.811492424458265" lon="39.412958705797791">
        <ele>110.69</ele>
        <time>2016-12-18T11:41:25Z</time>
      </trkpt>
      <trkpt lat="51.811451185494661" lon="39.41298452205956">
        <ele>110.69</ele>
        <time>2016-12-18T11:41:26Z</time>
      </trkpt>
      <trkpt lat="51.81141153909266" lon="39.413007572293282">
        <ele>110.69</ele>
        <time>2016-12-18T11:41:27Z</time>
      </trkpt>
      <trkpt lat="51.810637470334768" lon="39.413565052673221">
        <ele>111.17</ele>
        <time>2016-12-18T11:41:47Z</time>
      </trkpt>
      <trkpt lat="51.810018802061677" lon="39.41383084282279">
        <ele>109.73</ele>
        <time>2016-12-18T11:42:00Z</time>
      </trkpt>
      <trkpt lat="51.809967001900077" lon="39.413837380707264">
        <ele>109.73</ele>
        <time>2016-12-18T11:42:01Z</time>
      </trkpt>
      <trkpt lat="51.809916961938143" lon="39.413837296888232">
        <ele>109.73</ele>
        <time>2016-12-18T11:42:02Z</time>
      </trkpt>
      <trkpt lat="51.809870358556509" lon="39.413823802024126">
        <ele>109.73</ele>
        <time>2016-12-18T11:42:03Z</time>
      </trkpt>
      <trkpt lat="51.809826856479049" lon="39.413803685456514">
        <ele>109.73</ele>
        <time>2016-12-18T11:42:04Z</time>
      </trkpt>
      <trkpt lat="51.80978637188673" lon="39.413775186985731">
        <ele>109.25</ele>
        <time>2016-12-18T11:42:05Z</time>
      </trkpt>
      <trkpt lat="51.809751838445663" lon="39.413735624402761">
        <ele>109.25</ele>
        <time>2016-12-18T11:42:06Z</time>
      </trkpt>
      <trkpt lat="51.809724848717451" lon="39.41368717700243">
        <ele>109.25</ele>
        <time>2016-12-18T11:42:07Z</time>
      </trkpt>
      <trkpt lat="51.809700457379222" lon="39.413623809814453">
        <ele>109.25</ele>
        <time>2016-12-18T11:42:08Z</time>
      </trkpt>
      <trkpt lat="51.809679251164198" lon="39.413551557809114">
        <ele>109.25</ele>
        <time>2016-12-18T11:42:09Z</time>
      </trkpt>
      <trkpt lat="51.809660978615284" lon="39.413480143994093">
        <ele>109.25</ele>
        <time>2016-12-18T11:42:10Z</time>
      </trkpt>
      <trkpt lat="51.809567855671048" lon="39.413201780989766">
        <ele>108.77</ele>
        <time>2016-12-18T11:42:14Z</time>
      </trkpt>
      <trkpt lat="51.809538519009948" lon="39.413145622238517">
        <ele>109.25</ele>
        <time>2016-12-18T11:42:15Z</time>
      </trkpt>
      <trkpt lat="51.809505075216293" lon="39.413098096847534">
        <ele>109.25</ele>
        <time>2016-12-18T11:42:16Z</time>
      </trkpt>
      <trkpt lat="51.809470290318131" lon="39.413058031350374">
        <ele>109.25</ele>
        <time>2016-12-18T11:42:17Z</time>
      </trkpt>
      <trkpt lat="51.809434583410621" lon="39.413021737709641">
        <ele>109.73</ele>
        <time>2016-12-18T11:42:18Z</time>
      </trkpt>
      <trkpt lat="51.80874265730381" lon="39.412687215954065">
        <ele>111.65000000000001</ele>
        <time>2016-12-18T11:42:34Z</time>
      </trkpt>
      <trkpt lat="51.807924248278141" lon="39.412567606195807">
        <ele>114.05</ele>
        <time>2016-12-18T11:42:50Z</time>
      </trkpt>
      <trkpt lat="51.807038448750973" lon="39.412070726975799">
        <ele>114.05</ele>
        <time>2016-12-18T11:43:08Z</time>
      </trkpt>
      <trkpt lat="51.806098166853189" lon="39.411768559366465">
        <ele>114.05</ele>
        <time>2016-12-18T11:43:27Z</time>
      </trkpt>
      <trkpt lat="51.805488718673587" lon="39.411448705941439">
        <ele>113.56999999999999</ele>
        <time>2016-12-18T11:43:41Z</time>
      </trkpt>
      <trkpt lat="51.804614318534732" lon="39.411177132278681">
        <ele>113.09</ele>
        <time>2016-12-18T11:43:56Z</time>
      </trkpt>
      <trkpt lat="51.803991962224245" lon="39.410996166989207">
        <ele>117.42</ele>
        <time>2016-12-18T11:44:07Z</time>
      </trkpt>
      <trkpt lat="51.803857600316405" lon="39.410982336848974">
        <ele>117.90000000000001</ele>
        <time>2016-12-18T11:44:10Z</time>
      </trkpt>
      <trkpt lat="51.80381485261023" lon="39.410971021279693">
        <ele>117.90000000000001</ele>
        <time>2016-12-18T11:44:11Z</time>
      </trkpt>
      <trkpt lat="51.803002981469035" lon="39.410762060433626">
        <ele>116.45999999999999</ele>
        <time>2016-12-18T11:44:27Z</time>
      </trkpt>
      <trkpt lat="51.802406692877412" lon="39.410597607493401">
        <ele>115.98</ele>
        <time>2016-12-18T11:44:36Z</time>
      </trkpt>
      <trkpt lat="51.801663469523191" lon="39.410391664132476">
        <ele>120.3</ele>
        <time>2016-12-18T11:44:49Z</time>
      </trkpt>
      <trkpt lat="51.800941284745932" lon="39.410199718549848">
        <ele>121.73999999999999</ele>
        <time>2016-12-18T11:45:08Z</time>
      </trkpt>
      <trkpt lat="51.800323035567999" lon="39.410027386620641">
        <ele>120.78</ele>
        <time>2016-12-18T11:45:22Z</time>
      </trkpt>
      <trkpt lat="51.799676539376378" lon="39.409857988357544">
        <ele>123.19</ele>
        <time>2016-12-18T11:45:36Z</time>
      </trkpt>
      <trkpt lat="51.799069689586759" lon="39.409699402749538">
        <ele>124.63</ele>
        <time>2016-12-18T11:45:49Z</time>
      </trkpt>
      <trkpt lat="51.798309367150068" lon="39.409498488530517">
        <ele>123.19</ele>
        <time>2016-12-18T11:46:03Z</time>
      </trkpt>
      <trkpt lat="51.797325247898698" lon="39.409237643703818">
        <ele>123.67</ele>
        <time>2016-12-18T11:46:21Z</time>
      </trkpt>
      <trkpt lat="51.796951917931437" lon="39.409134713932872">
        <ele>125.11</ele>
        <time>2016-12-18T11:46:28Z</time>
      </trkpt>
      <trkpt lat="51.796904476359487" lon="39.409118872135878">
        <ele>125.59</ele>
        <time>2016-12-18T11:46:29Z</time>
      </trkpt>
      <trkpt lat="51.796635333448648" lon="39.409050308167934">
        <ele>126.55</ele>
        <time>2016-12-18T11:46:35Z</time>
      </trkpt>
      <trkpt lat="51.795725980773568" lon="39.408809412270784">
        <ele>125.59</ele>
        <time>2016-12-18T11:46:53Z</time>
      </trkpt>
      <trkpt lat="51.795302275568247" lon="39.408692652359605">
        <ele>124.63</ele>
        <time>2016-12-18T11:47:05Z</time>
      </trkpt>
      <trkpt lat="51.794627532362938" lon="39.408537419512868">
        <ele>126.06999999999999</ele>
        <time>2016-12-18T11:47:20Z</time>
      </trkpt>
      <trkpt lat="51.793885482475162" lon="39.40833474509418">
        <ele>125.59</ele>
        <time>2016-12-18T11:47:35Z</time>
      </trkpt>
      <trkpt lat="51.793006053194404" lon="39.408123688772321">
        <ele>127.51000000000001</ele>
        <time>2016-12-18T11:47:53Z</time>
      </trkpt>
      <trkpt lat="51.792177753522992" lon="39.407909195870161">
        <ele>126.55</ele>
        <time>2016-12-18T11:48:10Z</time>
      </trkpt>
      <trkpt lat="51.791219534352422" lon="39.407655727118254">
        <ele>127.03</ele>
        <time>2016-12-18T11:48:29Z</time>
      </trkpt>
      <trkpt lat="51.790381511673331" lon="39.407426733523607">
        <ele>127.03</ele>
        <time>2016-12-18T11:48:47Z</time>
      </trkpt>
      <trkpt lat="51.789549272507429" lon="39.407214252278209">
        <ele>127.98999999999999</ele>
        <time>2016-12-18T11:49:05Z</time>
      </trkpt>
      <trkpt lat="51.788893891498446" lon="39.407046530395746">
        <ele>127.51000000000001</ele>
        <time>2016-12-18T11:49:19Z</time>
      </trkpt>
      <trkpt lat="51.788160977885127" lon="39.406865648925304">
        <ele>127.98999999999999</ele>
        <time>2016-12-18T11:49:35Z</time>
      </trkpt>
      <trkpt lat="51.787323877215385" lon="39.406655766069889">
        <ele>128.47</ele>
        <time>2016-12-18T11:49:53Z</time>
      </trkpt>
      <trkpt lat="51.786513682454824" lon="39.406440434977412">
        <ele>128.47</ele>
        <time>2016-12-18T11:50:10Z</time>
      </trkpt>
      <trkpt lat="51.785793760791421" lon="39.40625318326056">
        <ele>129.43000000000001</ele>
        <time>2016-12-18T11:50:25Z</time>
      </trkpt>
      <trkpt lat="51.784965209662914" lon="39.406032990664244">
        <ele>131.36000000000001</ele>
        <time>2016-12-18T11:50:42Z</time>
      </trkpt>
      <trkpt lat="51.78417781367898" lon="39.405818833038211">
        <ele>132.31999999999999</ele>
        <time>2016-12-18T11:50:59Z</time>
      </trkpt>
      <trkpt lat="51.783484295010567" lon="39.40563602373004">
        <ele>131.36000000000001</ele>
        <time>2016-12-18T11:51:14Z</time>
      </trkpt>
      <trkpt lat="51.782822040840983" lon="39.405456986278296">
        <ele>131.84</ele>
        <time>2016-12-18T11:51:30Z</time>
      </trkpt>
      <trkpt lat="51.782269002869725" lon="39.405308458954096">
        <ele>130.40000000000001</ele>
        <time>2016-12-18T11:51:44Z</time>
      </trkpt>
      <trkpt lat="51.781685957685113" lon="39.405210306867957">
        <ele>129.43000000000001</ele>
        <time>2016-12-18T11:52:00Z</time>
      </trkpt>
      <trkpt lat="51.78123383782804" lon="39.405486490577459">
        <ele>129.43000000000001</ele>
        <time>2016-12-18T11:52:13Z</time>
      </trkpt>
      <trkpt lat="51.780842235311866" lon="39.4059091899544">
        <ele>129.43000000000001</ele>
        <time>2016-12-18T11:52:27Z</time>
      </trkpt>
      <trkpt lat="51.780580468475819" lon="39.406487457454205">
        <ele>128.47</ele>
        <time>2016-12-18T11:52:40Z</time>
      </trkpt>
      <trkpt lat="51.78031082265079" lon="39.407294718548656">
        <ele>128.47</ele>
        <time>2016-12-18T11:52:55Z</time>
      </trkpt>
      <trkpt lat="51.78014955483377" lon="39.40818571485579">
        <ele>126.55</ele>
        <time>2016-12-18T11:53:10Z</time>
      </trkpt>
      <trkpt lat="51.780015025287867" lon="39.409332610666752">
        <ele>123.19</ele>
        <time>2016-12-18T11:53:24Z</time>
      </trkpt>
      <trkpt lat="51.780000692233443" lon="39.409571662545204">
        <ele>122.70999999999999</ele>
        <time>2016-12-18T11:53:27Z</time>
      </trkpt>
      <trkpt lat="51.7799770552665" lon="39.409966114908457">
        <ele>122.22</ele>
        <time>2016-12-18T11:53:32Z</time>
      </trkpt>
      <trkpt lat="51.77987102419138" lon="39.411142598837614">
        <ele>120.3</ele>
        <time>2016-12-18T11:53:47Z</time>
      </trkpt>
      <trkpt lat="51.779849398881197" lon="39.411455076187849">
        <ele>119.81999999999999</ele>
        <time>2016-12-18T11:53:51Z</time>
      </trkpt>
      <trkpt lat="51.779822828248143" lon="39.411899484694004">
        <ele>119.34</ele>
        <time>2016-12-18T11:53:57Z</time>
      </trkpt>
      <trkpt lat="51.779796006157994" lon="39.412322854623199">
        <ele>120.3</ele>
        <time>2016-12-18T11:54:03Z</time>
      </trkpt>
      <trkpt lat="51.779771782457829" lon="39.41266592592001">
        <ele>121.73999999999999</ele>
        <time>2016-12-18T11:54:08Z</time>
      </trkpt>
      <trkpt lat="51.779769854620099" lon="39.412741530686617">
        <ele>121.73999999999999</ele>
        <time>2016-12-18T11:54:09Z</time>
      </trkpt>
      <trkpt lat="51.779666170477867" lon="39.413496991619468">
        <ele>120.78</ele>
        <time>2016-12-18T11:54:21Z</time>
      </trkpt>
      <trkpt lat="51.779622919857502" lon="39.413963695988059">
        <ele>125.11</ele>
        <time>2016-12-18T11:54:35Z</time>
      </trkpt>
      <trkpt lat="51.779620656743646" lon="39.413993032649159">
        <ele>125.59</ele>
        <time>2016-12-18T11:54:36Z</time>
      </trkpt>
      <trkpt lat="51.779614957049489" lon="39.414020944386721">
        <ele>125.59</ele>
        <time>2016-12-18T11:54:37Z</time>
      </trkpt>
      <trkpt lat="51.779609592631459" lon="39.41404826939106">
        <ele>125.59</ele>
        <time>2016-12-18T11:54:38Z</time>
      </trkpt>
      <trkpt lat="51.779603306204081" lon="39.41407710313797">
        <ele>125.59</ele>
        <time>2016-12-18T11:54:39Z</time>
      </trkpt>
      <trkpt lat="51.779596852138638" lon="39.414113815873861">
        <ele>125.59</ele>
        <time>2016-12-18T11:54:40Z</time>
      </trkpt>
      <trkpt lat="51.779591906815767" lon="39.414157988503575">
        <ele>125.59</ele>
        <time>2016-12-18T11:54:41Z</time>
      </trkpt>
      <trkpt lat="51.779586290940642" lon="39.414193276315928">
        <ele>125.59</ele>
        <time>2016-12-18T11:54:42Z</time>
      </trkpt>
      <trkpt lat="51.7794987000525" lon="39.414745727553964">
        <ele>124.63</ele>
        <time>2016-12-18T11:54:55Z</time>
      </trkpt>
      <trkpt lat="51.779452934861183" lon="39.41511838696897">
        <ele>125.11</ele>
        <time>2016-12-18T11:55:01Z</time>
      </trkpt>
      <trkpt lat="51.779439859092236" lon="39.4151945784688">
        <ele>124.63</ele>
        <time>2016-12-18T11:55:02Z</time>
      </trkpt>
      <trkpt lat="51.779428292065859" lon="39.415274877101183">
        <ele>124.63</ele>
        <time>2016-12-18T11:55:03Z</time>
      </trkpt>
      <trkpt lat="51.779385292902589" lon="39.415820706635714">
        <ele>124.15000000000001</ele>
        <time>2016-12-18T11:55:10Z</time>
      </trkpt>
      <trkpt lat="51.779311951249838" lon="39.416747493669391">
        <ele>124.63</ele>
        <time>2016-12-18T11:55:21Z</time>
      </trkpt>
      <trkpt lat="51.779313292354345" lon="39.416838102042675">
        <ele>125.11</ele>
        <time>2016-12-18T11:55:22Z</time>
      </trkpt>
      <trkpt lat="51.779308933764696" lon="39.41692678257823">
        <ele>125.11</ele>
        <time>2016-12-18T11:55:23Z</time>
      </trkpt>
      <trkpt lat="51.779276914894581" lon="39.417332634329796">
        <ele>125.11</ele>
        <time>2016-12-18T11:55:28Z</time>
      </trkpt>
      <trkpt lat="51.77926710806787" lon="39.417400611564517">
        <ele>124.63</ele>
        <time>2016-12-18T11:55:29Z</time>
      </trkpt>
      <trkpt lat="51.779257720336318" lon="39.417476048693061">
        <ele>124.63</ele>
        <time>2016-12-18T11:55:30Z</time>
      </trkpt>
      <trkpt lat="51.779190748929977" lon="39.418080970644951">
        <ele>123.67</ele>
        <time>2016-12-18T11:55:38Z</time>
      </trkpt>
      <trkpt lat="51.779182953760028" lon="39.41823779605329">
        <ele>123.19</ele>
        <time>2016-12-18T11:55:40Z</time>
      </trkpt>
      <trkpt lat="51.779181780293584" lon="39.418399482965469">
        <ele>123.19</ele>
        <time>2016-12-18T11:55:42Z</time>
      </trkpt>
      <trkpt lat="51.779161831364036" lon="39.418629482388496">
        <ele>122.70999999999999</ele>
        <time>2016-12-18T11:55:45Z</time>
      </trkpt>
      <trkpt lat="51.779153700917959" lon="39.418702153488994">
        <ele>122.70999999999999</ele>
        <time>2016-12-18T11:55:46Z</time>
      </trkpt>
      <trkpt lat="51.779145821928978" lon="39.418781362473965">
        <ele>122.22</ele>
        <time>2016-12-18T11:55:47Z</time>
      </trkpt>
      <trkpt lat="51.779135009273887" lon="39.418853111565113">
        <ele>122.22</ele>
        <time>2016-12-18T11:55:48Z</time>
      </trkpt>
      <trkpt lat="51.779121262952685" lon="39.418924609199166">
        <ele>122.22</ele>
        <time>2016-12-18T11:55:49Z</time>
      </trkpt>
      <trkpt lat="51.779107265174389" lon="39.418994598090649">
        <ele>122.22</ele>
        <time>2016-12-18T11:55:50Z</time>
      </trkpt>
      <trkpt lat="51.779093015938997" lon="39.419067436829209">
        <ele>122.22</ele>
        <time>2016-12-18T11:55:51Z</time>
      </trkpt>
      <trkpt lat="51.779076084494591" lon="39.419135916978121">
        <ele>121.73999999999999</ele>
        <time>2016-12-18T11:55:52Z</time>
      </trkpt>
      <trkpt lat="51.779061667621136" lon="39.419203558936715">
        <ele>121.73999999999999</ele>
        <time>2016-12-18T11:55:53Z</time>
      </trkpt>
      <trkpt lat="51.779050603508949" lon="39.419276565313339">
        <ele>121.26000000000001</ele>
        <time>2016-12-18T11:55:54Z</time>
      </trkpt>
      <trkpt lat="51.778992433100939" lon="39.419925156980753">
        <ele>121.26000000000001</ele>
        <time>2016-12-18T11:56:03Z</time>
      </trkpt>
      <trkpt lat="51.778920767828822" lon="39.42060325294733">
        <ele>122.22</ele>
        <time>2016-12-18T11:56:13Z</time>
      </trkpt>
      <trkpt lat="51.778911547735333" lon="39.420672319829464">
        <ele>122.70999999999999</ele>
        <time>2016-12-18T11:56:14Z</time>
      </trkpt>
      <trkpt lat="51.778869386762381" lon="39.421169115230441">
        <ele>123.67</ele>
        <time>2016-12-18T11:56:21Z</time>
      </trkpt>
      <trkpt lat="51.778862681239843" lon="39.421239690855145">
        <ele>123.67</ele>
        <time>2016-12-18T11:56:22Z</time>
      </trkpt>
      <trkpt lat="51.778855388984084" lon="39.42130540497601">
        <ele>123.67</ele>
        <time>2016-12-18T11:56:23Z</time>
      </trkpt>
      <trkpt lat="51.77883124910295" lon="39.42165962420404">
        <ele>123.19</ele>
        <time>2016-12-18T11:56:28Z</time>
      </trkpt>
      <trkpt lat="51.77882781252265" lon="39.421809324994683">
        <ele>122.70999999999999</ele>
        <time>2016-12-18T11:56:30Z</time>
      </trkpt>
      <trkpt lat="51.778812808915973" lon="39.42202172242105">
        <ele>122.70999999999999</ele>
        <time>2016-12-18T11:56:33Z</time>
      </trkpt>
      <trkpt lat="51.778702000156045" lon="39.422847339883447">
        <ele>123.19</ele>
        <time>2016-12-18T11:56:46Z</time>
      </trkpt>
      <trkpt lat="51.778688924387097" lon="39.423253023996949">
        <ele>124.63</ele>
        <time>2016-12-18T11:56:52Z</time>
      </trkpt>
      <trkpt lat="51.778599238023162" lon="39.424063889309764">
        <ele>124.63</ele>
        <time>2016-12-18T11:57:05Z</time>
      </trkpt>
      <trkpt lat="51.778588257730007" lon="39.424127759411931">
        <ele>124.63</ele>
        <time>2016-12-18T11:57:06Z</time>
      </trkpt>
      <trkpt lat="51.77856981754303" lon="39.424193305894732">
        <ele>124.63</ele>
        <time>2016-12-18T11:57:07Z</time>
      </trkpt>
      <trkpt lat="51.77854685112834" lon="39.424247620627284">
        <ele>124.15000000000001</ele>
        <time>2016-12-18T11:57:08Z</time>
      </trkpt>
      <trkpt lat="51.778514916077256" lon="39.42429531365633">
        <ele>124.15000000000001</ele>
        <time>2016-12-18T11:57:09Z</time>
      </trkpt>
      <trkpt lat="51.778478203341365" lon="39.424331523478031">
        <ele>123.67</ele>
        <time>2016-12-18T11:57:10Z</time>
      </trkpt>
      <trkpt lat="51.778439981862903" lon="39.424357926473022">
        <ele>123.67</ele>
        <time>2016-12-18T11:57:11Z</time>
      </trkpt>
      <trkpt lat="51.778400838375092" lon="39.424377288669348">
        <ele>123.67</ele>
        <time>2016-12-18T11:57:12Z</time>
      </trkpt>
      <trkpt lat="51.778359347954392" lon="39.424391370266676">
        <ele>123.67</ele>
        <time>2016-12-18T11:57:13Z</time>
      </trkpt>
      <trkpt lat="51.778318276628852" lon="39.424401512369514">
        <ele>124.15000000000001</ele>
        <time>2016-12-18T11:57:14Z</time>
      </trkpt>
      <trkpt lat="51.77760623395443" lon="39.424428753554821">
        <ele>127.03</ele>
        <time>2016-12-18T11:57:31Z</time>
      </trkpt>
      <trkpt lat="51.777040204033256" lon="39.424425233155489">
        <ele>131.36000000000001</ele>
        <time>2016-12-18T11:57:43Z</time>
      </trkpt>
      <trkpt lat="51.776427906006575" lon="39.424432022497058">
        <ele>134.24000000000001</ele>
        <time>2016-12-18T11:57:56Z</time>
      </trkpt>
      <trkpt lat="51.775696165859699" lon="39.424388352781534">
        <ele>135.19999999999999</ele>
        <time>2016-12-18T11:58:11Z</time>
      </trkpt>
      <trkpt lat="51.775058470666409" lon="39.424371505156159">
        <ele>136.63999999999999</ele>
        <time>2016-12-18T11:58:24Z</time>
      </trkpt>
      <trkpt lat="51.774813299998641" lon="39.4243642129004">
        <ele>137.13</ele>
        <time>2016-12-18T11:58:29Z</time>
      </trkpt>
      <trkpt lat="51.774516245350242" lon="39.424333786591887">
        <ele>136.16</ele>
        <time>2016-12-18T11:58:35Z</time>
      </trkpt>
      <trkpt lat="51.77411693148315" lon="39.424325739964843">
        <ele>136.16</ele>
        <time>2016-12-18T11:58:43Z</time>
      </trkpt>
      <trkpt lat="51.774071836844087" lon="39.42432020790875">
        <ele>136.63999999999999</ele>
        <time>2016-12-18T11:58:44Z</time>
      </trkpt>
      <trkpt lat="51.773501615971327" lon="39.424317190423608">
        <ele>137.61000000000001</ele>
        <time>2016-12-18T11:58:58Z</time>
      </trkpt>
      <trkpt lat="51.773153934627771" lon="39.424309814348817">
        <ele>138.56999999999999</ele>
        <time>2016-12-18T11:59:08Z</time>
      </trkpt>
      <trkpt lat="51.772858807817101" lon="39.424273604527116">
        <ele>138.09</ele>
        <time>2016-12-18T11:59:19Z</time>
      </trkpt>
      <trkpt lat="51.772459913045168" lon="39.424270335584879">
        <ele>138.56999999999999</ele>
        <time>2016-12-18T11:59:30Z</time>
      </trkpt>
      <trkpt lat="51.772228069603443" lon="39.424248626455665">
        <ele>138.56999999999999</ele>
        <time>2016-12-18T11:59:37Z</time>
      </trkpt>
      <trkpt lat="51.771983737125993" lon="39.424253823235631">
        <ele>139.05000000000001</ele>
        <time>2016-12-18T11:59:43Z</time>
      </trkpt>
      <trkpt lat="51.771782236173749" lon="39.424276119098067">
        <ele>138.56999999999999</ele>
        <time>2016-12-18T11:59:47Z</time>
      </trkpt>
      <trkpt lat="51.771739069372416" lon="39.424268743023276">
        <ele>138.56999999999999</ele>
        <time>2016-12-18T11:59:48Z</time>
      </trkpt>
      <trkpt lat="51.771596996113658" lon="39.424243094399571">
        <ele>137.61000000000001</ele>
        <time>2016-12-18T11:59:51Z</time>
      </trkpt>
      <trkpt lat="51.771491970866919" lon="39.424236472696066">
        <ele>137.13</ele>
        <time>2016-12-18T11:59:53Z</time>
      </trkpt>
      <trkpt lat="51.77095603197813" lon="39.424181487411261">
        <ele>136.63999999999999</ele>
        <time>2016-12-18T12:00:04Z</time>
      </trkpt>
      <trkpt lat="51.770721422508359" lon="39.424172267317772">
        <ele>136.63999999999999</ele>
        <time>2016-12-18T12:00:09Z</time>
      </trkpt>
      <trkpt lat="51.770678339526057" lon="39.424180733039975">
        <ele>136.63999999999999</ele>
        <time>2016-12-18T12:00:10Z</time>
      </trkpt>
      <trkpt lat="51.770555796101689" lon="39.424205543473363">
        <ele>137.13</ele>
        <time>2016-12-18T12:00:13Z</time>
      </trkpt>
      <trkpt lat="51.770297968760133" lon="39.424204705283046">
        <ele>136.63999999999999</ele>
        <time>2016-12-18T12:00:19Z</time>
      </trkpt>
      <trkpt lat="51.770249018445611" lon="39.424194060266018">
        <ele>136.16</ele>
        <time>2016-12-18T12:00:20Z</time>
      </trkpt>
      <trkpt lat="51.770155308768153" lon="39.42417411133647">
        <ele>136.16</ele>
        <time>2016-12-18T12:00:22Z</time>
      </trkpt>
      <trkpt lat="51.769409738481045" lon="39.424153575673699">
        <ele>135.68000000000001</ele>
        <time>2016-12-18T12:00:36Z</time>
      </trkpt>
      <trkpt lat="51.768670286983252" lon="39.424128429964185">
        <ele>134.24000000000001</ele>
        <time>2016-12-18T12:00:49Z</time>
      </trkpt>
      <trkpt lat="51.767918094992638" lon="39.424124574288726">
        <ele>135.68000000000001</ele>
        <time>2016-12-18T12:01:01Z</time>
      </trkpt>
      <trkpt lat="51.767736710608006" lon="39.424117868766189">
        <ele>135.68000000000001</ele>
        <time>2016-12-18T12:01:04Z</time>
      </trkpt>
      <trkpt lat="51.76767879165709" lon="39.424101440235972">
        <ele>135.68000000000001</ele>
        <time>2016-12-18T12:01:05Z</time>
      </trkpt>
      <trkpt lat="51.767627829685807" lon="39.424090459942818">
        <ele>135.19999999999999</ele>
        <time>2016-12-18T12:01:06Z</time>
      </trkpt>
      <trkpt lat="51.767575610429049" lon="39.424088448286057">
        <ele>135.68000000000001</ele>
        <time>2016-12-18T12:01:07Z</time>
      </trkpt>
      <trkpt lat="51.767525067552924" lon="39.424096243456006">
        <ele>135.68000000000001</ele>
        <time>2016-12-18T12:01:08Z</time>
      </trkpt>
      <trkpt lat="51.767473183572292" lon="39.4241052120924">
        <ele>135.68000000000001</ele>
        <time>2016-12-18T12:01:09Z</time>
      </trkpt>
      <trkpt lat="51.76741836592555" lon="39.424104876816273">
        <ele>135.68000000000001</ele>
        <time>2016-12-18T12:01:10Z</time>
      </trkpt>
      <trkpt lat="51.767360446974635" lon="39.424097584560513">
        <ele>135.68000000000001</ele>
        <time>2016-12-18T12:01:11Z</time>
      </trkpt>
      <trkpt lat="51.767230862751603" lon="39.42407637834549">
        <ele>135.19999999999999</ele>
        <time>2016-12-18T12:01:13Z</time>
      </trkpt>
      <trkpt lat="51.767097087576985" lon="39.42408082075417">
        <ele>134.72</ele>
        <time>2016-12-18T12:01:15Z</time>
      </trkpt>
      <trkpt lat="51.766905980184674" lon="39.424088280647993">
        <ele>133.75999999999999</ele>
        <time>2016-12-18T12:01:18Z</time>
      </trkpt>
      <trkpt lat="51.766086062416434" lon="39.424062967300415">
        <ele>131.36000000000001</ele>
        <time>2016-12-18T12:01:31Z</time>
      </trkpt>
      <trkpt lat="51.765142763033509" lon="39.424011167138815">
        <ele>129.91999999999999</ele>
        <time>2016-12-18T12:01:46Z</time>
      </trkpt>
      <trkpt lat="51.764297280460596" lon="39.423988033086061">
        <ele>127.03</ele>
        <time>2016-12-18T12:02:00Z</time>
      </trkpt>
      <trkpt lat="51.763848261907697" lon="39.423989374190569">
        <ele>127.51000000000001</ele>
        <time>2016-12-18T12:02:07Z</time>
      </trkpt>
      <trkpt lat="51.762943938374519" lon="39.423948721960187">
        <ele>126.55</ele>
        <time>2016-12-18T12:02:21Z</time>
      </trkpt>
      <trkpt lat="51.762298364192247" lon="39.423949392512441">
        <ele>124.63</ele>
        <time>2016-12-18T12:02:31Z</time>
      </trkpt>
      <trkpt lat="51.762169199064374" lon="39.42395081743598">
        <ele>124.15000000000001</ele>
        <time>2016-12-18T12:02:33Z</time>
      </trkpt>
      <trkpt lat="51.762106334790587" lon="39.423934305086732">
        <ele>124.15000000000001</ele>
        <time>2016-12-18T12:02:34Z</time>
      </trkpt>
      <trkpt lat="51.762049170210958" lon="39.423914523795247">
        <ele>124.15000000000001</ele>
        <time>2016-12-18T12:02:35Z</time>
      </trkpt>
      <trkpt lat="51.761992927640676" lon="39.42390438169241">
        <ele>124.15000000000001</ele>
        <time>2016-12-18T12:02:36Z</time>
      </trkpt>
      <trkpt lat="51.761936098337173" lon="39.423900777474046">
        <ele>124.15000000000001</ele>
        <time>2016-12-18T12:02:37Z</time>
      </trkpt>
      <trkpt lat="51.761464532464743" lon="39.42388434894383">
        <ele>122.70999999999999</ele>
        <time>2016-12-18T12:02:45Z</time>
      </trkpt>
      <trkpt lat="51.760320151224732" lon="39.423860209062696">
        <ele>119.34</ele>
        <time>2016-12-18T12:03:03Z</time>
      </trkpt>
      <trkpt lat="51.759802652522922" lon="39.423828441649675">
        <ele>118.38</ele>
        <time>2016-12-18T12:03:13Z</time>
      </trkpt>
      <trkpt lat="51.759755210950971" lon="39.423849144950509">
        <ele>117.90000000000001</ele>
        <time>2016-12-18T12:03:14Z</time>
      </trkpt>
      <trkpt lat="51.759707685559988" lon="39.423885690048337">
        <ele>117.90000000000001</ele>
        <time>2016-12-18T12:03:15Z</time>
      </trkpt>
      <trkpt lat="51.759617831557989" lon="39.423953918740153">
        <ele>117.90000000000001</ele>
        <time>2016-12-18T12:03:17Z</time>
      </trkpt>
      <trkpt lat="51.759516829624772" lon="39.424013011157513">
        <ele>118.38</ele>
        <time>2016-12-18T12:03:19Z</time>
      </trkpt>
      <trkpt lat="51.759473914280534" lon="39.424066571518779">
        <ele>118.38</ele>
        <time>2016-12-18T12:03:20Z</time>
      </trkpt>
      <trkpt lat="51.759436363354325" lon="39.424138572067022">
        <ele>118.38</ele>
        <time>2016-12-18T12:03:21Z</time>
      </trkpt>
      <trkpt lat="51.75939604640007" lon="39.424212081357837">
        <ele>118.38</ele>
        <time>2016-12-18T12:03:22Z</time>
      </trkpt>
      <trkpt lat="51.759351287037134" lon="39.42428064532578">
        <ele>118.38</ele>
        <time>2016-12-18T12:03:23Z</time>
      </trkpt>
      <trkpt lat="51.759306024760008" lon="39.424345185980201">
        <ele>118.38</ele>
        <time>2016-12-18T12:03:24Z</time>
      </trkpt>
      <trkpt lat="51.759263277053833" lon="39.424398243427277">
        <ele>118.38</ele>
        <time>2016-12-18T12:03:25Z</time>
      </trkpt>
      <trkpt lat="51.759220948442817" lon="39.424444762989879">
        <ele>118.86</ele>
        <time>2016-12-18T12:03:26Z</time>
      </trkpt>
      <trkpt lat="51.759094130247831" lon="39.42459580488503">
        <ele>118.86</ele>
        <time>2016-12-18T12:03:29Z</time>
      </trkpt>
      <trkpt lat="51.758808055892587" lon="39.425036525353789">
        <ele>117.42</ele>
        <time>2016-12-18T12:03:36Z</time>
      </trkpt>
      <trkpt lat="51.758697582408786" lon="39.42523836158216">
        <ele>115.98</ele>
        <time>2016-12-18T12:03:39Z</time>
      </trkpt>
      <trkpt lat="51.758649302646518" lon="39.425299549475312">
        <ele>115.5</ele>
        <time>2016-12-18T12:03:40Z</time>
      </trkpt>
      <trkpt lat="51.758605968207121" lon="39.425364676862955">
        <ele>115.01000000000001</ele>
        <time>2016-12-18T12:03:41Z</time>
      </trkpt>
      <trkpt lat="51.758106993511319" lon="39.426119970157743">
        <ele>111.17</ele>
        <time>2016-12-18T12:03:53Z</time>
      </trkpt>
      <trkpt lat="51.758060976862907" lon="39.426162969321012">
        <ele>111.17</ele>
        <time>2016-12-18T12:03:54Z</time>
      </trkpt>
      <trkpt lat="51.758012613281608" lon="39.426196161657572">
        <ele>111.17</ele>
        <time>2016-12-18T12:03:55Z</time>
      </trkpt>
      <trkpt lat="51.757732657715678" lon="39.426159532740712">
        <ele>112.13</ele>
        <time>2016-12-18T12:04:03Z</time>
      </trkpt>
      <trkpt lat="51.757577508687973" lon="39.425780670717359">
        <ele>111.17</ele>
        <time>2016-12-18T12:04:09Z</time>
      </trkpt>
      <trkpt lat="51.757522858679295" lon="39.425652176141739">
        <ele>111.65000000000001</ele>
        <time>2016-12-18T12:04:11Z</time>
      </trkpt>
      <trkpt lat="51.757489079609513" lon="39.425595263019204">
        <ele>111.65000000000001</ele>
        <time>2016-12-18T12:04:12Z</time>
      </trkpt>
      <trkpt lat="51.757453121244907" lon="39.42554228939116">
        <ele>111.65000000000001</ele>
        <time>2016-12-18T12:04:13Z</time>
      </trkpt>
      <trkpt lat="51.757197054103017" lon="39.425199972465634">
        <ele>111.17</ele>
        <time>2016-12-18T12:04:20Z</time>
      </trkpt>
      <trkpt lat="51.757172495126724" lon="39.425145154818892">
        <ele>111.65000000000001</ele>
        <time>2016-12-18T12:04:21Z</time>
      </trkpt>
      <trkpt lat="51.757157659158111" lon="39.425088576972485">
        <ele>112.13</ele>
        <time>2016-12-18T12:04:22Z</time>
      </trkpt>
      <trkpt lat="51.757152546197176" lon="39.425029149278998">
        <ele>112.61</ele>
        <time>2016-12-18T12:04:23Z</time>
      </trkpt>
      <trkpt lat="51.757151540368795" lon="39.424958489835262">
        <ele>112.61</ele>
        <time>2016-12-18T12:04:24Z</time>
      </trkpt>
      <trkpt lat="51.757155396044254" lon="39.424707284197211">
        <ele>113.09</ele>
        <time>2016-12-18T12:04:27Z</time>
      </trkpt>
      <trkpt lat="51.757160341367126" lon="39.424625225365162">
        <ele>113.56999999999999</ele>
        <time>2016-12-18T12:04:28Z</time>
      </trkpt>
      <trkpt lat="51.757185151800513" lon="39.423498194664717">
        <ele>115.01000000000001</ele>
        <time>2016-12-18T12:04:44Z</time>
      </trkpt>
      <trkpt lat="51.757184313610196" lon="39.423281354829669">
        <ele>115.5</ele>
        <time>2016-12-18T12:04:47Z</time>
      </trkpt>
      <trkpt lat="51.757137710228562" lon="39.422149881720543">
        <ele>115.5</ele>
        <time>2016-12-18T12:05:03Z</time>
      </trkpt>
      <trkpt lat="51.757176434621215" lon="39.42134496755898">
        <ele>115.98</ele>
        <time>2016-12-18T12:05:14Z</time>
      </trkpt>
      <trkpt lat="51.757190013304353" lon="39.42127606831491">
        <ele>115.98</ele>
        <time>2016-12-18T12:05:15Z</time>
      </trkpt>
      <trkpt lat="51.757227564230561" lon="39.421065766364336">
        <ele>116.45999999999999</ele>
        <time>2016-12-18T12:05:18Z</time>
      </trkpt>
      <trkpt lat="51.757231168448925" lon="39.420992843806744">
        <ele>116.45999999999999</ele>
        <time>2016-12-18T12:05:19Z</time>
      </trkpt>
      <trkpt lat="51.757228318601847" lon="39.420925872400403">
        <ele>116.45999999999999</ele>
        <time>2016-12-18T12:05:20Z</time>
      </trkpt>
      <trkpt lat="51.757134525105357" lon="39.419763386249542">
        <ele>118.38</ele>
        <time>2016-12-18T12:05:37Z</time>
      </trkpt>
      <trkpt lat="51.757083227857947" lon="39.419214874505997">
        <ele>118.86</ele>
        <time>2016-12-18T12:05:45Z</time>
      </trkpt>
      <trkpt lat="51.757057243958116" lon="39.419012870639563">
        <ele>118.86</ele>
        <time>2016-12-18T12:05:48Z</time>
      </trkpt>
      <trkpt lat="51.756893210113049" lon="39.418074935674667">
        <ele>119.34</ele>
        <time>2016-12-18T12:06:04Z</time>
      </trkpt>
      <trkpt lat="51.756790531799197" lon="39.417222160845995">
        <ele>118.86</ele>
        <time>2016-12-18T12:06:18Z</time>
      </trkpt>
      <trkpt lat="51.756762368604541" lon="39.416404506191611">
        <ele>118.38</ele>
        <time>2016-12-18T12:06:32Z</time>
      </trkpt>
      <trkpt lat="51.756956744939089" lon="39.415776366367936">
        <ele>118.38</ele>
        <time>2016-12-18T12:06:45Z</time>
      </trkpt>
      <trkpt lat="51.75693922676146" lon="39.415234308689833">
        <ele>116.94</ele>
        <time>2016-12-18T12:06:57Z</time>
      </trkpt>
      <trkpt lat="51.756944758817554" lon="39.415092235431075">
        <ele>116.94</ele>
        <time>2016-12-18T12:07:00Z</time>
      </trkpt>
      <trkpt lat="51.756940400227904" lon="39.415041524916887">
        <ele>116.45999999999999</ele>
        <time>2016-12-18T12:07:01Z</time>
      </trkpt>
      <trkpt lat="51.75693528726697" lon="39.414991233497858">
        <ele>116.45999999999999</ele>
        <time>2016-12-18T12:07:02Z</time>
      </trkpt>
      <trkpt lat="51.756908297538757" lon="39.414480021223426">
        <ele>115.5</ele>
        <time>2016-12-18T12:07:13Z</time>
      </trkpt>
      <trkpt lat="51.756729679182172" lon="39.41389923915267">
        <ele>116.94</ele>
        <time>2016-12-18T12:07:24Z</time>
      </trkpt>
      <trkpt lat="51.756606632843614" lon="39.413261543959379">
        <ele>116.94</ele>
        <time>2016-12-18T12:07:35Z</time>
      </trkpt>
      <trkpt lat="51.756619205698371" lon="39.412491163238883">
        <ele>116.45999999999999</ele>
        <time>2016-12-18T12:07:49Z</time>
      </trkpt>
      <trkpt lat="51.756438408046961" lon="39.411733103916049">
        <ele>118.38</ele>
        <time>2016-12-18T12:08:02Z</time>
      </trkpt>
      <trkpt lat="51.756250988692045" lon="39.410833641886711">
        <ele>118.38</ele>
        <time>2016-12-18T12:08:17Z</time>
      </trkpt>
      <trkpt lat="51.755973044782877" lon="39.410046329721808">
        <ele>119.34</ele>
        <time>2016-12-18T12:08:32Z</time>
      </trkpt>
      <trkpt lat="51.755823763087392" lon="39.409246193245053">
        <ele>118.38</ele>
        <time>2016-12-18T12:08:46Z</time>
      </trkpt>
      <trkpt lat="51.755574988201261" lon="39.408433232456446">
        <ele>116.45999999999999</ele>
        <time>2016-12-18T12:09:00Z</time>
      </trkpt>
      <trkpt lat="51.755342809483409" lon="39.40770442597568">
        <ele>117.90000000000001</ele>
        <time>2016-12-18T12:09:13Z</time>
      </trkpt>
      <trkpt lat="51.755247674882412" lon="39.406994562596083">
        <ele>119.34</ele>
        <time>2016-12-18T12:09:25Z</time>
      </trkpt>
      <trkpt lat="51.755007114261389" lon="39.40624681301415">
        <ele>118.38</ele>
        <time>2016-12-18T12:09:38Z</time>
      </trkpt>
      <trkpt lat="51.754766134545207" lon="39.40555153414607">
        <ele>117.90000000000001</ele>
        <time>2016-12-18T12:09:51Z</time>
      </trkpt>
      <trkpt lat="51.754609979689121" lon="39.404943846166134">
        <ele>119.34</ele>
        <time>2016-12-18T12:10:02Z</time>
      </trkpt>
      <trkpt lat="51.754408981651068" lon="39.404271198436618">
        <ele>118.86</ele>
        <time>2016-12-18T12:10:14Z</time>
      </trkpt>
      <trkpt lat="51.754252323880792" lon="39.403595197945833">
        <ele>119.34</ele>
        <time>2016-12-18T12:10:26Z</time>
      </trkpt>
      <trkpt lat="51.75398351624608" lon="39.402936128899455">
        <ele>120.78</ele>
        <time>2016-12-18T12:10:38Z</time>
      </trkpt>
      <trkpt lat="51.753898020833731" lon="39.402432544156909">
        <ele>120.3</ele>
        <time>2016-12-18T12:10:46Z</time>
      </trkpt>
      <trkpt lat="51.753709344193339" lon="39.401808008551598">
        <ele>121.73999999999999</ele>
        <time>2016-12-18T12:10:57Z</time>
      </trkpt>
      <trkpt lat="51.753515051677823" lon="39.401048189029098">
        <ele>121.26000000000001</ele>
        <time>2016-12-18T12:11:09Z</time>
      </trkpt>
      <trkpt lat="51.753494683653116" lon="39.400979541242123">
        <ele>120.78</ele>
        <time>2016-12-18T12:11:10Z</time>
      </trkpt>
      <trkpt lat="51.753289829939604" lon="39.400283005088568">
        <ele>120.3</ele>
        <time>2016-12-18T12:11:22Z</time>
      </trkpt>
      <trkpt lat="51.75315136089921" lon="39.399544140323997">
        <ele>120.78</ele>
        <time>2016-12-18T12:11:35Z</time>
      </trkpt>
      <trkpt lat="51.753045581281185" lon="39.3988739233464">
        <ele>121.73999999999999</ele>
        <time>2016-12-18T12:11:47Z</time>
      </trkpt>
      <trkpt lat="51.753020016476512" lon="39.398748865351081">
        <ele>121.73999999999999</ele>
        <time>2016-12-18T12:11:51Z</time>
      </trkpt>
      <trkpt lat="51.753013813868165" lon="39.398718439042568">
        <ele>121.73999999999999</ele>
        <time>2016-12-18T12:11:52Z</time>
      </trkpt>
      <trkpt lat="51.753004845231771" lon="39.398688515648246">
        <ele>121.73999999999999</ele>
        <time>2016-12-18T12:11:53Z</time>
      </trkpt>
      <trkpt lat="51.752839302644134" lon="39.398053586483002">
        <ele>121.26000000000001</ele>
        <time>2016-12-18T12:12:07Z</time>
      </trkpt>
      <trkpt lat="51.752788927406073" lon="39.397440450266004">
        <ele>121.73999999999999</ele>
        <time>2016-12-18T12:12:18Z</time>
      </trkpt>
      <trkpt lat="51.752569237723947" lon="39.396679792553186">
        <ele>121.26000000000001</ele>
        <time>2016-12-18T12:12:34Z</time>
      </trkpt>
      <trkpt lat="51.752387182787061" lon="39.39614930190146">
        <ele>121.73999999999999</ele>
        <time>2016-12-18T12:12:45Z</time>
      </trkpt>
      <trkpt lat="51.752363629639149" lon="39.395520659163594">
        <ele>124.15000000000001</ele>
        <time>2016-12-18T12:12:57Z</time>
      </trkpt>
      <trkpt lat="51.752157183364034" lon="39.394886652007699">
        <ele>125.11</ele>
        <time>2016-12-18T12:13:09Z</time>
      </trkpt>
      <trkpt lat="51.751866582781076" lon="39.39411367289722">
        <ele>125.59</ele>
        <time>2016-12-18T12:13:23Z</time>
      </trkpt>
      <trkpt lat="51.75163121894002" lon="39.393300712108612">
        <ele>123.67</ele>
        <time>2016-12-18T12:13:37Z</time>
      </trkpt>
      <trkpt lat="51.751486882567406" lon="39.392583388835192">
        <ele>123.67</ele>
        <time>2016-12-18T12:13:49Z</time>
      </trkpt>
      <trkpt lat="51.751251937821507" lon="39.391707228496671">
        <ele>121.26000000000001</ele>
        <time>2016-12-18T12:14:05Z</time>
      </trkpt>
      <trkpt lat="51.751080695539713" lon="39.391171960160136">
        <ele>121.73999999999999</ele>
        <time>2016-12-18T12:14:16Z</time>
      </trkpt>
      <trkpt lat="51.750825718045235" lon="39.390610372647643">
        <ele>122.22</ele>
        <time>2016-12-18T12:14:28Z</time>
      </trkpt>
      <trkpt lat="51.750532938167453" lon="39.390051299706101">
        <ele>122.70999999999999</ele>
        <time>2016-12-18T12:14:40Z</time>
      </trkpt>
      <trkpt lat="51.750318864360452" lon="39.389723232015967">
        <ele>121.73999999999999</ele>
        <time>2016-12-18T12:14:47Z</time>
      </trkpt>
      <trkpt lat="51.749915024265647" lon="39.389041867107153">
        <ele>119.81999999999999</ele>
        <time>2016-12-18T12:15:01Z</time>
      </trkpt>
      <trkpt lat="51.749556781724095" lon="39.388291938230395">
        <ele>118.38</ele>
        <time>2016-12-18T12:15:17Z</time>
      </trkpt>
      <trkpt lat="51.749386629089713" lon="39.387748958542943">
        <ele>118.38</ele>
        <time>2016-12-18T12:15:27Z</time>
      </trkpt>
      <trkpt lat="51.749153528362513" lon="39.386976482346654">
        <ele>117.42</ele>
        <time>2016-12-18T12:15:40Z</time>
      </trkpt>
      <trkpt lat="51.749079935252666" lon="39.386738017201424">
        <ele>116.45999999999999</ele>
        <time>2016-12-18T12:15:44Z</time>
      </trkpt>
      <trkpt lat="51.749069038778543" lon="39.386673225089908">
        <ele>115.98</ele>
        <time>2016-12-18T12:15:45Z</time>
      </trkpt>
      <trkpt lat="51.749065686017275" lon="39.38661128282547">
        <ele>115.98</ele>
        <time>2016-12-18T12:15:46Z</time>
      </trkpt>
      <trkpt lat="51.74906593747437" lon="39.386555626988411">
        <ele>115.98</ele>
        <time>2016-12-18T12:15:47Z</time>
      </trkpt>
      <trkpt lat="51.749069206416607" lon="39.386498630046844">
        <ele>115.98</ele>
        <time>2016-12-18T12:15:48Z</time>
      </trkpt>
      <trkpt lat="51.749074151739478" lon="39.386443728581071">
        <ele>115.98</ele>
        <time>2016-12-18T12:15:49Z</time>
      </trkpt>
      <trkpt lat="51.748975077643991" lon="39.385742833837867">
        <ele>115.98</ele>
        <time>2016-12-18T12:16:02Z</time>
      </trkpt>
      <trkpt lat="51.748727224767208" lon="39.384998269379139">
        <ele>116.94</ele>
        <time>2016-12-18T12:16:16Z</time>
      </trkpt>
      <trkpt lat="51.748449532315135" lon="39.384203664958477">
        <ele>116.94</ele>
        <time>2016-12-18T12:16:31Z</time>
      </trkpt>
      <trkpt lat="51.748153902590275" lon="39.383481312543154">
        <ele>117.42</ele>
        <time>2016-12-18T12:16:45Z</time>
      </trkpt>
      <trkpt lat="51.747854417189956" lon="39.382710931822658">
        <ele>116.45999999999999</ele>
        <time>2016-12-18T12:16:59Z</time>
      </trkpt>
      <trkpt lat="51.747593907639384" lon="39.38182421028614">
        <ele>117.42</ele>
        <time>2016-12-18T12:17:16Z</time>
      </trkpt>
      <trkpt lat="51.74720574170351" lon="39.380884347483516">
        <ele>117.42</ele>
        <time>2016-12-18T12:17:36Z</time>
      </trkpt>
      <trkpt lat="51.74691354855895" lon="39.381033461540937">
        <ele>117.42</ele>
        <time>2016-12-18T12:17:45Z</time>
      </trkpt>
      <trkpt lat="51.746487412601709" lon="39.381309561431408">
        <ele>116.45999999999999</ele>
        <time>2016-12-18T12:17:58Z</time>
      </trkpt>
      <trkpt lat="51.746461428701878" lon="39.381282068789005">
        <ele>115.98</ele>
        <time>2016-12-18T12:17:59Z</time>
      </trkpt>
      <trkpt lat="51.746438881382346" lon="39.381258264183998">
        <ele>115.98</ele>
        <time>2016-12-18T12:18:00Z</time>
      </trkpt>
      <trkpt lat="51.746419267728925" lon="39.38124418258667">
        <ele>115.5</ele>
        <time>2016-12-18T12:18:01Z</time>
      </trkpt>
      <trkpt lat="51.74639998935163" lon="39.381235213950276">
        <ele>115.01000000000001</ele>
        <time>2016-12-18T12:18:11Z</time>
      </trkpt>
      <trkpt lat="51.7463946249336" lon="39.381248792633414">
        <ele>114.05</ele>
        <time>2016-12-18T12:18:34Z</time>
      </trkpt>
      <trkpt lat="51.74638188444078" lon="39.381193974986672">
        <ele>114.53</ele>
        <time>2016-12-18T12:19:09Z</time>
      </trkpt>
      <trkpt lat="51.746377190575004" lon="39.381221886724234">
        <ele>112.13</ele>
        <time>2016-12-18T12:19:41Z</time>
      </trkpt>
      <trkpt lat="51.746369982138276" lon="39.381255162879825">
        <ele>109.73</ele>
        <time>2016-12-18T12:20:00Z</time>
      </trkpt>
      <trkpt lat="51.746355816721916" lon="39.38121878542006">
        <ele>113.09</ele>
        <time>2016-12-18T12:20:26Z</time>
      </trkpt>
      <trkpt lat="51.746388841420412" lon="39.381245691329241">
        <ele>114.05</ele>
        <time>2016-12-18T12:20:47Z</time>
      </trkpt>
      <trkpt lat="51.746407616883516" lon="39.381231777369976">
        <ele>114.53</ele>
        <time>2016-12-18T12:21:08Z</time>
      </trkpt>
      <trkpt lat="51.746405772864819" lon="39.38126228749752">
        <ele>118.38</ele>
        <time>2016-12-18T12:21:39Z</time>
      </trkpt>
      <trkpt lat="51.746379537507892" lon="39.381247786805034">
        <ele>116.94</ele>
        <time>2016-12-18T12:21:58Z</time>
      </trkpt>
      <trkpt lat="51.746368138119578" lon="39.381245272234082">
        <ele>116.45999999999999</ele>
        <time>2016-12-18T12:21:59Z</time>
      </trkpt>
      <trkpt lat="51.746353972703218" lon="39.381239572539926">
        <ele>116.45999999999999</ele>
        <time>2016-12-18T12:22:00Z</time>
      </trkpt>
      <trkpt lat="51.746337460353971" lon="39.381231274455786">
        <ele>116.45999999999999</ele>
        <time>2016-12-18T12:22:01Z</time>
      </trkpt>
      <trkpt lat="51.746322624385357" lon="39.381220629438758">
        <ele>116.45999999999999</ele>
        <time>2016-12-18T12:22:02Z</time>
      </trkpt>
      <trkpt lat="51.746150460094213" lon="39.38095978461206">
        <ele>117.90000000000001</ele>
        <time>2016-12-18T12:22:12Z</time>
      </trkpt>
      <trkpt lat="51.745873522013426" lon="39.380165012553334">
        <ele>117.90000000000001</ele>
        <time>2016-12-18T12:22:27Z</time>
      </trkpt>
      <trkpt lat="51.745833791792393" lon="39.380044983699918">
        <ele>117.90000000000001</ele>
        <time>2016-12-18T12:22:29Z</time>
      </trkpt>
      <trkpt lat="51.745486697182059" lon="39.37898769043386">
        <ele>116.45999999999999</ele>
        <time>2016-12-18T12:22:45Z</time>
      </trkpt>
      <trkpt lat="51.745134321972728" lon="39.377920674160123">
        <ele>115.5</ele>
        <time>2016-12-18T12:23:01Z</time>
      </trkpt>
      <trkpt lat="51.744692344218493" lon="39.376605888828635">
        <ele>114.53</ele>
        <time>2016-12-18T12:23:19Z</time>
      </trkpt>
      <trkpt lat="51.744236284866929" lon="39.375260677188635">
        <ele>114.05</ele>
        <time>2016-12-18T12:23:38Z</time>
      </trkpt>
      <trkpt lat="51.743854740634561" lon="39.374133897945285">
        <ele>112.13</ele>
        <time>2016-12-18T12:23:54Z</time>
      </trkpt>
      <trkpt lat="51.743484511971474" lon="39.37300980091095">
        <ele>112.13</ele>
        <time>2016-12-18T12:24:09Z</time>
      </trkpt>
      <trkpt lat="51.74311981536448" lon="39.371897270902991">
        <ele>111.65000000000001</ele>
        <time>2016-12-18T12:24:24Z</time>
      </trkpt>
      <trkpt lat="51.742700133472681" lon="39.370633363723755">
        <ele>110.69</ele>
        <time>2016-12-18T12:24:40Z</time>
      </trkpt>
      <trkpt lat="51.742280786857009" lon="39.369339784607291">
        <ele>112.13</ele>
        <time>2016-12-18T12:24:57Z</time>
      </trkpt>
      <trkpt lat="51.741951629519463" lon="39.36835415661335">
        <ele>112.61</ele>
        <time>2016-12-18T12:25:12Z</time>
      </trkpt>
      <trkpt lat="51.741718528792262" lon="39.36743751168251">
        <ele>114.53</ele>
        <time>2016-12-18T12:25:27Z</time>
      </trkpt>
    </trkseg>
  </trk>

</gpx>